[[{"header":{"parameterUnit":"m.s-1","parameterCategory":1,"la1":30.6,"la2":29.2853,"lo1":-89.7004,"lo2":-87.6739,"dy":0.0162,"dx":0.0183,"nx":112,"ny":82,"refTime":"2026-04-19T12:00:00:Z","depth":0,"parameterNumber":2,"parameterNumberName":"U-component_of_WINDS"},"data":[0.0,0.0,0.0,0.0,0.0,0.0,0.0,0.0,0.0,0.0,0.0,0.0,0.0,0.0,0.0,0.0,0.0,0.0,0.0,0.0,0.0,0.0,0.0,0.0,0.0,0.0,0.0,0.0,0.0,0.0,0.0,0.0,0.0,0.0,0.0,0.0,0.0,0.0,0.0,0.0,0.0,0.0,0.0,0.0,0.0,0.0,0.0,0.0,0.0,0.0,0.0,0.0,0.0,0.0,0.0,0.0,0.0,0.0,0.0,0.0,0.0,0.0,0.0,0.0,0.0,0.0,0.0,0.0,0.0,0.0,0.0,0.0,0.0,0.0,0.0,0.0,0.0,0.0,0.0,0.0,0.0,0.0,0.0,0.0,0.0,0.0,0.0,0.0,0.0,0.0,-2.8367,-3.2699,-3.7652,-3.9961,-3.8396,-3.6366,-3.3795,-3.048,0.0,0.0,0.0,0.0,0.0,0.0,0.0,0.0,0.0,0.0,0.0,0.0,0.0,0.0,0.0,0.0,0.0,0.0,0.0,0.0,0.0,0.0,0.0,0.0,0.0,0.0,0.0,0.0,0.0,0.0,0.0,0.0,0.0,0.0,0.0,0.0,0.0,0.0,0.0,0.0,0.0,0.0,0.0,0.0,0.0,0.0,0.0,0.0,0.0,0.0,0.0,0.0,0.0,0.0,0.0,0.0,0.0,0.0,0.0,0.0,0.0,0.0,0.0,0.0,0.0,0.0,0.0,0.0,0.0,0.0,0.0,0.0,0.0,0.0,0.0,0.0,0.0,0.0,0.0,0.0,0.0,0.0,0.0,0.0,0.0,0.0,0.0,0.0,0.0,0.0,0.0,0.0,0.0,0.0,0.0,0.0,0.0,0.0,0.0,0.0,0.0,0.0,0.0,0.0,-2.9364,-3.6299,-4.0535,-4.2057,-3.9927,-3.887,-3.6231,-3.1326,0.0,0.0,0.0,0.0,0.0,0.0,0.0,0.0,0.0,0.0,0.0,0.0,0.0,0.0,0.0,0.0,0.0,0.0,0.0,0.0,0.0,0.0,0.0,0.0,0.0,0.0,0.0,0.0,0.0,0.0,0.0,0.0,0.0,0.0,0.0,0.0,0.0,0.0,0.0,0.0,0.0,0.0,0.0,0.0,0.0,0.0,0.0,0.0,0.0,0.0,0.0,0.0,0.0,0.0,0.0,0.0,0.0,0.0,0.0,0.0,0.0,0.0,0.0,0.0,0.0,0.0,0.0,0.0,0.0,0.0,0.0,0.0,0.0,0.0,0.0,0.0,0.0,0.0,0.0,0.0,0.0,0.0,0.0,0.0,0.0,0.0,0.0,0.0,0.0,0.0,0.0,0.0,0.0,0.0,0.0,0.0,0.0,0.0,0.0,0.0,0.0,0.0,0.0,-3.0176,-3.4235,-3.8091,-4.1068,-4.2083,-4.0257,-3.8667,-3.5893,-3.1455,-2.7247,0.0,0.0,0.0,0.0,0.0,0.0,0.0,0.0,0.0,0.0,0.0,0.0,0.0,0.0,0.0,0.0,0.0,0.0,0.0,0.0,0.0,0.0,0.0,0.0,0.0,0.0,0.0,0.0,0.0,0.0,0.0,0.0,0.0,0.0,0.0,0.0,0.0,0.0,0.0,0.0,0.0,0.0,0.0,0.0,0.0,0.0,0.0,0.0,0.0,0.0,0.0,0.0,0.0,0.0,0.0,0.0,0.0,0.0,0.0,0.0,0.0,0.0,0.0,0.0,0.0,0.0,0.0,0.0,0.0,0.0,0.0,0.0,0.0,0.0,0.0,0.0,0.0,0.0,0.0,0.0,0.0,0.0,0.0,0.0,0.0,0.0,0.0,0.0,0.0,0.0,0.0,0.0,0.0,0.0,0.0,0.0,0.0,0.0,0.0,0.0,0.0,0.0,-3.4912,-3.8497,-3.9411,-4.1339,-4.188,-4.0223,-3.8082,-3.5025,-3.0802,-2.7091,0.0,0.0,0.0,0.0,0.0,0.0,0.0,0.0,0.0,0.0,0.0,0.0,0.0,0.0,0.0,0.0,0.0,0.0,0.0,0.0,0.0,0.0,0.0,0.0,0.0,0.0,0.0,0.0,0.0,0.0,0.0,0.0,0.0,0.0,0.0,0.0,0.0,0.0,0.0,0.0,0.0,0.0,0.0,0.0,0.0,0.0,0.0,0.0,0.0,0.0,0.0,0.0,0.0,0.0,0.0,0.0,0.0,0.0,0.0,0.0,0.0,0.0,0.0,0.0,0.0,0.0,0.0,0.0,0.0,0.0,0.0,0.0,0.0,0.0,0.0,0.0,0.0,0.0,0.0,0.0,0.0,0.0,0.0,0.0,0.0,0.0,0.0,0.0,0.0,0.0,0.0,0.0,0.0,0.0,0.0,0.0,0.0,0.0,0.0,0.0,0.0,0.0,-3.569,-3.9478,-4.0899,-4.2422,-4.2429,-4.0265,-3.8058,-3.4551,-2.9282,-2.5914,0.0,0.0,0.0,0.0,0.0,0.0,0.0,0.0,0.0,0.0,0.0,0.0,0.0,0.0,0.0,0.0,0.0,0.0,0.0,0.0,0.0,0.0,0.0,0.0,0.0,0.0,0.0,0.0,0.0,0.0,0.0,0.0,0.0,0.0,0.0,0.0,0.0,0.0,0.0,0.0,0.0,0.0,0.0,0.0,0.0,0.0,0.0,0.0,0.0,0.0,0.0,0.0,0.0,0.0,0.0,0.0,0.0,0.0,0.0,0.0,0.0,0.0,0.0,0.0,0.0,0.0,0.0,0.0,0.0,0.0,0.0,0.0,0.0,0.0,0.0,0.0,0.0,0.0,0.0,0.0,0.0,0.0,0.0,0.0,0.0,0.0,0.0,0.0,0.0,0.0,0.0,0.0,0.0,0.0,0.0,0.0,0.0,0.0,0.0,0.0,0.0,0.0,-3.6434,-4.0087,-4.1102,-4.2117,-4.2016,-4.0231,-3.7178,-3.3482,-2.9042,0.0,0.0,0.0,0.0,0.0,0.0,0.0,0.0,0.0,0.0,0.0,0.0,0.0,0.0,0.0,0.0,0.0,0.0,0.0,0.0,0.0,0.0,0.0,0.0,0.0,0.0,0.0,0.0,0.0,0.0,0.0,0.0,0.0,0.0,0.0,0.0,0.0,0.0,0.0,0.0,0.0,0.0,0.0,0.0,0.0,0.0,0.0,0.0,0.0,0.0,0.0,0.0,0.0,0.0,0.0,0.0,0.0,0.0,0.0,0.0,0.0,0.0,0.0,0.0,0.0,0.0,0.0,0.0,0.0,0.0,0.0,0.0,0.0,0.0,0.0,0.0,0.0,0.0,0.0,0.0,0.0,0.0,0.0,0.0,0.0,0.0,0.0,0.0,0.0,0.0,0.0,0.0,0.0,0.0,0.0,0.0,0.0,0.0,0.0,0.0,0.0,0.0,-3.2158,-3.7009,-4.046,-4.1441,-4.1982,-4.161,-3.9918,-3.6299,-3.2381,-2.8251,0.0,0.0,0.0,0.0,0.0,0.0,0.0,0.0,0.0,0.0,0.0,0.0,0.0,0.0,0.0,0.0,0.0,0.0,0.0,0.0,0.0,0.0,0.0,0.0,0.0,0.0,0.0,0.0,0.0,0.0,0.0,0.0,0.0,0.0,0.0,0.0,0.0,0.0,0.0,0.0,0.0,0.0,0.0,0.0,0.0,0.0,0.0,0.0,0.0,0.0,0.0,0.0,0.0,0.0,0.0,0.0,0.0,0.0,0.0,0.0,0.0,0.0,0.0,0.0,0.0,0.0,0.0,0.0,0.0,0.0,0.0,0.0,0.0,0.0,0.0,0.0,0.0,0.0,0.0,0.0,0.0,0.0,0.0,0.0,0.0,0.0,0.0,0.0,0.0,0.0,0.0,0.0,0.0,0.0,0.0,0.0,0.0,0.0,0.0,0.0,0.0,0.0,-3.2814,-3.7313,-4.0654,-4.2117,-4.2286,-4.1407,-3.9174,-3.5588,-3.1435,0.0,0.0,0.0,0.0,0.0,0.0,0.0,0.0,0.0,0.0,0.0,0.0,0.0,0.0,0.0,0.0,0.0,0.0,0.0,0.0,0.0,0.0,0.0,0.0,0.0,0.0,0.0,0.0,0.0,0.0,0.0,0.0,0.0,0.0,0.0,0.0,0.0,0.0,0.0,0.0,0.0,0.0,0.0,0.0,0.0,0.0,0.0,0.0,0.0,0.0,0.0,0.0,0.0,0.0,0.0,0.0,0.0,0.0,0.0,0.0,0.0,0.0,0.0,0.0,0.0,0.0,0.0,0.0,0.0,0.0,0.0,0.0,0.0,0.0,0.0,0.0,0.0,0.0,0.0,0.0,0.0,0.0,0.0,0.0,0.0,0.0,0.0,0.0,0.0,0.0,0.0,0.0,0.0,0.0,0.0,0.0,0.0,0.0,0.0,0.0,0.0,0.0,0.0,-3.2814,-3.7313,-4.046,-4.1407,-4.1982,-4.1407,-3.9174,-3.6028,-3.2435,-2.8391,0.0,0.0,0.0,0.0,0.0,0.0,0.0,0.0,0.0,0.0,0.0,0.0,0.0,0.0,0.0,0.0,0.0,0.0,0.0,0.0,0.0,0.0,0.0,0.0,0.0,0.0,0.0,0.0,0.0,0.0,0.0,0.0,0.0,0.0,0.0,0.0,0.0,0.0,0.0,0.0,0.0,0.0,0.0,0.0,0.0,0.0,0.0,0.0,0.0,0.0,0.0,0.0,0.0,0.0,0.0,0.0,0.0,0.0,0.0,0.0,0.0,0.0,0.0,0.0,0.0,0.0,0.0,0.0,0.0,0.0,0.0,0.0,0.0,0.0,0.0,0.0,0.0,0.0,0.0,0.0,0.0,0.0,0.0,0.0,0.0,0.0,0.0,0.0,0.0,0.0,0.0,0.0,0.0,0.0,0.0,0.0,0.0,0.0,0.0,0.0,0.0,0.0,-3.2882,-3.7584,-4.073,-4.117,-4.1847,-4.1407,-3.9174,-3.6502,-3.3199,-2.9139,0.0,0.0,0.0,0.0,0.0,0.0,0.0,0.0,0.0,0.0,0.0,0.0,0.0,0.0,0.0,0.0,0.0,0.0,0.0,0.0,0.0,0.0,0.0,0.0,0.0,0.0,0.0,0.0,0.0,0.0,0.0,0.0,0.0,0.0,0.0,0.0,0.0,0.0,0.0,0.0,0.0,0.0,0.0,0.0,0.0,0.0,0.0,0.0,0.0,0.0,0.0,0.0,0.0,0.0,0.0,0.0,0.0,0.0,0.0,0.0,0.0,0.0,0.0,0.0,0.0,0.0,0.0,0.0,0.0,0.0,0.0,0.0,0.0,0.0,0.0,0.0,0.0,0.0,0.0,0.0,0.0,0.0,0.0,0.0,0.0,0.0,0.0,0.0,0.0,0.0,0.0,0.0,0.0,0.0,0.0,0.0,0.0,0.0,0.0,0.0,0.0,0.0,-3.2916,-3.799,-4.117,-4.1102,-4.1813,-4.1373,-3.9073,-3.6941,-3.3863,-2.9484,0.0,0.0,0.0,0.0,0.0,0.0,0.0,0.0,0.0,0.0,0.0,0.0,0.0,0.0,0.0,0.0,0.0,0.0,0.0,0.0,0.0,0.0,0.0,0.0,0.0,0.0,0.0,0.0,0.0,0.0,0.0,0.0,0.0,0.0,0.0,0.0,0.0,0.0,0.0,0.0,0.0,0.0,0.0,0.0,0.0,0.0,0.0,0.0,0.0,0.0,0.0,0.0,0.0,0.0,0.0,0.0,0.0,0.0,0.0,0.0,-2.5711,0.0,0.0,0.0,0.0,0.0,0.0,0.0,0.0,0.0,0.0,0.0,0.0,0.0,0.0,0.0,0.0,0.0,0.0,0.0,0.0,0.0,0.0,0.0,0.0,0.0,0.0,0.0,0.0,0.0,0.0,0.0,0.0,0.0,0.0,0.0,0.0,0.0,0.0,0.0,0.0,0.0,-3.2916,-3.799,-4.0967,-4.0417,-4.1508,-4.117,-3.8362,-3.7144,-3.49,-3.0973,-2.774,0.0,0.0,0.0,0.0,0.0,0.0,0.0,0.0,0.0,0.0,0.0,0.0,0.0,0.0,0.0,0.0,0.0,0.0,0.0,0.0,0.0,0.0,0.0,0.0,0.0,0.0,0.0,0.0,0.0,0.0,0.0,0.0,0.0,0.0,0.0,0.0,0.0,0.0,0.0,0.0,0.0,0.0,0.0,0.0,0.0,0.0,0.0,0.0,0.0,0.0,0.0,0.0,0.0,0.0,0.0,0.0,0.0,0.0,0.0,0.0,-2.7803,0.0,0.0,0.0,0.0,0.0,0.0,0.0,0.0,0.0,0.0,0.0,0.0,0.0,0.0,0.0,0.0,0.0,0.0,0.0,0.0,0.0,0.0,0.0,0.0,0.0,0.0,0.0,0.0,0.0,0.0,0.0,0.0,0.0,0.0,0.0,0.0,0.0,0.0,0.0,0.0,-3.3491,-3.8497,-4.1305,-4.0214,-4.1433,-4.1238,-3.8633,-3.7753,-3.5859,-3.2476,-2.9803,0.0,0.0,0.0,0.0,0.0,0.0,0.0,0.0,0.0,0.0,0.0,0.0,0.0,0.0,0.0,0.0,0.0,0.0,0.0,0.0,0.0,0.0,0.0,0.0,0.0,0.0,0.0,0.0,0.0,0.0,0.0,0.0,0.0,0.0,0.0,0.0,0.0,0.0,0.0,0.0,0.0,0.0,0.0,0.0,0.0,0.0,0.0,0.0,0.0,0.0,0.0,0.0,0.0,-3.8601,-3.926,-4.0427,-3.9858,-3.9589,-3.9409,-3.6148,-3.3574,-3.1719,-3.1719,0.0,0.0,0.0,0.0,0.0,0.0,0.0,0.0,0.0,0.0,0.0,0.0,0.0,0.0,0.0,0.0,0.0,0.0,0.0,0.0,0.0,0.0,0.0,0.0,-3.4267,-3.446,0.0,0.0,0.0,0.0,0.0,0.0,0.0,0.0,0.0,0.0,0.0,0.0,-3.4134,-3.8937,-4.1576,-4.0248,-4.1305,-4.1271,-3.9174,-3.843,-3.6874,-3.3964,-3.1833,-2.9323,0.0,0.0,0.0,0.0,0.0,0.0,0.0,0.0,0.0,0.0,0.0,0.0,0.0,0.0,0.0,0.0,0.0,0.0,0.0,0.0,0.0,0.0,0.0,0.0,0.0,0.0,0.0,0.0,0.0,0.0,0.0,0.0,-2.5315,-2.6656,0.0,0.0,0.0,0.0,0.0,0.0,0.0,0.0,0.0,0.0,0.0,0.0,0.0,-3.902,-4.0374,-4.1654,-4.2632,-4.3419,-4.3419,-4.3808,-4.4526,-4.4436,-4.4377,-4.4347,-4.3838,0.0,-3.6507,-3.6507,0.0,0.0,0.0,0.0,0.0,0.0,0.0,0.0,0.0,0.0,0.0,0.0,0.0,0.0,0.0,0.0,0.0,0.0,0.0,0.0,0.0,0.0,-3.7061,-3.6985,-3.8163,-3.9274,0.0,-3.6112,-3.3017,-3.0987,-2.9837,0.0,0.0,0.0,0.0,0.0,0.0,0.0,-3.4201,-3.8497,-4.1035,-4.018,-4.0832,-4.0696,-3.914,-3.8903,-3.7855,-3.5464,-3.3808,-3.1854,-2.9322,-2.5662,0.0,0.0,0.0,0.0,0.0,0.0,0.0,0.0,0.0,0.0,0.0,0.0,0.0,0.0,0.0,0.0,0.0,0.0,0.0,0.0,0.0,0.0,0.0,0.0,0.0,0.0,0.0,0.0,0.0,-2.5794,-2.8188,-2.9116,-2.9295,-2.9325,0.0,0.0,0.0,0.0,0.0,0.0,0.0,0.0,0.0,-3.9792,-4.2462,-4.4466,-4.5855,-4.71,-4.8087,-4.8745,-4.8745,-4.9075,-4.9703,-4.9344,-4.9164,-4.9164,-4.8775,-4.71,-4.4377,-4.1414,-3.908,-3.7105,0.0,0.0,0.0,0.0,-3.2886,-3.3635,-3.4502,-3.4622,0.0,0.0,0.0,0.0,0.0,0.0,0.0,0.0,0.0,0.0,0.0,0.0,0.0,-4.007,-4.1379,-4.2415,-4.2016,-4.0666,-3.8734,0.0,-3.3964,-3.1901,-2.9736,0.0,0.0,0.0,0.0,-3.3254,-3.5509,-3.8971,-4.0933,-4.018,-4.1102,-4.1204,-3.974,-3.9986,-3.9445,-3.7618,-3.6535,-3.4655,-3.1771,-2.8619,-2.5616,0.0,0.0,0.0,0.0,0.0,0.0,0.0,0.0,0.0,0.0,0.0,0.0,0.0,0.0,0.0,0.0,0.0,0.0,0.0,0.0,0.0,0.0,0.0,0.0,0.0,0.0,0.0,0.0,-2.9295,-3.145,-3.2407,-3.3095,-3.3245,0.0,0.0,0.0,0.0,0.0,0.0,-3.932,-4.0546,-4.2273,-4.4766,-4.71,-4.8865,-5.0048,-5.1139,-5.1977,-5.2456,-5.2456,-5.2695,-5.3174,-5.2665,-5.2456,-5.2426,-5.1947,-5.1439,-5.0631,-4.6022,-4.324,-4.1683,-3.92,-3.8153,-3.7943,-3.7434,-3.7674,-3.8362,-3.914,-3.932,-3.899,-3.7883,0.0,-3.4863,-3.2766,0.0,0.0,0.0,0.0,-3.6471,-3.8183,-3.9982,-4.1551,-4.2326,-4.362,-4.45,-4.3919,-4.3726,-4.2895,0.0,-3.7449,-3.5182,-3.3715,0.0,0.0,0.0,0.0,-3.5013,-3.71,-3.9614,-4.1001,-4.0426,-4.1196,-4.1271,-4.0164,-4.0349,-3.9986,-3.8645,-3.7821,-3.6055,-3.3006,-3.0471,-2.7414,-2.3685,0.0,0.0,0.0,0.0,0.0,0.0,0.0,0.0,0.0,0.0,0.0,0.0,0.0,0.0,0.0,0.0,0.0,0.0,0.0,0.0,0.0,0.0,0.0,0.0,0.0,0.0,0.0,0.0,0.0,-3.7764,-3.8601,0.0,0.0,0.0,0.0,-3.9858,-4.0636,-4.2162,-4.4766,-4.5574,-4.689,-4.894,-5.0301,-5.1349,-5.2037,-5.2725,-5.3084,-5.3144,-5.3144,-5.3144,-5.3174,-5.3144,-5.3144,-5.3144,-5.3084,-5.3054,-5.2815,-5.0108,-4.7788,-4.5771,-4.3738,-4.2611,-4.2111,-4.2081,-4.2432,-4.314,-4.4466,-4.4496,-4.3868,-4.321,-4.0397,-3.7139,-3.6655,-3.5858,0.0,0.0,-3.8169,-3.9302,-4.0208,-4.1546,-4.2816,-4.3519,-4.456,-4.5461,-4.5804,-4.5152,-4.387,0.0,-3.9851,-3.8319,-3.6829,0.0,-3.3389,-3.4201,-3.5644,-3.7202,-3.8667,-4.0223,-4.1204,-4.117,-4.0561,-4.013,-3.9943,-3.9202,-3.8338,-3.7444,-3.6588,-3.4943,-3.2364,-2.9978,-2.7214,-2.3935,-2.0925,0.0,0.0,0.0,0.0,0.0,0.0,0.0,0.0,0.0,0.0,0.0,0.0,0.0,0.0,0.0,0.0,0.0,0.0,0.0,0.0,0.0,0.0,0.0,0.0,0.0,0.0,0.0,0.0,-4.1444,-4.294,0.0,-4.2312,-4.1983,-4.2671,-4.4706,-4.5843,-4.7472,-4.9613,-5.0361,-5.1259,-5.2426,-5.3294,-5.3892,-5.4132,-5.4371,-5.4461,-5.4461,-5.4461,-5.4461,-5.4461,-5.4461,-5.4461,-5.4461,-5.4012,-5.3832,-5.3743,-5.2366,-5.0631,-4.8641,-4.713,-4.6112,-4.5484,-4.5065,-4.5334,-4.5963,-4.6411,-4.6172,-4.5424,-4.4347,-4.2432,-4.0621,-4.0564,-4.0163,-3.986,-4.0736,-4.1041,-4.1387,-4.2628,-4.3229,-4.379,-4.5091,-4.6184,-4.6847,-4.6734,-4.6176,-4.5282,-4.3858,-4.187,-4.0257,-3.9715,-3.7787,-3.6705,-3.7922,-3.8159,-3.8734,-4.0223,-4.0865,-4.1204,-4.1204,-4.0967,-4.0552,-3.9815,-3.9254,-3.8493,-3.7505,-3.6065,-3.4327,-3.236,-2.9989,-2.7457,-2.4813,-2.1766,-1.9209,0.0,0.0,0.0,0.0,0.0,0.0,0.0,0.0,0.0,0.0,0.0,0.0,0.0,0.0,0.0,0.0,0.0,0.0,0.0,0.0,0.0,0.0,0.0,0.0,0.0,-4.0516,-4.4107,-4.5214,-4.689,-4.7505,-4.6369,-4.6112,-4.6711,-4.8476,-4.9434,-5.078,-5.2785,-5.3084,-5.3593,-5.4521,-5.497,-5.5299,-5.5538,-5.5718,-5.5837,-5.5837,-5.5837,-5.5837,-5.5837,-5.5837,-5.5718,-5.5508,-5.5059,-5.476,-5.4491,-5.4042,-5.2965,-5.1391,-4.9883,-4.9015,-4.8506,-4.7638,-4.7578,-4.7967,-4.7967,-4.7549,-4.68,-4.5693,-4.4586,-4.3698,-4.3578,-4.3344,-4.3227,-4.3633,-4.3309,-4.3092,-4.4195,-4.4342,-4.4543,-4.5889,-4.6931,-4.7539,-4.7039,-4.6267,-4.5496,-4.4691,-4.2989,-4.1654,-4.1654,-4.0016,-3.9143,-4.0352,-4.0117,-4.0251,-4.146,-4.1654,-4.1654,-4.1708,-4.1324,-4.074,-4.006,-3.9003,-3.7998,-3.7134,-3.5116,-3.3284,-3.1811,-2.9661,-2.7427,-2.5094,-2.2184,-1.9821,-1.8027,0.0,0.0,0.0,0.0,0.0,0.0,0.0,0.0,0.0,0.0,0.0,0.0,0.0,0.0,0.0,0.0,0.0,0.0,0.0,0.0,0.0,0.0,0.0,-3.932,-4.3529,-4.7189,-4.9179,-5.0511,-5.1003,-5.0345,-4.9733,-4.9912,-5.1199,-5.1289,-5.2127,-5.4102,-5.3563,-5.3773,-5.5119,-5.5149,-5.5478,-5.6218,-5.6795,-5.7094,-5.7094,-5.7094,-5.7094,-5.7094,-5.7094,-5.6765,-5.6218,-5.6218,-5.5807,-5.5179,-5.5179,-5.482,-5.4042,-5.2067,-5.1289,-5.1079,-4.9823,-4.9389,-4.9359,-4.9359,-4.8865,-4.8237,-4.7549,-4.689,-4.6262,-4.5574,-4.5334,-4.5334,-4.5334,-4.4825,-4.4398,-4.4809,-4.4841,-4.4999,-4.5805,-4.683,-4.7408,-4.6749,-4.5494,-4.4377,-4.3972,-4.3139,-4.2481,-4.2477,-4.1291,-4.0568,-4.1295,-4.1394,0.0,-4.2411,-4.2477,-4.2502,-4.2641,-4.1488,-4.0681,-4.0573,-3.8368,-3.677,-3.6324,-3.3764,-3.176,-3.0639,-2.9002,-2.7106,-2.4829,-2.2174,-2.012,-1.8822,0.0,0.0,0.0,0.0,0.0,0.0,0.0,0.0,0.0,0.0,0.0,0.0,0.0,0.0,0.0,0.0,0.0,0.0,0.0,0.0,0.0,-3.8242,-4.1803,-4.2821,-4.695,-5.0242,-5.1259,-5.2576,-5.3114,-5.2426,-5.1768,-5.1947,-5.3294,-5.2935,-5.3084,-5.4162,-5.3563,-5.3563,-5.4461,-5.4491,-5.5029,-5.6218,-5.6795,-5.7094,-5.7094,-5.7094,-5.7094,-5.7094,-5.7094,-5.6765,-5.6218,-5.6218,-5.5807,-5.5179,-5.5179,-5.5089,-5.482,-5.3773,-5.2785,-5.1887,-5.1528,-5.1109,-5.0631,-5.0122,-4.9807,-4.9523,-4.8386,-4.7908,-4.7638,-4.695,-4.6411,-4.6052,-4.6052,-4.5214,-4.4398,-4.484,-4.491,-4.4999,-4.5805,-4.6655,-4.7237,-4.6906,-4.5602,-4.4334,-4.3868,-4.29,-4.2139,-4.2138,-4.1362,-4.1008,-4.1717,-4.1363,0.0,-4.2039,-4.1685,-4.1454,-4.1724,-4.1259,-4.0706,-4.021,-3.9148,-3.7787,-3.6185,-3.3446,-3.1394,-3.0356,-2.8202,-2.6296,-2.4702,-2.3452,-2.2413,0.0,0.0,0.0,0.0,0.0,0.0,0.0,0.0,0.0,0.0,0.0,0.0,0.0,0.0,0.0,0.0,0.0,0.0,0.0,0.0,0.0,0.0,-4.1683,-4.5143,-4.695,-5.0002,-5.2306,-5.2965,-5.3982,-5.4461,-5.4072,-5.3414,-5.3473,-5.4551,-5.4251,-5.4192,-5.461,-5.4251,-5.4221,-5.461,-5.488,-5.5508,-5.6555,-5.7483,-5.7932,-5.7932,-5.7932,-5.7932,-5.7932,-5.7932,-5.7423,0.0,-5.6555,-5.6047,-5.5179,-5.5179,-5.5179,0.0,0.0,0.0,0.0,0.0,-5.1558,-5.1122,-5.0734,-5.0435,-5.0076,-4.9344,-4.8716,-4.8147,-4.7489,-4.6651,-4.5843,-4.5544,-4.4526,-4.3688,-4.4395,-4.4481,-4.4625,-4.5525,-4.6269,-4.6625,-4.6057,-4.4788,-4.3648,-4.3153,0.0,0.0,-4.1728,-4.1543,-4.1495,-4.1939,-4.1401,-4.1084,-4.156,-4.1211,-4.1086,-4.1469,-4.1227,-4.0874,-4.0275,-3.9401,0.0,0.0,0.0,-3.1319,-2.9598,-2.7891,0.0,0.0,0.0,0.0,0.0,0.0,0.0,0.0,-2.1115,-2.1643,0.0,0.0,0.0,0.0,0.0,0.0,0.0,0.0,0.0,0.0,0.0,0.0,0.0,0.0,0.0,0.0,-4.4616,-4.7804,-5.09,-5.2516,-5.3623,-5.4251,-5.485,-5.5209,-5.5299,-5.47,-5.461,-5.5359,-5.5329,-5.5299,-5.5299,0.0,0.0,0.0,0.0,-5.6496,-5.7214,-5.8471,-5.9099,-5.9099,-5.9099,-5.9099,-5.9099,-5.9099,-5.8381,-5.7094,-5.7094,-5.6376,-5.5179,-5.5179,-5.5179,-5.5119,-5.4461,-5.3773,-5.3025,-5.1798,-5.1289,0.0,0.0,0.0,0.0,-5.0226,-4.9464,-4.8386,-4.7638,-4.6471,-4.5274,-4.4616,-4.3479,-4.2728,-4.3719,-4.3952,-4.4204,-4.519,-4.5859,-4.5989,-4.4962,-4.3774,-4.2808,-4.234,-4.1368,-4.0816,-4.1384,-4.1662,-4.1814,-4.1814,-4.1255,-4.082,-4.082,-4.082,-4.099,-4.139,0.0,0.0,-4.0492,-3.9405,-3.8161,-3.6762,-3.4144,-3.1467,-2.8813,-2.8094,-2.7435,-2.6841,-2.6811,-2.6632,-2.6249,-2.744,-2.7824,-2.732,-2.5681,-2.5292,0.0,0.0,0.0,0.0,0.0,0.0,0.0,0.0,0.0,0.0,0.0,0.0,0.0,0.0,0.0,-4.4018,-4.7309,-5.0016,-5.1768,-5.3623,-5.485,-5.497,-5.5119,-5.5388,-5.5927,-5.5388,-5.5478,-5.6645,-5.6256,-5.5987,-5.5987,-5.5478,-5.5448,-5.5957,-5.6107,-5.6735,-5.7932,-5.871,-5.9099,-5.9099,0.0,0.0,-5.9099,-5.9099,-5.8381,-5.7094,-5.7094,-5.6376,-5.5179,-5.5179,-5.5179,-5.5119,-5.4461,-5.3773,-5.3084,-5.2306,-5.1678,-5.1229,-5.1229,-5.1139,-5.093,-5.0375,-5.0016,-4.9643,-4.8446,-4.7189,0.0,-4.5304,-4.4167,-4.3219,-4.3645,-4.4339,-4.5002,-4.5395,-4.6205,-4.6615,-4.5549,-4.4603,-4.3685,-4.2781,-4.2264,-4.2051,-4.2201,-4.1363,-4.0697,-4.0697,-4.0154,-3.9702,-3.9702,-3.9702,-3.9844,-4.0261,-4.0597,-4.0626,-4.0196,-3.9875,-3.8944,-3.7257,-3.4084,-3.1439,-2.9472,-2.8757,-2.8338,-2.8218,-2.8218,-2.8936,-3.0345,-3.0614,-3.124,-3.2078,-2.8633,-2.738,0.0,0.0,0.0,0.0,0.0,0.0,0.0,0.0,0.0,0.0,0.0,-3.7375,-4.0337,0.0,-4.4197,-4.686,-4.9224,-5.1199,-5.2516,-5.4132,-5.5179,-5.5179,-5.5179,-5.5448,-5.6107,-5.5867,-5.6077,-5.7034,-5.7124,-5.7004,-5.6645,-5.6645,-5.6645,-5.6645,-5.6974,-5.7453,-5.8112,-5.877,-5.9099,-5.9099,-5.9099,-5.9099,-5.9099,-5.9099,-5.856,-5.7573,-5.7244,-5.6555,-5.5658,-5.5329,-5.5179,-5.5149,-5.482,-5.4281,-5.3563,-5.2576,-5.2007,-5.1648,-5.1319,-5.1229,-5.1122,-5.0794,-5.0465,-5.0016,-4.9075,-4.7638,-4.6172,-4.5484,-4.4347,-4.3419,-4.3868,-4.4368,-4.486,-4.5314,-4.5808,-4.6041,-4.5546,-4.4779,-4.4116,-4.3617,-4.3169,-4.2851,-4.2851,-4.2043,-4.1265,-4.0935,-4.0337,-3.9798,-3.9469,-3.9373,-3.9517,-3.9803,-4.02,-4.0272,-3.9794,-3.906,-3.7965,-3.6349,-3.4482,-3.258,-3.0612,-3.0253,-2.9744,-2.9116,-2.9744,-3.0524,-3.1511,-3.2168,-3.2856,-3.3455,-3.145,-3.0731,0.0,0.0,0.0,0.0,0.0,0.0,0.0,-3.4562,-3.5699,-3.8093,-3.9619,-4.1444,-4.4377,-4.5424,-4.6651,-4.9075,-5.0541,-5.1828,-5.3025,-5.4341,-5.5149,-5.5029,-5.5119,-5.5508,-5.6286,-5.6346,-5.6675,-5.7423,-5.7992,-5.8082,-5.7513,-5.8022,-5.8052,-5.7513,-5.8022,-5.8321,-5.8321,-5.883,-5.9099,-5.9099,-5.9099,-5.9099,-5.9099,-5.9099,-5.874,-5.8082,-5.7274,-5.6645,-5.6188,-5.5478,-5.5179,-5.5179,-5.5179,-5.488,-5.4251,-5.3025,-5.2426,-5.2127,-5.1588,-5.1319,-5.1229,-5.1229,-5.0823,-5.0255,-4.9643,-4.8267,-4.6741,-4.5903,-4.4825,-4.3977,-4.4407,-4.4616,-4.4825,-4.5364,-4.5574,-4.5633,-4.5514,-4.4975,-4.4466,-4.4347,-4.3738,-4.329,-4.329,-4.291,-4.2321,-4.1542,-4.0816,-4.0157,-3.9499,-3.9373,-3.9445,-3.9625,-3.9879,-3.9817,-3.9253,-3.8124,-3.6836,-3.5521,-3.4937,-3.3848,-3.1959,-3.175,-3.1212,-3.0163,-3.1152,-3.1899,-3.2288,-3.3365,-3.4023,-3.4262,-3.4262,-3.3993,-2.8547,-3.0821,-3.4114,-3.6118,-3.7644,-3.8775,0.0,-4.0038,-4.0935,-4.2402,-4.3748,-4.5125,-4.6681,-4.7519,-4.8416,-4.9883,-5.1229,-5.2336,-5.3084,-5.4341,-5.497,-5.4401,-5.485,-5.5658,-5.6885,-5.7004,-5.7513,-5.877,-5.8949,-5.8949,-5.889,-5.8949,-5.8949,-5.889,-5.8949,-5.9009,-5.9009,-5.9069,-5.9099,-5.9099,-5.9099,-5.9099,-5.9099,-5.9099,-5.874,-5.8052,-5.6825,-5.6226,-5.6188,-5.5478,-5.5179,-5.5179,-5.5179,-5.5149,-5.4999,-5.4251,-5.3234,-5.2187,-5.2127,-5.1708,-5.1229,-5.1229,-5.1169,-5.0943,-5.0285,-4.9583,-4.8686,-4.7429,-4.6561,-4.5831,-4.5334,-4.5633,-4.6112,-4.616,-4.6651,-4.692,-4.6322,-4.5663,-4.5005,-4.4436,-4.3738,-4.329,-4.329,-4.323,-4.2821,-4.1564,-4.0816,-4.0157,-3.9499,-3.9373,-3.9409,-3.9409,-3.9445,-3.9212,-3.8592,-3.7807,-3.7087,-3.6397,-3.5194,-3.4144,-3.3305,-3.2706,-3.2318,-3.2198,-3.2318,-3.3275,-3.507,-3.522,-3.5878,-3.6956,-3.6956,-3.5729,-3.1958,-3.4622,-3.7913,-4.0277,-4.2462,-4.4077,-4.4347,-4.4915,-4.5663,-4.6664,-4.7549,-4.8566,-4.9912,-5.0062,-5.0421,-5.1738,-5.2426,-5.3025,-5.3683,-5.4251,-5.4371,-5.3683,-5.3503,-5.4102,-5.5807,-5.6346,-5.7124,-5.8441,-5.889,-5.9099,-5.9099,-5.9099,-5.9099,-5.9099,-5.9099,-5.9099,-5.9099,-5.9099,-5.9099,-5.9099,-5.9099,-5.9099,-5.9099,-5.9099,-5.874,-5.8082,-5.7124,-5.6496,-5.6188,-5.5478,-5.5179,-5.5179,-5.5179,-5.5179,-5.5119,-5.4461,-5.3862,-5.3264,-5.2486,-5.2007,-5.1738,-5.1349,-5.1229,-5.1169,-5.09,-5.0361,-4.9733,-4.9164,-4.8267,-4.7399,-4.71,-4.695,-4.689,-4.689,-4.71,-4.7219,-4.695,-4.6052,-4.5214,-4.4945,-4.4047,-4.329,-4.329,-4.329,-4.303,-4.2141,-4.1384,-4.0726,-4.0068,-3.9649,-3.9373,-3.9373,-3.9373,-3.914,-3.8452,-3.7793,-3.7135,-3.6537,-3.5609,-3.4771,-3.4114,-3.3814,-3.3484,-3.3095,-3.3455,-3.4262,-3.5519,-3.5878,-3.6537,-3.7404,-3.7404,-3.6806,-3.4831,-3.7704,-4.0816,-4.323,-4.6022,-4.8057,-4.7878,-4.8506,-4.9194,-4.9464,-4.9912,-5.0524,-5.1708,-5.1528,-5.1588,-5.2725,-5.3204,-5.3653,-5.4132,-5.4371,-5.4162,-5.3294,-5.2755,-5.2965,-5.4251,-5.5149,-5.6166,-5.7483,-5.8351,-5.883,-5.883,-5.9009,-5.9099,-5.9099,-5.9099,-5.9099,-5.9099,-5.9099,-5.9099,-5.9099,-5.9099,-5.9099,-5.9099,-5.9099,-5.886,-5.8351,-5.7663,-5.7124,-5.6645,-5.5807,-5.5478,-5.5448,-5.5269,-5.5179,-5.5119,-5.464,-5.4371,-5.4072,-5.3084,-5.2516,-5.2127,-5.1648,-5.1379,-5.1229,-5.1229,-5.0853,-5.0435,-5.0255,-4.9553,-4.8745,-4.8386,-4.7938,-4.7519,-4.7339,-4.7309,-4.7309,-4.7309,-4.6411,-4.5514,-4.5334,-4.4377,-4.3499,-4.3319,-4.329,-4.314,-4.2701,-4.2073,-4.1392,-4.0516,-3.9828,-3.9313,-3.914,-3.932,-3.92,-3.8721,-3.8063,-3.7404,-3.6776,-3.6297,-3.5729,-3.5102,-3.5222,-3.507,-3.4592,-3.504,-3.5609,-3.6297,-3.6776,-3.7345,-3.7973,-3.7973,-3.7973,-3.6626,-3.9768,-4.2791,-4.4736,-4.7698,-4.9927,-4.9389,-5.0212,-5.096,-5.0285,-5.0196,-5.0405,-5.1109,-5.1229,-5.1439,-5.2127,-5.3324,-5.4192,-5.4221,-5.476,-5.467,-5.3324,-5.3174,-5.2935,-5.2336,-5.3503,-5.482,-5.6188,-5.7423,-5.8141,-5.8141,-5.877,-5.9099,-5.9099,-5.9099,-5.9099,-5.9099,-5.9099,-5.9099,-5.9099,-5.9099,-5.9099,-5.9099,-5.9099,-5.9099,-5.9039,-5.8381,-5.8082,-5.7962,-5.6675,-5.6188,-5.6128,-5.5448,-5.5179,-5.5179,-5.5179,-5.476,-5.4192,-5.4162,-5.3294,-5.2187,-5.2187,-5.1738,-5.1229,-5.1229,-5.1199,-5.1003,-5.0375,-5.0166,-4.9837,-4.8626,-4.8267,-4.8087,-4.7459,-4.7309,-4.7309,-4.7309,-4.677,-4.6082,-4.5424,-4.4736,-4.4077,-4.3409,-4.329,-4.329,-4.326,-4.2761,-4.1901,-4.0576,-3.9828,-3.917,-3.8482,-3.902,-3.9373,-3.9379,-3.8751,-3.8093,-3.7434,-3.7375,-3.7075,-3.6447,-3.7015,-3.7315,-3.7285,-3.7315,-3.7644,-3.8302,-3.8332,-3.8691,-3.9313,-3.9313,-3.9313,-3.8691,-4.1474,-4.4347,-4.7219,-4.9434,-5.105,-5.1708,-5.1858,-5.1678,-5.102,-4.9853,-4.9284,-5.0315,-5.0212,-5.0571,-5.2516,-5.3982,-5.5029,-5.5448,-5.5718,-5.5359,-5.4012,-5.3443,-5.2755,-5.1648,-5.2755,-5.4072,-5.5418,-5.6705,-5.7633,-5.8112,-5.874,-5.9099,-5.9099,-5.9099,-5.9099,-5.9099,-5.9099,-5.9099,-5.9099,-5.9099,-5.9099,-5.9099,-5.9099,-5.9099,-5.9069,-5.8411,-5.8112,-5.8022,-5.6705,-5.6218,-5.6107,-5.5448,-5.5179,-5.5179,-5.5179,-5.5059,-5.479,-5.4371,-5.3922,-5.3384,-5.2486,-5.2067,-5.1798,-5.1349,-5.1229,-5.1169,-5.096,-5.0524,-5.0076,-4.9657,-4.8925,-4.8237,-4.7997,-4.7608,-4.7309,-4.7309,-4.68,-4.6219,-4.6022,-4.5065,-4.4257,-4.4018,-4.3589,-4.329,-4.329,-4.2402,-4.1384,-4.0516,-3.9828,-3.932,-3.911,-3.929,-3.9373,-3.9373,-3.8392,-3.7644,-3.7434,-3.7015,-3.6716,-3.6507,-3.7075,-3.7404,-3.7404,-3.7404,-3.7734,-3.8392,-3.8392,-3.8751,-3.9373,-3.9373,-3.9373,-4.1085,-4.3898,-4.6651,-4.9015,-5.096,-5.2396,-5.2755,-5.2516,-5.1887,-5.075,-4.8745,-4.7608,-4.891,-4.8835,-4.9434,-5.2067,-5.3803,-5.5149,-5.6047,-5.6218,-5.5867,-5.4999,-5.4311,-5.3473,-5.2396,-5.2606,-5.3294,-5.4401,-5.5688,-5.6795,-5.7723,-5.862,-5.9099,-5.9099,-5.9099,-5.9099,-5.9099,-5.9099,-5.9099,-5.9099,-5.9099,-5.9099,-5.9099,-5.9099,-5.9099,-5.9069,-5.865,-5.8471,-5.8381,-5.7064,-5.6496,-5.6406,-5.5538,-5.5179,-5.5179,-5.5179,-5.5179,-5.5119,-5.47,-5.4401,-5.4012,-5.2905,-5.2396,-5.2067,-5.1409,-5.1229,-5.1229,-5.1229,-5.0853,-5.0495,-5.0255,-4.9434,-4.8566,-4.8356,-4.7788,-4.7309,-4.7309,-4.698,-4.6621,-4.6339,-4.5592,-4.4885,-4.4407,-4.3738,-4.329,-4.329,-4.2432,-4.1452,-4.0516,-4.0038,-3.9589,-3.911,-3.905,-3.905,-3.905,-3.8033,-3.7315,-3.7105,-3.7135,-3.7075,-3.6836,-3.7644,-3.8123,-3.8123,-3.8123,-3.8332,-3.8751,-3.8751,-3.899,-3.9373,-3.9373,-3.9373,-4.3838,-4.695,-4.9583,-5.0226,-5.2306,-5.3832,-5.2546,-5.2187,-5.1588,-4.9629,-4.701,-4.5544,-4.686,-4.707,-4.7938,-5.0631,-5.2815,-5.461,-5.5927,-5.6248,-5.6256,-5.6278,-5.5688,-5.5059,-5.4371,-5.3114,-5.2636,-5.3294,0.0,-5.5748,-5.7034,-5.8381,-5.9099,-5.9099,-5.9099,-5.9099,-5.9099,-5.9099,-5.9099,-5.9099,-5.9099,-5.9099,-5.9099,-5.9099,-5.9099,-5.9099,-5.9099,-5.9099,-5.9009,-5.7663,-5.7094,-5.6974,-5.5688,-5.5179,-5.5179,-5.5179,-5.5179,-5.5179,-5.5179,-5.479,-5.4132,-5.3443,-5.2815,-5.2187,-5.1468,-5.1259,-5.1259,-5.1229,-5.1229,-5.1079,-5.0405,-4.9793,-4.9209,-4.8506,-4.7848,-4.7339,-4.7309,-4.7309,-4.713,-4.6459,-4.6309,-4.5861,-4.4556,-4.3768,-4.3319,-4.329,-4.2791,-4.1961,-4.0606,-4.0427,-3.9888,-3.8571,-3.8452,-3.8452,-3.8452,-3.7853,-3.7195,-3.6626,-3.7734,-3.8093,-3.7494,-3.8721,-3.9373,-3.9373,-3.9373,-3.9373,-3.9373,-3.9373,-3.9373,-3.9373,-3.9373,-3.9373,-4.7279,-4.9703,-5.1738,-5.2905,-5.3324,-5.3354,-5.2995,-5.2187,-5.078,-4.8297,-4.5304,-4.3359,-4.4197,-4.3958,-4.4837,-4.8446,-5.1498,-5.3922,-5.5269,-5.6705,-5.7423,-5.6915,-5.7154,-5.6915,-5.5777,-5.491,-5.47,-5.5359,-5.5269,-5.5748,-5.7034,-5.8381,-5.9099,-5.9099,-5.9099,-5.9099,-5.9099,-5.9099,-5.9099,-5.9099,-5.9099,-5.9099,-5.9099,-5.9099,-5.9099,-5.9099,-5.9099,-5.9099,-5.9009,-5.7663,-5.7094,-5.6974,-5.5688,-5.5179,-5.5179,-5.5179,-5.5179,-5.5179,-5.5179,-5.5089,-5.482,-5.4162,-5.3832,-5.3473,-5.2306,-5.1947,-5.1858,-5.1349,-5.1229,-5.1169,-5.102,-5.0435,-4.9823,-4.9164,-4.8506,-4.7908,-4.7429,-4.7309,-4.7249,-4.71,-4.6651,-4.5861,-4.4556,-4.4167,-4.3898,-4.3379,-4.314,-4.2611,-4.1294,-4.0696,-4.0098,-3.923,-3.917,-3.917,-3.917,-3.8542,-3.8063,-3.7913,-3.8212,-3.8302,-3.8153,-3.896,-3.9373,-3.9373,-3.9373,-3.9373,-3.9373,-3.9373,-3.9373,-3.9373,-3.9373,-3.9373,-4.9553,-5.1558,-5.3204,-5.3653,-5.3473,-5.2965,-5.2097,-5.0421,-4.8327,-4.5693,-4.2321,-4.0068,-4.0995,-4.1115,-4.2372,-4.6322,-4.9972,-5.2905,-5.4521,-5.6196,-5.7214,-5.7094,-5.7423,-5.7393,-5.6645,-5.6017,-5.5897,-5.6526,-5.5987,-5.6166,-5.7483,-5.853,-5.9099,-5.9099,-5.9099,-5.9099,-5.9099,-5.9099,-5.9099,-5.9099,-5.9099,-5.9099,-5.9099,-5.9099,-5.9099,-5.9099,0.0,-5.9099,-5.9009,-5.7992,-5.7543,-5.7423,-5.6137,-5.5628,-5.5598,-5.5299,-5.5179,-5.5179,-5.5179,-5.5179,-5.5089,-5.4431,-5.4221,-5.3952,-5.2606,-5.2187,-5.2067,-5.1409,-5.1229,-5.1229,-5.1229,-5.0674,-5.0106,-4.9793,-4.8985,-4.8177,-4.7818,-4.7519,-4.7309,-4.7309,-4.677,-4.604,-4.5334,-4.4945,-4.4616,-4.4257,-4.3958,-4.3299,-4.2021,-4.1235,-4.0457,-3.9529,-3.914,-3.896,-3.896,-3.8362,-3.7973,-3.7973,-3.8242,-3.8392,-3.8392,-3.905,-3.9373,-3.9373,-3.9373,-3.9373,-3.9373,-3.9373,-3.9373,-3.9373,-3.9373,-3.9373,-5.1259,-5.2935,-5.4162,-5.3503,-5.3174,-5.2486,-5.0285,-4.7774,-4.5125,-4.2321,-3.8756,-3.6477,-3.7764,-3.8571,-4.0337,-4.4377,-4.8297,-5.1528,-5.3533,-5.494,-5.6047,-5.6765,-5.6915,-5.7034,-5.7214,-5.6825,-5.6765,-5.7334,-5.6855,-5.7004,-5.8082,-5.874,-5.9099,-5.9099,-5.9099,-5.9099,-5.9099,-5.9099,-5.9099,-5.9099,-5.9099,-5.9099,-5.9099,-5.9099,-5.9099,-5.9099,0.0,0.0,-5.9069,-5.8411,-5.8112,-5.7992,-5.6675,-5.6218,-5.6107,-5.5448,-5.5179,-5.5179,-5.5179,-5.5179,-5.5089,-5.4521,-5.4341,-5.4102,-5.2845,-5.2486,-5.2306,-5.1558,-5.1349,-5.1319,-5.1229,-5.0734,-5.0315,-5.0226,-4.9374,-4.8506,-4.8327,-4.7758,-4.7309,-4.7309,-4.683,-4.6369,-4.6352,-4.5843,-4.5394,-4.5304,-4.4736,-4.3838,-4.256,-4.1811,-4.0876,-3.9559,-3.8871,-3.8571,-3.8661,-3.8123,-3.7853,-3.7943,-3.8482,-3.8781,-3.8781,-3.9349,-3.9679,-3.9679,-3.9679,-3.9679,-3.9679,-3.9679,-3.9679,-3.9679,-3.9679,-3.9679,-5.3324,-5.4341,-5.485,-5.4192,-5.3204,-5.1558,-4.8506,-4.5783,-4.2821,-3.905,-3.5998,-3.4412,-3.5759,-3.6537,-3.8452,-4.2901,-4.6561,-4.9494,-5.1468,-5.2875,-5.4162,-5.5388,-5.6017,-5.6765,-5.7842,-5.8351,-5.865,-5.874,-5.865,-5.8471,-5.8141,-5.874,-5.9099,-5.9099,-5.9099,-5.9099,-5.9099,-5.9099,-5.9099,-5.9099,-5.9099,-5.9099,-5.9099,-5.9099,-5.9099,-5.9099,-5.9099,0.0,-5.9069,-5.8411,-5.8112,-5.7992,-5.6675,-5.6218,-5.6107,-5.5448,-5.5179,-5.5179,-5.5179,-5.5179,-5.5179,-5.5059,-5.5029,-5.488,-5.4102,-5.3862,-5.3593,-5.2366,-5.2037,-5.1917,-5.1349,-5.1139,-5.0853,-5.0315,-5.0016,-4.9568,-4.8506,-4.7758,-4.7309,-4.7309,-4.7219,-4.695,-4.6369,-4.619,-4.5963,-4.5394,-4.4736,-4.3838,-4.256,-4.1811,-4.0876,-3.9559,-3.932,-3.9469,-4.0008,-3.9948,-4.0127,-4.0666,-4.0823,-4.0876,-4.0876,-4.0965,-4.1025,-4.1025,-4.1025,-4.1025,-4.1025,-4.1025,-4.1025,-4.1025,-4.1025,-4.1025,-5.3503,-5.4401,-5.485,-5.3503,-5.1917,-4.9823,-4.6501,-4.291,-3.9439,-3.6477,-3.3514,-3.1869,-3.3185,-3.4262,-3.6207,-4.0127,-4.4107,-4.7309,-4.8955,-5.09,-5.2665,-5.3982,-5.5059,-5.6166,-5.7453,-5.8501,-5.9099,-5.9099,-5.9099,-5.8979,-5.865,-5.8949,-5.9099,-5.9099,-5.9099,-5.9099,-5.9099,-5.9099,-5.9099,-5.9099,-5.9099,-5.9099,-5.9099,-5.9099,-5.9099,-5.9099,-5.9099,0.0,-5.9069,-5.877,-5.865,-5.853,-5.7573,-5.6974,-5.6585,-5.5927,-5.5478,-5.5179,-5.5179,-5.5179,-5.5179,-5.5179,-5.5179,-5.5059,-5.4401,-5.4221,-5.3922,-5.2576,-5.2187,-5.2067,-5.1379,-5.1229,-5.1139,-5.0794,-5.0435,-4.9837,-4.8566,-4.8027,-4.7728,-4.7369,-4.7309,-4.7219,-4.689,-4.683,-4.6711,-4.6381,-4.5783,-4.4885,-4.3539,-4.2791,-4.1624,-3.9582,-3.9738,-4.0068,-4.0367,-4.0726,-4.1055,-4.1392,-4.1422,-4.1422,-4.1422,-4.1422,-4.1422,-4.1422,-4.1422,-4.1422,-4.1422,-4.1422,-4.1422,-4.1422,-4.1422,-4.1422,-5.3324,-5.4281,-5.47,-5.2695,-5.0601,-4.8161,-4.4496,-4.0098,-3.6178,-3.4084,-3.1269,-2.9592,-3.0853,-3.2078,-3.3993,-3.7434,-4.1504,-4.4855,-4.6621,-4.8895,-5.102,-5.2755,-5.4042,-5.5359,-5.6944,-5.8321,-5.9099,-5.9099,-5.9099,-5.9099,-5.9099,-5.9099,-5.9099,-5.9099,-5.9099,-5.9099,-5.9099,-5.9099,-5.9099,-5.9099,-5.9099,-5.9099,-5.9099,-5.9099,-5.9099,-5.9099,-5.9099,0.0,0.0,-5.9099,-5.9099,-5.9039,-5.8381,-5.7693,-5.7034,-5.6406,-5.5748,-5.5179,-5.5179,-5.5179,-5.5179,-5.5179,-5.5179,-5.5089,-5.4581,-5.4431,-5.4132,-5.2785,-5.2396,-5.2217,-5.1439,-5.1229,-5.1229,-5.1229,-5.0674,-4.9897,-4.8925,-4.8476,-4.8147,-4.7608,-4.7399,-4.7309,-4.7309,-4.7309,-4.7309,-4.7309,-4.6741,-4.5903,-4.4676,-4.3798,-4.2393,-4.0098,-4.0307,-4.0606,-4.0606,-4.1205,-4.1654,-4.1803,-4.1803,-4.1803,-4.1803,-4.1803,-4.1803,-4.1803,-4.1803,-4.1803,-4.1803,-4.1803,-4.1803,-4.1803,-4.1803,-4.1803,-5.3773,-5.464,-5.47,-5.2695,-5.0272,-4.7189,-4.2671,-3.8098,-3.3993,-3.142,-2.9232,-2.8184,-2.9532,-3.0313,-3.2078,-3.6028,-3.902,-4.1953,-4.5035,-4.6741,-4.8805,-5.1917,-5.2935,-5.4341,-5.6855,-5.8321,-5.9099,-5.9099,-5.9099,0.0,-5.9099,-5.9099,-5.9099,-5.9099,-5.9099,-5.9099,-5.9099,-5.9099,-5.9099,-5.9099,-5.9099,-5.9099,-5.9099,-5.9099,-5.9099,-5.9099,-5.9099,0.0,0.0,-5.9099,-5.9099,-5.9039,-5.8381,-5.7693,-5.7034,-5.6406,-5.5748,-5.5179,-5.5179,-5.5179,-5.5179,-5.5179,-5.5179,-5.5179,-5.5119,-5.5089,-5.482,-5.3473,-5.3084,-5.2785,-5.1558,-5.1229,-5.1229,-5.1229,-5.0674,-5.0166,-5.0046,-4.9134,-4.8267,-4.8207,-4.7728,-4.7309,-4.7309,-4.7309,-4.7309,-4.7309,-4.6741,-4.6052,-4.5304,-4.4107,-4.2751,-4.1354,-4.1265,-4.1294,-4.1294,-4.1931,-4.2521,-4.308,-4.311,-4.311,-4.311,-4.311,-4.311,-4.311,-4.311,-4.311,-4.311,-4.311,-4.311,-4.311,-4.311,-4.311,-5.2037,-5.3473,-5.3922,-5.1139,-4.8745,-4.5903,-4.1265,-3.6626,-3.2766,-3.0881,-2.8936,-2.7884,-2.8816,-2.9505,-3.0851,-3.3634,-3.6327,-3.905,-4.1953,-4.4167,-4.6591,-4.9494,-5.078,-5.2276,-5.4521,-5.6316,-5.7842,-5.9009,-5.9099,0.0,-5.9099,-5.9099,-5.9099,-5.9099,-5.9099,-5.9099,-5.9099,-5.9099,-5.9099,-5.9099,-5.9099,-5.9099,-5.9099,-5.9099,-5.9099,-5.9099,-5.9099,0.0,0.0,-5.9099,-5.9099,-5.9069,-5.883,-5.8052,-5.7064,-5.6825,-5.6077,-5.5179,-5.5179,-5.5179,-5.5179,-5.5179,-5.5179,-5.5179,-5.5179,-5.5179,-5.491,-5.3563,-5.3174,-5.2875,-5.1558,-5.1229,-5.1229,-5.1229,-5.102,-5.0674,-5.0285,-4.9777,-4.9224,-4.8446,-4.8087,-4.7758,-4.7369,-4.7309,-4.7309,-4.7309,-4.707,-4.6681,-4.5992,-4.5095,-4.4018,-4.2701,-4.1863,-4.1422,-4.1422,-4.2021,-4.2641,-4.326,-4.329,-4.329,-4.329,-4.329,-4.329,-4.329,-4.329,-4.329,-4.329,-4.329,-4.329,-4.329,-4.329,-4.329,-5.0182,-5.2097,-5.2905,-5.0048,-4.7489,-4.4556,-4.0127,-3.5549,-3.1809,-3.0522,-2.8843,-2.7735,-2.8218,-2.8693,-2.9592,-3.136,-3.3694,-3.6237,-3.8871,-4.1683,-4.4436,-4.71,-4.8566,-5.0212,-5.2396,-5.476,-5.7004,-5.8949,-5.9099,0.0,-5.9099,-5.9099,-5.9099,-5.9099,-5.9099,-5.9099,-5.9099,-5.9099,-5.9099,-5.9099,-5.9099,-5.9099,-5.9099,-5.9099,-5.9099,-5.9099,0.0,0.0,0.0,-5.9099,-5.9099,-5.9069,-5.889,-5.8112,-5.7064,-5.6885,-5.6137,-5.5179,-5.5179,-5.5179,-5.5179,-5.5179,-5.5179,-5.5179,-5.5179,-5.5179,-5.494,-5.3803,-5.3204,-5.2665,-5.1738,-5.1379,-5.1229,-5.1229,-5.1229,-5.1079,-5.0584,-5.0315,-4.9927,-4.9045,-4.8716,-4.8446,-4.7967,-4.7728,-4.7608,-4.7608,-4.7429,-4.713,-4.6681,-4.6022,-4.5095,-4.3738,-4.2641,-4.1893,-4.1722,-4.2282,-4.294,-4.3559,-4.3409,-4.3379,-4.3589,-4.3409,-4.329,-4.329,-4.329,-4.329,-4.329,-4.329,-4.329,-4.329,-4.329,-4.329,-4.861,-5.072,-5.1738,-4.9808,-4.677,-4.3299,-3.929,-3.4831,-3.1152,-2.9864,-2.8543,-2.7585,-2.7615,-2.7615,-2.8064,-2.9412,-3.127,-3.3484,-3.6148,-3.9349,-4.2372,-4.5005,-4.6501,-4.8356,-5.099,-5.4221,-5.7004,-5.8949,-5.9099,0.0,-5.9099,-5.9099,-5.9099,-5.9099,-5.9099,-5.9099,-5.9099,-5.9099,-5.9099,-5.9099,-5.9099,-5.9099,-5.9099,-5.9099,-5.9099,0.0,0.0,0.0,0.0,-5.9099,-5.9099,-5.9039,-5.8381,-5.7723,-5.7034,-5.6406,-5.5777,-5.5179,-5.5179,-5.5179,-5.5179,-5.5179,-5.5179,-5.5179,-5.5179,-5.5179,-5.5059,-5.4371,-5.3234,-5.2217,-5.2187,-5.1708,-5.1229,-5.1229,-5.1229,-5.1229,-5.1199,-5.0644,-5.0196,-5.0166,-4.9703,-4.9299,-4.9299,-4.876,-4.8267,-4.8267,-4.7728,-4.7309,-4.7309,-4.6711,-4.5783,-4.4436,-4.3748,-4.309,-4.244,-4.294,-4.3559,-4.4257,-4.3648,-4.3589,-4.4287,-4.3648,-4.329,-4.329,-4.329,-4.329,-4.329,-4.329,-4.329,-4.329,-4.329,-4.329,-4.4526,-4.6681,-4.7608,-4.5196,-4.309,-4.0606,-3.666,-3.3185,-3.0434,-2.9068,-2.8007,-2.7335,-2.7335,-2.7335,-2.775,-2.9028,-3.0153,-3.2018,-3.5406,-3.8186,-4.1018,-4.3998,-4.7211,-4.9929,-5.1884,-5.4378,-5.6765,-5.8949,0.0,0.0,-5.85,-5.847,-5.8664,-5.9099,-5.9099,-5.9099,-5.9099,-5.9099,-5.9099,-5.9099,-5.9099,-5.9099,-5.9099,-5.9099,0.0,0.0,0.0,0.0,0.0,-5.9099,-5.883,-5.8411,-5.8201,-5.7453,-5.6436,-5.6308,-5.5748,-5.5179,-5.5179,-5.5179,-5.5179,-5.5179,-5.5179,-5.5179,-5.5179,-5.5179,-5.5059,-5.4401,-5.3234,-5.2187,-5.2187,-5.1708,-5.1229,-5.1229,-5.1229,-5.1229,-5.1229,-5.1003,-5.0734,-5.0285,-5.0016,-4.9793,-4.9389,-4.9149,-4.885,-4.8356,-4.8117,-4.7818,-4.7369,-4.6741,-4.5963,-4.5095,-4.4407,-4.3748,-4.309,-4.317,-4.3768,-4.4915,-4.4796,-4.4556,-4.4317,-4.4107,-4.3738,-4.329,-4.329,-4.329,-4.329,-4.329,-4.329,-4.329,-4.329,-4.329,-4.0217,-4.2581,-4.3569,-4.1414,-3.9888,-3.8003,-3.4532,-3.1869,-2.9809,-2.8575,-2.7571,-2.6945,-2.6945,-2.6945,-2.727,-2.8292,-2.9171,-3.0801,-3.3907,-3.6834,-4.0006,-4.3749,-4.7081,-4.9894,-5.2033,-5.4119,-5.642,-5.8895,0.0,0.0,-5.7666,-5.7666,-5.7833,-5.8166,-5.8689,-5.8991,-5.9099,-5.9099,-5.9099,-5.9099,-5.9099,-5.9099,-5.9099,-5.9099,0.0,0.0,0.0,0.0,0.0,-5.883,-5.8501,-5.8082,-5.7573,-5.6885,-5.6188,-5.5948,-5.5538,-5.5179,-5.5179,-5.5179,-5.5179,-5.5179,-5.5179,-5.5179,-5.5179,-5.5179,-5.5089,-5.47,-5.3803,-5.2965,-5.2965,-5.2276,-5.1588,-5.1588,-5.1409,-5.1229,-5.1229,-5.1229,-5.1109,-5.0644,-5.0554,-5.0481,-5.0062,-4.9793,-4.9494,-4.9075,-4.8805,-4.8416,-4.7758,-4.7309,-4.6621,-4.5424,-4.4915,-4.4407,-4.3708,-4.3678,-4.4257,-4.5603,-4.5454,-4.5214,-4.5065,-4.4825,-4.4496,-4.4077,-4.4077,-4.4077,-4.4077,-4.4077,-4.4077,-4.4077,-4.4077,-4.4077,0.0,-3.8392,-3.9679,-3.8422,-3.7135,-3.5549,-3.2916,-3.0853,0.0,-2.8267,-2.7195,-2.6416,-2.6416,-2.6474,-2.6703,-2.7337,-2.8397,-2.9955,-3.2134,-3.5691,-3.9714,-4.4248,-4.6574,-4.8817,-5.1561,-5.3656,-5.5977,0.0,0.0,0.0,-5.6622,-5.6623,-5.6623,-5.6565,-5.7833,-5.8664,-5.9099,-5.9099,-5.9099,-5.9099,-5.9099,-5.9099,-5.9099,-5.9099,0.0,0.0,0.0,0.0,0.0,-5.8291,-5.8022,-5.7872,-5.6645,-5.6188,-5.6017,-5.5418,-5.5179,-5.5179,-5.5179,-5.5179,-5.5179,-5.5179,-5.5179,-5.5179,-5.5179,-5.5179,-5.5179,-5.5179,-5.473,-5.4221,-5.4221,-5.3204,-5.2187,-5.2187,-5.1708,-5.1229,-5.1229,-5.1229,-5.1229,-5.1229,-5.1229,-5.1229,-5.1229,-5.0674,-5.0255,-5.0196,-4.9733,-4.9149,-4.8446,-4.8327,-4.7549,-4.5633,-4.5394,-4.5125,-4.4496,-4.4407,-4.4945,-4.619,-4.5753,-4.5693,-4.6249,-4.5693,-4.5334,-4.5304,-4.5304,-4.5304,-4.5304,-4.5304,-4.5304,-4.5304,-4.5304,-4.5304,-3.1001,0.0,-3.5821,-3.5522,-3.4412,-3.2975,0.0,-2.9644,-2.8184,-2.7004,-2.6263,-2.5797,-2.5687,-2.6162,-2.689,-2.7778,-2.8976,-3.0788,-3.3673,-3.8414,-4.2644,-4.5502,-4.792,-5.0106,-5.1931,-5.378,-5.5702,0.0,0.0,-5.6107,-5.5383,-5.5119,-5.5119,-5.5325,-5.6165,-5.7387,-5.9099,-5.9099,-5.9099,-5.9099,-5.9099,-5.9099,-5.9099,-5.9099,0.0,0.0,0.0,0.0,-5.7543,-5.7393,-5.7064,-5.6585,-5.6338,-5.5867,-5.5418,-5.5239,-5.5179,-5.5179,-5.5179,-5.5179,-5.5179,-5.5179,-5.5179,-5.5179,-5.5179,-5.5179,-5.5179,-5.5179,-5.473,-5.4221,-5.4221,-5.3204,-5.2187,-5.2187,-5.1708,-5.1229,-5.1229,-5.1229,-5.1229,-5.1229,-5.1229,-5.1229,-5.1229,-5.1079,-5.0764,-5.0255,-5.0076,-4.9763,-4.9105,-4.864,-4.7908,-4.695,-4.6381,-4.6022,-4.5831,-4.5364,-4.5424,-4.6262,-4.6651,-4.6681,-4.6279,-4.6172,-4.5843,-4.5304,-4.5304,-4.5304,-4.5304,-4.5304,-4.5304,-4.5304,-4.5304,-4.5304,-2.9352,-3.1091,-3.2647,-3.2647,-3.1898,-3.0854,-2.9616,-2.8366,-2.7142,-2.6179,-2.5467,-2.5074,-2.5231,-2.583,-2.6698,-2.8061,-2.9665,-3.2299,-3.6705,-4.0556,-4.3924,-4.6662,-4.8446,-5.0164,0.0,-5.3265,0.0,0.0,0.0,-5.4442,-5.3637,-5.345,-5.345,-5.3577,-5.4236,-5.579,-5.825,-5.825,-5.825,-5.825,-5.825,-5.825,-5.825,-5.801,-5.7685,0.0,0.0,0.0,-5.6326,-5.6031,-5.5706,-5.5381,-5.5086,-5.4709,-5.4414,-5.4414,-5.4414,-5.4414,-5.4414,-5.4414,-5.4414,-5.4414,-5.4414,-5.4414,-5.4414,-5.4414,-5.4517,-5.5027,-5.494,-5.467,-5.467,-5.3892,-5.3114,-5.3114,-5.2366,-5.1678,-5.1678,-5.1439,-5.1229,-5.1229,-5.1229,-5.1229,-5.1229,-5.1229,-5.1109,-5.0704,-5.0644,-5.0451,-4.9793,-4.9404,-4.8686,-4.7429,-4.698,-4.6531,-4.5903,-4.5813,-4.6052,-4.6741,-4.71,-4.716,-4.68,-4.677,-4.6591,-4.6232,-4.6232,-4.6232,-4.6232,-4.6232,-4.6232,-4.6232,-4.6232,-4.6232,-2.9232,-3.0043,-3.0552,-3.0733,-3.0347,-2.9727,-2.8834,-2.7697,-2.6689,-2.5994,-2.517,-2.4744,-2.5183,-2.5787,-2.6836,-2.8595,-3.1031,-3.4598,-4.0002,-4.2108,-4.4292,-4.7531,-4.8466,0.0,-5.1698,0.0,0.0,0.0,0.0,-5.2815,-5.1927,-5.1855,-5.1855,-5.1865,-5.2402,-5.386,-5.6451,-5.6621,-5.6677,-5.6591,-5.6591,-5.6591,-5.6562,-5.6099,-5.5781,0.0,0.0,0.0,-5.4714,-5.4165,-5.3909,-5.3852,-5.3304,-5.3049,-5.3049,-5.3049,-5.3049,-5.3049,-5.3049,-5.3049,-5.3049,-5.3049,-5.3049,-5.3049,-5.3049,-5.3049,-5.3261,-5.4252,-5.4743,-5.5027,-5.5027,-5.46,-5.4142,-5.4221,-5.3174,-5.2187,-5.2187,-5.1678,-5.1229,-5.1229,-5.1229,-5.1229,-5.1229,-5.1229,-5.1229,-5.1229,-5.1229,-5.0973,-5.0405,-5.0255,-4.9508,-4.7788,-4.7519,-4.695,-4.5693,-4.6142,-4.6741,-4.7429,-4.7369,-4.7309,-4.7309,-4.7309,-4.7309,-4.7309,-4.7309,-4.7309,-4.7309,-4.7309,-4.7309,-4.7309,-4.7309,-4.7309,-2.9232,-3.0043,-3.0733,-3.1693,-3.1782,-3.1424,-3.067,-2.9574,-2.8343,-2.7135,-2.6401,-2.5981,-2.5955,-2.693,-2.8411,-3.0381,-3.4423,-3.8385,-4.1483,-4.2911,-4.4719,-4.7581,0.0,-4.9234,-5.1064,0.0,0.0,0.0,0.0,-5.1695,-5.1257,-5.0968,-5.0968,-5.1257,-5.1161,-5.1573,-5.2571,-5.3582,-5.3886,-5.3413,-5.3413,-5.3413,-5.3413,-5.3329,-5.2937,0.0,0.0,-5.1933,-5.1432,-5.1348,-5.1293,-5.1293,-5.1154,-5.1098,-5.1098,-5.1098,-5.1098,-5.1098,-5.1098,-5.1098,-5.1098,-5.1098,-5.1098,-5.1098,-5.1098,-5.1098,-5.1181,-5.1318,-5.2697,-5.4178,-5.4355,-5.4137,-5.3943,-5.4142,-5.3174,-5.2187,-5.2187,-5.1678,-5.1229,-5.1229,-5.1229,-5.1229,-5.1229,-5.1229,-5.1229,-5.1229,-5.1229,-5.1169,-5.1079,-5.0524,-4.9867,-4.9045,-4.8476,-4.7818,-4.707,-4.71,-4.7429,-4.8087,-4.7608,-4.7309,-4.7309,-4.7309,-4.7309,-4.7309,-4.7309,-4.7309,-4.7309,-4.7309,-4.7309,-4.7309,-4.7309,-4.7309,-2.8438,-2.9332,-3.025,-3.1177,-3.1864,-3.231,-3.1931,-3.0945,-2.9766,-2.869,-2.7807,-2.7357,-2.7556,-2.8616,-3.0761,-3.4667,-3.7934,-4.0782,-4.3137,-4.4192,-4.5497,-4.7657,0.0,-4.8736,0.0,0.0,0.0,0.0,0.0,0.0,-4.99,0.0,-4.9558,-4.9353,-4.9285,-4.9251,-4.9186,-4.974,-5.0638,-5.1751,-5.1751,-5.1751,-5.1723,-5.1397,-5.1068,-5.077,0.0,-5.0116,-4.9845,-4.9845,-4.9845,-4.9845,-4.9845,-4.9845,-4.9845,-4.9845,-4.9845,-4.9845,-4.9845,-4.9845,-4.9845,-4.9845,-4.9845,-4.9845,-4.9845,-4.9845,-4.9845,-4.9845,-5.1237,-5.2832,-5.3413,-5.3707,-5.3993,-5.458,-5.3982,-5.3294,-5.3294,-5.2486,-5.1738,-5.1738,-5.1468,-5.1229,-5.1229,-5.1229,-5.1229,-5.1229,-5.1229,-5.1229,-5.1229,-5.096,-5.0391,-4.9419,-4.9314,-4.8925,-4.7938,-4.8147,-4.8356,-4.8297,-4.8327,-4.8356,-4.8356,-4.8356,-4.8356,-4.8356,-4.8356,-4.8356,-4.8356,-4.8356,-4.8356,-4.8356,-4.8356,-4.8356,-2.7544,-2.8279,-2.9143,-3.0161,-3.1599,-3.2776,-3.2789,-3.2204,-3.137,-3.047,-2.972,-2.9352,-2.9615,-3.0934,-3.352,-3.8291,-4.045,-4.2308,-4.4518,-4.5221,-4.61,-4.7707,-4.7908,-4.836,0.0,0.0,0.0,0.0,0.0,0.0,-4.8786,0.0,-4.836,-4.7933,-4.7782,-4.7531,-4.7068,-4.7004,-4.7921,-4.9811,-4.9811,-4.9811,-4.9785,-4.9364,-4.9153,-4.9127,-4.8621,-4.8437,-4.8437,-4.8437,-4.8437,-4.8437,-4.8437,-4.8437,-4.8437,-4.8437,-4.8437,-4.8437,-4.8437,-4.8437,-4.8437,-4.8437,-4.8437,-4.8437,-4.8437,-4.8437,-4.8437,-4.8437,-4.9532,-5.0962,-5.2269,-5.3073,-5.3733,-5.459,-5.4268,-5.3793,-5.3793,-5.2753,-5.1803,-5.1803,-5.1345,-5.0994,-5.1041,-5.1041,-5.1041,-5.1041,-5.1041,-5.1041,-5.1041,-5.1041,-5.0594,-4.9477,-4.9713,-4.9488,-4.8328,-4.8924,-4.9148,-4.8596,-4.903,-4.9299,-4.9299,-4.9299,-4.9299,-4.9299,-4.9299,-4.9299,-4.9299,-4.9299,-4.9299,-4.9299,-4.9299,-4.9299,-2.6999,-2.6891,-2.7193,-2.9114,-3.1233,-3.2925,-3.3131,-3.3499,-3.3508,-3.2488,-3.2517,-3.2566,-3.2064,-3.4173,-3.6784,-3.9245,-4.1028,-4.2942,-4.5121,-4.5472,-4.61,-4.7707,-4.7908,0.0,0.0,0.0,0.0,0.0,0.0,0.0,0.0,0.0,0.0,-4.7908,-4.7431,-4.7179,-4.7068,-4.6627,-4.6436,-4.6667,-4.6667,-4.6667,-4.6667,-4.6557,-4.6531,-4.6531,-4.6506,-4.6481,-4.6481,-4.6481,-4.6481,-4.6481,-4.6481,-4.6481,-4.6481,-4.6481,-4.6481,-4.6481,-4.6481,-4.6481,-4.6481,-4.6481,-4.6481,-4.6481,-4.6481,-4.6481,-4.6481,-4.6481,-4.6993,-4.812,-5.0712,-5.1839,-5.257,-5.3395,-5.3111,-5.2617,-5.2617,-5.1628,-5.0726,-5.0726,-5.0398,-5.0231,-5.0501,-5.0548,-5.0548,-5.0548,-5.0548,-5.0548,-5.0548,-5.0548,-5.0283,-4.9545,-4.9281,-4.8875,-4.8173,-4.8933,-4.9503,-4.9398,-4.9326,-4.9299,-4.9299,-4.9299,-4.9299,-4.9299,-4.9299,-4.9299,-4.9299,-4.9299,-4.9299,-4.9299,-4.9299,-4.9299,-2.5911,-2.5819,-2.6232,-2.7807,-2.9547,-3.1421,-3.3302,-3.465,-3.5497,-3.5415,-3.5801,-3.5855,-3.4951,-3.6508,-3.8542,-4.0425,-4.2108,-4.384,-4.5723,-4.5999,-4.6476,-4.7757,-4.7908,0.0,0.0,0.0,0.0,0.0,0.0,0.0,0.0,0.0,0.0,-4.6928,-4.6728,-4.6627,-4.6627,-4.6426,-4.6301,-4.6301,-4.6301,-4.6301,-4.6301,-4.6301,-4.6301,-4.6301,-4.6301,-4.6301,-4.6301,-4.6301,-4.6301,-4.6301,-4.6301,-4.6301,-4.6301,-4.6301,-4.6301,-4.6301,-4.6301,-4.6301,-4.6301,-4.6301,-4.6301,-4.6301,-4.6301,-4.6301,-4.6301,-4.6301,-4.6601,-4.7349,-4.9133,-5.0014,-5.0685,-5.1537,-5.1558,-5.1389,-5.1389,-5.066,-5.0069,-5.0069,-4.9954,-5.0068,-5.0701,-5.0859,-5.0859,-5.083,-5.0859,-5.0859,-5.083,-5.0511,-5.0066,-4.9417,-4.8081,-4.7468,-4.7983,-4.8798,-4.9359,-4.9388,-4.9834,-4.9969,-4.9781,-4.964,-4.964,-4.9781,-4.9969,-5.0046,-5.0046,-5.0046,-4.9969,-4.9781,-4.964,-4.9516,-2.5408,-2.5077,-2.5406,-2.6956,-2.8533,-3.0509,-3.3597,-3.5542,-3.686,-3.7563,-3.814,-3.8266,-3.7385,-3.8366,-3.9873,-4.1354,-4.2836,-4.4392,-4.6075,-4.6301,-4.6652,-4.7556,0.0,0.0,0.0,0.0,0.0,0.0,0.0,0.0,0.0,0.0,0.0,0.0,-4.6301,-4.6301,-4.6301,-4.6301,-4.6301,-4.6301,-4.6301,-4.6301,-4.6301,-4.6301,-4.6301,-4.6301,-4.6301,-4.6301,-4.6301,-4.6301,-4.6301,-4.6301,-4.6301,-4.6301,-4.6301,-4.6301,-4.6301,-4.6301,-4.6301,-4.6301,-4.6301,-4.6301,-4.6301,-4.6301,-4.6301,-4.6301,-4.6301,-4.6301,-4.6506,-4.684,-4.7593,-4.8384,-4.9221,-4.9987,-5.0184,-5.0184,-5.0184,-4.9664,-4.9172,-4.9172,-4.9197,-4.9451,-5.0318,-5.045,-5.0427,-5.0474,-5.045,-5.0427,-5.0474,-4.991,-4.9234,-4.8402,-4.6865,-4.6322,-4.7378,-4.8217,-4.8696,-4.8624,-4.9198,-4.9571,-4.9542,-4.912,-4.9071,-4.9444,-4.9863,-5.0105,-5.0135,-5.0105,-4.9912,-4.9542,-4.9071,-4.8873,-2.5584,-2.4784,-2.4556,-2.6766,-2.8574,-3.0683,-3.3997,-3.6031,-3.7538,-3.8743,-3.9346,-3.9572,-3.9045,-3.9798,-4.0902,-4.2037,-4.3087,-4.4392,-4.6075,-4.6301,-4.6527,-4.7079,0.0,0.0,0.0,0.0,0.0,0.0,0.0,0.0,0.0,0.0,0.0,0.0,-4.6301,-4.6301,-4.6301,-4.6301,-4.6301,-4.6301,-4.6301,-4.6301,-4.6301,-4.6301,-4.6301,-4.6301,-4.6301,-4.6301,-4.6301,-4.6301,-4.6301,-4.6301,-4.6301,-4.6301,-4.6301,-4.6301,-4.6301,-4.6301,-4.6301,-4.6301,-4.6301,-4.6301,-4.6301,-4.6301,-4.6301,-4.6301,-4.6301,-4.6301,-4.6301,-4.6301,-4.6301,-4.7172,-4.8262,-4.8899,-4.9072,-4.9072,-4.9072,-4.8535,-4.8053,-4.8053,-4.8102,-4.8382,-4.9216,-4.9081,-4.9028,-4.9322,-4.9081,-4.9028,-4.9322,-4.8636,-4.7661,-4.6508,-4.5847,-4.5741,-4.6321,-4.7102,-4.7462,-4.7205,-4.7383,-4.7791,-4.8396,-4.7531,-4.7378,-4.7965,-4.8766,-4.9239,-4.9248,-4.9239,-4.8915,-4.8396,-4.748,-4.7094,-2.5262,-2.5456,-2.6298,-2.8499,-3.0583,-3.2867,-3.5805,-3.7739,-3.9697,-4.2359,-4.2735,-4.2283,-4.1408,-4.1756,-4.2359,-4.274,-4.3664,-4.4844,-4.6125,-4.6301,-4.6527,0.0,0.0,0.0,0.0,0.0,0.0,0.0,0.0,0.0,0.0,0.0,0.0,0.0,-4.6301,-4.6301,-4.6301,-4.6301,-4.6301,-4.6301,-4.6301,-4.6301,-4.6301,-4.6301,-4.6301,-4.6301,-4.6301,-4.6301,-4.6301,-4.6301,-4.6301,-4.6301,-4.6301,-4.6301,-4.6301,-4.6301,-4.6301,-4.6301,-4.6301,-4.6301,-4.6301,-4.6301,-4.6301,-4.6301,-4.6301,-4.6301,-4.6301,-4.6301,-4.6301,-4.6301,-4.6301,-4.6541,-4.6874,-4.7053,-4.7112,-4.7112,-4.7112,-4.6985,-4.6857,-4.6857,-4.7172,-4.7712,-4.8599,-4.8712,-4.8739,-4.8769,-4.8712,-4.8605,-4.8259,-4.7963,-4.7338,-4.6173,-4.5339,-4.496,-4.5158,-4.5581,-4.5767,-4.5688,-4.5392,-4.573,-4.6971,-4.6319,-4.6267,-4.6867,-4.7638,-4.7993,-4.7819,-4.7993,-4.7689,-4.6971,-4.6267,-4.5952,-2.581,-2.6836,-2.841,-3.0809,-3.3068,-3.5604,-3.9044,-4.0425,-4.1681,-4.4116,-4.4367,-4.3865,-4.2961,-4.3263,-4.3639,-4.3639,-4.4392,-4.5271,-4.6175,-4.6301,0.0,0.0,0.0,0.0,0.0,0.0,0.0,0.0,0.0,0.0,0.0,0.0,0.0,0.0,-4.6301,-4.6301,-4.6301,-4.6301,-4.6301,-4.6301,-4.6301,-4.6301,-4.6301,-4.6301,-4.6301,-4.6301,-4.6301,-4.6301,-4.6301,-4.6301,-4.6301,-4.6301,-4.6301,-4.6301,-4.6301,-4.6301,-4.6301,-4.6301,-4.6301,-4.6301,-4.6301,-4.6301,-4.6301,-4.6301,-4.6301,-4.6301,-4.6301,-4.6301,-4.6301,-4.6301,-4.6301,-4.6301,-4.6301,-4.6301,-4.6301,-4.6301,-4.6301,-4.6301,-4.6301,-4.6301,-4.6721,-4.7265,-4.8061,-4.812,-4.8061,-4.8152,-4.8236,-4.7995,-4.7273,-4.7257,-4.6908,-4.5705,-4.5023,-4.4565,-4.452,-4.4834,-4.4905,-4.4639,-4.441,-4.4545,-4.5182,-4.4778,-4.4778,-4.5395,-4.6137,-4.6503,-4.6374,-4.6503,-4.6242,-4.5529,-4.4832,-4.4507,-2.6816,-2.8574,-3.0608,-3.337,-3.583,-3.8668,-4.2836,-4.3413,-4.3388,-4.4543,-4.4769,-4.4618,-4.4116,-4.4443,-4.4769,-4.4769,-4.5221,-4.5723,-4.6225,-4.6301,0.0,0.0,0.0,0.0,0.0,0.0,0.0,0.0,0.0,0.0,0.0,0.0,0.0,-4.6301,-4.6301,-4.6301,-4.6301,-4.6301,-4.6301,0.0,-4.6301,-4.6301,-4.6301,-4.6301,-4.6301,-4.6301,-4.6301,-4.6301,-4.6301,-4.6301,-4.6301,-4.6301,-4.6301,-4.6301,-4.6301,-4.6301,-4.6301,-4.6301,-4.6301,-4.6301,-4.6301,-4.6301,-4.6301,-4.6301,-4.6301,-4.6301,-4.6301,-4.6301,-4.6301,-4.6301,-4.6301,-4.6301,-4.6301,-4.6301,-4.6301,-4.6301,-4.6301,-4.6301,-4.6301,-4.6301,-4.6566,-4.69,-4.7468,-4.7324,-4.7205,-4.7527,-4.7586,-4.7287,-4.6481,-4.6611,-4.6347,-4.5309,-4.4969,-4.4659,-4.4415,-4.4796,-4.4763,-4.4024,-4.4116,-4.4035,-4.3559,-4.3179,-4.3265,-4.3844,-4.4561,-4.4967,-4.4992,-4.4967,-4.4698,-4.4206,-4.3351,-4.2986,-2.6716,-2.9126,-3.1712,-3.4455,-3.779,-4.1028,-4.3288,-4.3714,-4.4066,-4.5623,-4.5949,-4.5924,-4.5799,-4.5874,-4.5949,-4.5949,-4.605,-4.6175,-4.6301,-4.6301,0.0,0.0,0.0,0.0,0.0,0.0,0.0,0.0,0.0,0.0,0.0,0.0,0.0,-4.6301,-4.6301,-4.6301,-4.6301,-4.6301,-4.6301,0.0,-4.6301,-4.6301,-4.6301,-4.6301,-4.6301,-4.6301,-4.6301,-4.6301,-4.6301,-4.6301,-4.6301,-4.6301,-4.6301,-4.6301,-4.6301,-4.6301,-4.6301,-4.6301,-4.6301,-4.6301,-4.6301,-4.6301,-4.6301,-4.6301,-4.6301,-4.6301,-4.6301,-4.6301,-4.6301,-4.6301,-4.6301,-4.6301,-4.6301,-4.6301,-4.6301,-4.6301,-4.6301,-4.6301,-4.6301,-4.6301,-4.6361,-4.6421,-4.6601,-4.6541,-4.6541,-4.6601,-4.6601,-4.655,-4.633,-4.6364,-4.6314,-4.6094,-4.5949,-4.5723,-4.5288,-4.4926,-4.4623,-4.4464,-4.4093,-4.4042,-4.4299,-4.3495,-4.3129,-4.3517,-4.4152,-4.437,-4.4148,-4.437,-4.4152,-4.3547,-4.3184,-4.2986,-2.6917,-2.988,-3.3194,-3.7238,-4.0224,-4.2409,-4.3539,-4.379,-4.4116,-4.5271,-4.5497,-4.5497,-4.5497,-4.5497,-4.5598,-4.5874,-4.5924,-4.5999,-4.6276,0.0,0.0,0.0,0.0,0.0,0.0,0.0,0.0,0.0,0.0,0.0,0.0,-4.6301,-4.6301,-4.6301,-4.6301,-4.6301,-4.6301,-4.6301,-4.6301,-4.6301,-4.6301,-4.6301,-4.6301,-4.6301,-4.6301,-4.6301,-4.6301,-4.615,-4.5924,-4.5924,-4.5748,-4.5497,-4.5497,-4.5673,-4.5924,-4.5924,-4.6075,-4.6301,-4.6301,-4.6301,-4.6301,-4.6301,-4.6301,-4.6301,-4.6301,-4.6301,-4.6301,-4.6301,-4.6301,-4.6301,-4.6301,-4.6301,-4.6301,-4.6301,-4.6301,-4.6301,-4.6301,-4.6301,-4.6301,-4.6301,-4.6301,-4.6301,-4.6301,-4.6301,-4.6301,-4.6301,-4.6301,-4.6301,-4.6301,-4.6301,-4.6301,-4.6301,-4.6301,-4.6075,-4.5547,-4.5221,-4.492,-4.4644,-4.4342,-4.4317,-4.4618,-4.4066,-4.3696,-4.3588,-4.3924,-4.3853,-4.3487,-4.3628,-4.3517,-4.3184,-4.3073,-4.2986,-2.6942,-3.0658,-3.4876,-3.9997,-4.2082,-4.2986,-4.3539,-4.3664,-4.379,-4.4242,-4.4493,-4.4618,-4.4618,-4.4618,-4.4819,-4.5397,-4.5497,-4.5673,-4.6225,0.0,0.0,0.0,0.0,0.0,0.0,0.0,0.0,0.0,0.0,0.0,-4.6301,-4.6301,-4.6301,-4.6301,-4.6301,-4.6301,-4.6301,-4.6301,-4.6301,-4.6301,-4.6301,-4.6301,-4.6301,-4.6301,-4.625,-4.6175,-4.6175,-4.5849,-4.5347,-4.5347,-4.5045,-4.4618,-4.4618,-4.497,-4.5497,-4.5497,-4.5824,-4.6301,-4.6301,-4.6301,-4.6301,-4.6301,-4.6301,-4.6301,-4.6301,-4.6301,-4.6301,-4.6301,-4.6301,-4.6301,-4.6301,-4.6301,-4.6301,-4.6301,-4.6301,-4.6301,-4.6301,-4.6301,-4.6301,-4.6301,-4.6301,-4.6301,-4.6301,-4.6301,-4.6301,-4.6301,-4.6301,-4.6301,-4.6301,-4.6301,-4.6301,-4.6301,-4.6301,-4.6125,-4.5673,-4.5623,-4.5422,-4.4945,-4.492,-4.492,-4.492,-4.492,-4.4644,-4.4091,-4.389,-4.3539,-4.2986,-4.2986,-4.2986,-4.2986,-4.2986,-4.2986,-2.5946,-3.1251,-3.6832,-4.0425,-4.1806,-4.2464,-4.2961,-4.3087,-4.3112,-4.3187,-4.3966,-4.4618,-4.4618,-4.4618,-4.4819,-4.5397,-4.5497,-4.5673,0.0,0.0,0.0,0.0,0.0,0.0,0.0,0.0,0.0,0.0,0.0,0.0,-4.6301,-4.6301,-4.6301,-4.6301,-4.6301,-4.6301,-4.6301,-4.6301,-4.6301,-4.6301,-4.6301,-4.6301,-4.6301,-4.6301,-4.605,-4.5598,-4.5598,-4.5271,-4.4744,-4.4744,-4.4694,-4.4618,-4.4618,-4.497,-4.5497,-4.5497,-4.5824,-4.6301,-4.6301,-4.6301,-4.6301,-4.6301,-4.6301,-4.6301,-4.6301,-4.6301,-4.6301,-4.6301,-4.6301,-4.6301,-4.6301,-4.6301,-4.6301,-4.6301,-4.6301,-4.6301,-4.6301,-4.6301,-4.6301,-4.6301,-4.6301,-4.6301,-4.6301,-4.6301,-4.6301,-4.6301,-4.6301,-4.6301,-4.6301,-4.6301,-4.6301,-4.6301,-4.6301,-4.6276,-4.62,-4.62,-4.6175,-4.61,-4.6075,-4.6075,-4.6075,-4.6075,-4.5824,-4.5271,-4.4292,-4.3539,-4.2986,-4.2986,-4.2986,-4.2986,-4.2986,-4.2986,-2.7067,-3.2039,-3.6634,-3.9672,-4.1304,-4.2263,-4.2514,-4.276,-4.2986,-4.2986,-4.3363,-4.3689,-4.3689,-4.3689,-4.389,-4.4443,-4.4543,-4.4719,0.0,0.0,0.0,0.0,0.0,0.0,0.0,0.0,0.0,0.0,0.0,-4.6301,-4.6301,-4.6301,-4.6301,-4.6301,-4.6301,-4.6301,-4.6301,-4.6301,-4.615,-4.5849,-4.5849,-4.5673,-4.5372,-4.5372,-4.5397,-4.5497,-4.5497,-4.4995,-4.4166,-4.4166,-4.3991,-4.3689,-4.3689,-4.4242,-4.4995,-4.4995,-4.5547,-4.6301,-4.6301,-4.6301,-4.6301,-4.6301,-4.6301,-4.6301,-4.6301,-4.6301,-4.6301,-4.6301,-4.6301,-4.6301,-4.6301,-4.6301,-4.6301,-4.6301,-4.6301,-4.6301,-4.6301,-4.6301,-4.6301,-4.6301,-4.6301,-4.6301,-4.6301,-4.6301,-4.6301,-4.6301,-4.6301,-4.6301,-4.6301,-4.6301,-4.6301,-4.6301,-4.6301,-4.6301,-4.6301,-4.6301,-4.6301,-4.6301,-4.6301,-4.6301,-4.6301,-4.6301,-4.605,-4.5497,-4.4995,-4.4468,-4.389,-4.389,-4.389,-4.389,-4.389,-4.389,-2.758,-3.1562,-3.4956,-3.7914,-3.9772,-4.1056,-4.1483,-4.2057,-4.261,-4.2791,-4.2942,-4.2986,-4.2986,-4.2986,-4.3162,-4.3714,-4.379,0.0,0.0,0.0,0.0,0.0,0.0,0.0,0.0,0.0,0.0,0.0,0.0,-4.6301,-4.6301,-4.6301,-4.6301,-4.6301,-4.6301,-4.6301,-4.6301,-4.6301,-4.6024,-4.5497,-4.5497,-4.5171,-4.4618,-4.4618,-4.4794,-4.507,-4.507,-4.4493,-4.3589,-4.3589,-4.3338,-4.2986,-4.2986,-4.3664,-4.4618,-4.4618,-4.5347,-4.6301,-4.6301,-4.6301,-4.6301,-4.6301,-4.6301,-4.6301,-4.6301,-4.6301,-4.6301,-4.6301,-4.6301,-4.6301,-4.6301,-4.6301,-4.6301,-4.6301,-4.6301,-4.6301,-4.6301,-4.6301,-4.6301,-4.6301,-4.6301,-4.6301,-4.6301,-4.6301,-4.6301,-4.6301,-4.6301,-4.6301,-4.6301,-4.6301,-4.6301,-4.6301,-4.6301,-4.6301,-4.6301,-4.6301,-4.6301,-4.6301,-4.6301,-4.6301,-4.6301,-4.6301,-4.6125,-4.5698,-4.5698,-4.5347,-4.4618,-4.4618,-4.4618,-4.4618,-4.4618,-4.4618,-2.5996,-2.8699,-3.1621,-3.4906,-3.6609,-3.7864,-3.9471,-4.0651,-4.158,-4.2137,-4.2665,-4.2986,-4.2986,-4.2986,-4.3162,-4.3714,-4.379,0.0,0.0,0.0,0.0,0.0,0.0,0.0,0.0,0.0,0.0,0.0,0.0,-4.6301,-4.6301,-4.6301,-4.6301,-4.6301,-4.6301,-4.6301,-4.6301,-4.6301,-4.6024,-4.5497,-4.5497,-4.5171,-4.4618,-4.4618,-4.4342,-4.389,-4.389,-4.3564,-4.3011,-4.3011,-4.3011,-4.2986,-4.2986,-4.3664,-4.4618,-4.4618,-4.5347,-4.6301,-4.6301,-4.6301,-4.6301,-4.6301,-4.6301,-4.6301,-4.6301,-4.6301,-4.6301,-4.6301,-4.6301,-4.6301,-4.6301,-4.6301,-4.6301,-4.6301,-4.6301,-4.6301,-4.6301,-4.6301,-4.6301,-4.6301,-4.6301,-4.6301,-4.6301,-4.6301,-4.6301,-4.6301,-4.6301,-4.6301,-4.6301,-4.6301,-4.6301,-4.6301,-4.6301,-4.6301,-4.6301,-4.6301,-4.6301,-4.6301,-4.6301,-4.6301,-4.6301,-4.6301,-4.6301,-4.6276,-4.6276,-4.5723,-4.4618,-4.4618,-4.4618,-4.4618,-4.4618,-4.4618,-2.2849,-2.5594,-2.8574,-3.121,-3.3746,-3.5956,-3.7262,-3.8969,-4.0551,-4.1455,-4.2057,-4.2615,-4.2911,-4.2986,-4.3037,-4.3237,-4.3263,0.0,0.0,0.0,0.0,0.0,0.0,0.0,0.0,0.0,0.0,0.0,0.0,0.0,-4.5221,-4.5221,-4.5221,-4.5221,-4.5221,-4.5221,-4.5221,-4.5598,-4.5321,-4.4418,-4.4418,-4.4116,-4.3564,-4.3564,-4.3463,-4.3263,-4.3263,-4.3162,-4.3011,-4.3363,-4.3288,-4.2986,-4.2986,-4.3664,-4.4618,-4.4618,-4.5347,-4.6301,-4.6301,-4.6301,-4.6301,-4.6301,-4.6301,-4.6301,-4.6301,-4.6301,-4.6301,-4.6301,-4.6301,-4.6301,-4.6301,-4.6301,-4.6301,-4.6301,-4.6301,-4.6301,-4.6301,-4.6301,-4.6301,-4.6301,-4.6301,-4.6301,-4.6301,-4.6301,-4.6301,-4.6301,-4.6301,-4.6301,-4.6301,-4.6301,-4.6301,-4.6301,-4.6301,-4.6301,-4.6301,-4.6301,-4.6301,-4.6301,-4.6301,-4.6301,-4.6301,-4.6301,-4.6301,-4.6301,-4.6301,-4.61,-4.5698,-4.5698,-4.5698,-4.5698,-4.5698,-4.5698,-2.1043,-2.3407,-2.6122,-2.7921,-3.0608,-3.3119,-3.4399,-3.6558,-3.8718,-4.0199,-4.1229,-4.2108,-4.2836,-4.2986,-4.2986,-4.2986,-4.2986,0.0,0.0,0.0,0.0,0.0,0.0,0.0,0.0,0.0,0.0,0.0,0.0,0.0,-4.4618,-4.4618,-4.4618,-4.4618,-4.4819,-4.4819,-4.4618,-4.5196,-4.492,-4.379,-4.379,-4.3514,-4.2986,-4.2986,-4.2986,-4.2986,-4.3162,-4.3162,-4.3011,-4.3363,-4.3413,-4.3263,-4.3263,-4.394,-4.492,-4.492,-4.5497,-4.6301,-4.6301,-4.6301,-4.6301,-4.6301,-4.6301,-4.6301,-4.6301,-4.6301,-4.6301,-4.6301,-4.6301,-4.6301,-4.6301,-4.6301,-4.6301,-4.6301,-4.6301,-4.6301,-4.6301,-4.6301,-4.6301,-4.6301,-4.6301,-4.6301,-4.6301,-4.6301,-4.6301,-4.6301,-4.6301,-4.6301,-4.6301,-4.6301,-4.6301,-4.6301,-4.6301,-4.6301,-4.6301,-4.6301,-4.6301,-4.6301,-4.6301,-4.6301,-4.6301,-4.6301,-4.6301,-4.6301,-4.6301,-4.6301,-4.6301,-4.6301,-4.6301,-4.6301,-4.6301,-4.6301,0.0,0.0,0.0,-2.5209,-2.7168,-2.9214,-3.0884,-3.342,-3.6009,-3.8316,-4.0099,-4.158,-4.271,-4.2936,-4.2936,-4.2961,0.0,0.0,0.0,0.0,0.0,0.0,0.0,0.0,0.0,0.0,0.0,0.0,0.0,-4.4568,-4.4568,-4.4568,-4.4568,-4.4568,-4.5146,-4.5171,-4.4593,-4.5146,-4.4869,-4.379,-4.379,-4.3489,-4.2986,-4.2986,-4.2986,-4.3011,-4.3539,-4.3463,-4.2986,-4.2986,-4.3313,-4.379,-4.379,-4.4493,-4.5497,-4.5497,-4.5824,-4.6301,-4.6301,-4.6301,-4.6301,-4.6301,-4.6301,-4.6301,-4.6301,-4.6301,-4.6301,-4.6301,-4.6301,-4.6301,-4.6301,-4.6301,-4.6301,-4.6301,-4.6301,-4.6301,-4.6301,-4.6301,-4.6301,-4.6301,-4.6301,-4.6301,-4.6301,-4.6301,-4.6301,-4.6301,-4.6301,-4.6301,-4.6301,-4.6301,-4.6301,-4.6301,-4.6301,-4.6301,-4.6301,-4.6301,-4.6301,-4.6301,-4.6301,-4.6301,-4.6301,-4.6301,-4.6301,-4.6301,-4.6301,-4.6301,-4.6301,-4.6301,-4.6301,-4.6301,-4.6301,-4.6301,-1.9459,0.0,0.0,0.0,0.0,0.0,-2.7656,-3.0256,-3.3294,-3.5931,-3.7789,-3.9521,-4.143,-4.1806,-4.1932,-4.2363,0.0,0.0,0.0,0.0,0.0,0.0,0.0,0.0,0.0,0.0,0.0,0.0,-4.3438,-4.3438,-4.3438,-4.3438,-4.3438,-4.3438,-4.3966,-4.3991,-4.3438,-4.3991,-4.3915,-4.3212,-4.3212,-4.3112,-4.2986,-4.2986,-4.2986,-4.2986,-4.3137,-4.3112,-4.3011,-4.3413,-4.3664,-4.379,-4.379,-4.4493,-4.5497,-4.5497,-4.5824,-4.6301,-4.6301,-4.6301,-4.6301,-4.6301,-4.6301,-4.6301,-4.6301,-4.6301,-4.6301,-4.6301,-4.6301,-4.6301,-4.6301,-4.6301,-4.6301,-4.6301,-4.6301,-4.6301,-4.6301,-4.6301,-4.6301,-4.6301,-4.6301,-4.6301,-4.6301,-4.6301,-4.6301,-4.6301,-4.6301,-4.6301,-4.6301,-4.6301,-4.6301,-4.6301,-4.6301,-4.6301,-4.6301,-4.6301,-4.6301,-4.6301,-4.6301,-4.6301,-4.6301,-4.6301,-4.6301,-4.6301,-4.6301,-4.6301,-4.6301,-4.6301,-4.6301,-4.6301,-4.6301,-4.6301,-2.0362,-2.124,-2.2171,-2.2171,0.0,0.0,-2.5636,-2.7971,-3.0733,0.0,-3.5328,-3.7236,-3.9245,-3.9798,-4.0049,-4.0375,0.0,0.0,0.0,0.0,0.0,0.0,0.0,0.0,0.0,0.0,0.0,-4.2986,-4.2986,-4.2986,-4.2986,-4.2986,-4.2986,-4.2986,-4.3514,-4.3539,-4.2986,-4.3514,-4.3514,-4.2986,-4.2986,-4.2986,-4.2986,-4.2986,-4.2986,-4.2986,-4.2986,-4.2986,-4.3011,-4.3313,-4.374,-4.4141,-4.4141,-4.4844,-4.5824,-4.5824,-4.6024,-4.6301,-4.6301,-4.6301,-4.6301,-4.6301,-4.6301,-4.6301,-4.6301,-4.6301,-4.6301,-4.6301,-4.6301,-4.6301,-4.6301,-4.6301,-4.6301,-4.6301,-4.6301,-4.6301,-4.6301,-4.6301,-4.6301,-4.6301,-4.6301,-4.6301,-4.6301,-4.6301,-4.6301,-4.6301,-4.6301,-4.6301,-4.6301,-4.6301,-4.6301,-4.6301,-4.6301,-4.6301,-4.6301,-4.6301,-4.6301,-4.6301,-4.6301,-4.6301,-4.6301,-4.6301,-4.6301,-4.6301,-4.6301,-4.6301,-4.6301,-4.6301,-4.6301,-4.6301,-4.6301,-4.6301,-2.2573,-2.292,-2.3271,-2.3221,-2.3597,0.0,-2.4381,-2.6163,-2.8323,0.0,-3.2566,-3.46,-3.6307,-3.7036,-3.7412,-3.7538,0.0,0.0,0.0,0.0,0.0,0.0,0.0,0.0,0.0,-4.2936,-4.2986,-4.2986,-4.2986,-4.2986,-4.2986,-4.2986,-4.2986,-4.2986,-4.3463,-4.3463,-4.2986,-4.3463,-4.3463,-4.2986,-4.2986,-4.2986,-4.2986,-4.2986,-4.2986,-4.2986,-4.2986,-4.3011,-4.3062,-4.3062,-4.3689,-4.4618,-4.4618,-4.5321,-4.6301,-4.6301,-4.6301,-4.6301,-4.6301,-4.6301,-4.6301,-4.6301,-4.6301,-4.6301,-4.6301,-4.6301,-4.6301,-4.6301,-4.6301,-4.6301,-4.6301,-4.6301,-4.6301,-4.6301,-4.6301,-4.6301,-4.6301,-4.6301,-4.6301,-4.6301,-4.6301,-4.6301,-4.6301,-4.6301,-4.6301,-4.6301,-4.6301,-4.6301,-4.6301,-4.6301,-4.6301,-4.6301,-4.6301,-4.6301,-4.6301,-4.6301,-4.6301,-4.6301,-4.6301,-4.6301,-4.6301,-4.6301,-4.6301,-4.6301,-4.6301,-4.6301,-4.6301,-4.6301,-4.6301,-4.6301,-4.6301,-4.6301,-2.4173,-2.4374,-2.4349,-2.3929,-2.3904,0.0,-2.2422,-2.3879,-2.5837,0.0,-2.8825,-3.0668,-3.2792,-3.3269,-3.3646,-3.455,0.0,0.0,0.0,0.0,0.0,0.0,0.0,0.0,0.0,-4.2766,-4.2986,-4.2986,-4.2986,-4.2986,-4.2986,-4.2986,-4.2986,-4.2986,-4.3087,-4.3087,-4.2986,-4.3087,-4.3087,-4.2986,-4.2986,-4.2986,-4.2986,-4.2986,-4.2986,-4.2986,-4.2986,-4.3237,-4.3639,-4.3639,-4.4041,-4.4618,-4.4618,-4.5321,-4.6301,-4.6301,-4.6301,-4.6301,-4.6301,-4.6301,-4.6301,-4.6301,-4.6301,-4.6301,-4.6301,-4.6301,-4.6301,-4.6301,-4.6301,-4.6301,-4.6301,-4.6301,-4.6301,-4.6301,-4.6301,-4.6301,-4.6301,-4.6301,-4.6301,-4.6301,-4.6301,-4.6301,-4.6301,-4.6301,-4.6301,-4.6301,-4.6301,-4.6301,-4.6301,-4.6301,-4.6301,-4.6301,-4.6301,-4.6301,-4.6301,-4.6301,-4.6301,-4.6301,-4.6301,-4.6301,-4.6301,-4.6301,-4.6301,-4.6301,-4.6301,-4.6301,-4.6301,-4.6301,-4.6301,-4.6301,-4.6301,-4.6301,-2.5963,-2.5837,-2.5511,-2.4933,0.0,0.0,0.0,-2.3401,-2.4657,-2.546,-2.6741,-2.8122,-2.9503,-2.998,-3.0357,0.0,0.0,0.0,0.0,0.0,0.0,0.0,0.0,0.0,0.0,-4.2464,-4.274,-4.2961,-4.2986,-4.2986,-4.2986,-4.2986,-4.2986,-4.2986,-4.2986,-4.2986,-4.2986,-4.2986,-4.2986,-4.2986,-4.2986,-4.2986,-4.2986,-4.2986,-4.2986,-4.2986,-4.2986,-4.3288,-4.379,-4.379,-4.4292,-4.5045,-4.5045,-4.5573,-4.6301,-4.6301,-4.6301,-4.6301,-4.6301,-4.6301,-4.6301,-4.6301,-4.6301,-4.6301,-4.6301,-4.6301,-4.6301,-4.6301,-4.6301,-4.6301,-4.6301,-4.6301,-4.6301,-4.6301,-4.6301,-4.6301,-4.6301,-4.6301,-4.6301,-4.6301,-4.6301,-4.6301,-4.6301,-4.6301,-4.6301,-4.6301,-4.6301,-4.6301,-4.6301,-4.6301,-4.6301,-4.6301,-4.6301,-4.6301,-4.6301,-4.6301,-4.6301,-4.6301,-4.6301,-4.6301,-4.6301,-4.6301,-4.6301,-4.6301,-4.6301,-4.6301,-4.6301,-4.6301,-4.6301,-4.6301,-4.6301,-4.6301,-2.7896,-2.7444,-2.6801,0.0,0.0,-2.4079,0.0,0.0,0.0,0.0,0.0,0.0,0.0,0.0,0.0,0.0,0.0,0.0,0.0,0.0,0.0,0.0,0.0,0.0,0.0,-4.1685,-4.1911,-4.2308,-4.2333,-4.2434,-4.266,-4.276,-4.2861,-4.2986,-4.2986,-4.2986,-4.2986,-4.2986,-4.2986,-4.2986,-4.2986,-4.2986,-4.2986,-4.2986,-4.2986,-4.2986,-4.2986,-4.3338,-4.3966,-4.3966,-4.4618,-4.5623,-4.5522,-4.5824,-4.6301,-4.6301,-4.6301,-4.6301,-4.6301,-4.6301,-4.6301,-4.6301,-4.6301,-4.6301,-4.6301,-4.6301,-4.6301,-4.6301,-4.6301,-4.6301,-4.6301,-4.6301,-4.6301,-4.6301,-4.6301,-4.6301,-4.6301,-4.6301,-4.6301,-4.6301,-4.6301,-4.6301,-4.6301,-4.6301,-4.6301,-4.6301,-4.6301,-4.6301,-4.6301,-4.6301,-4.6301,-4.6301,-4.6301,-4.6301,-4.6301,-4.6301,-4.6301,-4.6301,-4.6301,-4.6301,-4.6301,-4.6301,-4.6301,-4.6301,-4.6301,-4.6301,-4.6301,-4.6301,-4.6301,-4.6301,-4.6301,-4.6301,0.0,0.0,0.0,0.0,-2.6239,0.0,0.0,0.0,-2.307,-2.2669,0.0,0.0,0.0,0.0,0.0,0.0,0.0,0.0,0.0,0.0,0.0,0.0,0.0,0.0,0.0,0.0,-3.9998,-4.0074,-4.0074,-4.0501,-4.1426,-4.1982,-4.2539,-4.2961,-4.2986,-4.2986,-4.2986,-4.2986,-4.2986,-4.2986,-4.2986,-4.2986,-4.2986,-4.2986,-4.2986,-4.2986,-4.2986,-4.3564,-4.4543,-4.4543,-4.5196,-4.6175,-4.5673,-4.5824,-4.6301,-4.6301,-4.6301,-4.6301,-4.6301,-4.6301,-4.6301,-4.6301,-4.6301,-4.6301,-4.6301,-4.6301,-4.6301,-4.6301,-4.6301,-4.6301,-4.6301,-4.6301,-4.6301,-4.6301,-4.6301,-4.6301,-4.6301,-4.6301,-4.6301,-4.6301,-4.6301,-4.6301,-4.6301,-4.6301,-4.6301,-4.6301,-4.6301,-4.6301,-4.6301,-4.6301,-4.6301,-4.6301,-4.6301,-4.6301,-4.6301,-4.6301,-4.6301,-4.6301,-4.6301,-4.6301,-4.6301,-4.6301,-4.6301,-4.6301,-4.6301,-4.6301,-4.6301,-4.6301,-4.6301,-4.6301,-4.6301,-4.6301,0.0,0.0,0.0,0.0,0.0,0.0,-2.3195,0.0,-2.3577,0.0,0.0,0.0,0.0,0.0,0.0,0.0,0.0,0.0,0.0,0.0,0.0,0.0,0.0,0.0,0.0,0.0,0.0,0.0,0.0,-3.9195,-4.0325,-4.1505,-4.2313,-4.2539,-4.2811,-4.2986,-4.2986,-4.2986,-4.2986,-4.2986,-4.2986,-4.2986,-4.2986,-4.2986,-4.2986,-4.2986,-4.2986,-4.3614,-4.4618,-4.4618,-4.5296,-4.6276,-4.605,-4.61,-4.6301,-4.6301,-4.6301,-4.6301,-4.6301,-4.6301,-4.6301,-4.6301,-4.6301,-4.6301,-4.6301,-4.6301,-4.6301,-4.6301,-4.6301,-4.6301,-4.6301,-4.6301,-4.6301,-4.6301,-4.6301,-4.6301,-4.6301,-4.6301,-4.6301,-4.6301,-4.6301,-4.6301,-4.6301,-4.6301,-4.6301,-4.6301,-4.6301,-4.6301,-4.6301,-4.6301,-4.6301,-4.6301,-4.6301,-4.6301,-4.6301,-4.6301,-4.6301,-4.6301,-4.6301,-4.6301,-4.6301,-4.6301,-4.6301,-4.6301,-4.6301,-4.6301,-4.6301,-4.6301,-4.6301,-4.6301,-4.6301,-4.6301,-3.4324,0.0,0.0,0.0,0.0,0.0,0.0,0.0,0.0,0.0,0.0,0.0,0.0,0.0,0.0,0.0,0.0,0.0,0.0,0.0,0.0,0.0,0.0,0.0,0.0,0.0,0.0,0.0,0.0,0.0,-3.8944,-4.0727,-4.1911,-4.2213,-4.274,-4.2986,-4.2986,-4.2986,-4.2986,-4.2986,-4.2986,-4.2986,-4.2986,-4.2986,-4.3062,-4.3212,-4.3212,-4.384,-4.4869,-4.4869,-4.5447,-4.6301,-4.6301,-4.6301,-4.6301,-4.6301,-4.6301,-4.6301,-4.6301,-4.6301,-4.6301,-4.6301,-4.6301,-4.6301,-4.6301,-4.6301,-4.6301,-4.6301,-4.6301,-4.6301,-4.6301,-4.6301,-4.6301,-4.6301,-4.6301,-4.6301,-4.6301,-4.6301,-4.6301,-4.6301,-4.6301,-4.6301,-4.6301,-4.6301,-4.6301,-4.6301,-4.6301,-4.6301,-4.6301,-4.6301,-4.6301,-4.6301,-4.6301,-4.6301,-4.6301,-4.6301,-4.6301,-4.6301,-4.6301,-4.6301,-4.6301,-4.6301,-4.6301,-4.6301,-4.6301,-4.6301,-4.6301,-4.6301,-4.6301,-4.6301,-4.6301,-4.6301,0.0,0.0,0.0,-3.1085,0.0,0.0,0.0,0.0,-2.4933,0.0,0.0,0.0,0.0,0.0,0.0,-2.485,0.0,0.0,0.0,0.0,0.0,0.0,0.0,0.0,0.0,0.0,0.0,0.0,0.0,0.0,-3.7136,-3.9371,-4.1053,-4.2187,-4.274,-4.2986,-4.2986,-4.2986,-4.2986,-4.2986,-4.2986,-4.2986,-4.2986,-4.2986,-4.3263,-4.3765,-4.3765,-4.4418,-4.5472,-4.5472,-4.5799,-4.6301,-4.6301,-4.6301,-4.6301,-4.6301,-4.6301,-4.6301,-4.6301,-4.6301,-4.6301,-4.6301,-4.6301,-4.6301,-4.6301,-4.6301,-4.6301,-4.6301,-4.6301,-4.6301,-4.6301,-4.6301,-4.6301,-4.6301,-4.6301,-4.6301,-4.6301,-4.6301,-4.6301,-4.6301,-4.6301,-4.6301,-4.6301,-4.6301,-4.6301,-4.6301,-4.6301,-4.6301,-4.6301,-4.6301,-4.6301,-4.6301,-4.6301,-4.6301,-4.6301,-4.6301,-4.6301,-4.6301,-4.6301,-4.6301,-4.6301,-4.6301,-4.6301,-4.6301,-4.6301,-4.6301,-4.6301,-4.6301,-4.6301,-4.6301,-4.6301,-4.6301,0.0,0.0,-3.5629,-3.3796,0.0,0.0,0.0,0.0,0.0,0.0,0.0,0.0,0.0,0.0,0.0,-2.6113,0.0,0.0,0.0,0.0,0.0,0.0,0.0,0.0,0.0,0.0,0.0,0.0,0.0,0.0,0.0,-3.8015,-3.9923,-4.1028,-4.2308,-4.2986,-4.2986,-4.2986,-4.2986,-4.2986,-4.2986,-4.2986,-4.2986,-4.2986,-4.3288,-4.379,-4.379,-4.4443,-4.5497,-4.5497,-4.5824,-4.6301,-4.6301,-4.6301,-4.6301,-4.6301,-4.6301,-4.6301,-4.6301,-4.6301,-4.6301,-4.6301,-4.6301,-4.6301,-4.6301,-4.6301,-4.6301,-4.6301,-4.6577,-4.6853,-4.6853,-4.7104,-4.738,-4.738,-4.738,-4.738,-4.738,-4.738,-4.738,-4.738,-4.738,-4.738,-4.738,-4.738,-4.7129,-4.6426,-4.6301,-4.6301,-4.6301,-4.6301,-4.6301,-4.6301,-4.6301,-4.6301,-4.6301,-4.6301,-4.6301,-4.6301,-4.6301,-4.6301,-4.6301,-4.6301,-4.6301,-4.6301,-4.6301,-4.6301,-4.6301,-4.6301,-4.6301,-4.6301,-4.6301,-4.6301,-4.0902,-3.9647,0.0,-3.681,-3.4826,0.0,-3.0382,0.0,0.0,0.0,0.0,0.0,0.0,0.0,0.0,-2.757,0.0,0.0,0.0,-2.2769,0.0,0.0,0.0,0.0,0.0,0.0,-2.9126,-2.9679,-3.0407,0.0,0.0,0.0,-3.8868,-4.0174,-4.2007,-4.2986,-4.2986,-4.2986,-4.2986,-4.2986,-4.2986,-4.2986,-4.2986,-4.2986,-4.3388,-4.4091,-4.4091,-4.4744,-4.5773,-4.5773,-4.5999,-4.6301,-4.6301,-4.6301,-4.6301,-4.6301,-4.6301,-4.6301,-4.6301,-4.6301,-4.6301,-4.6301,-4.6301,-4.6301,-4.6301,-4.6301,-4.6351,-4.6552,-4.6853,-4.7118,-4.7355,-4.7657,-4.7908,-4.7908,-4.7908,-4.7908,-4.7908,-4.7908,-4.7908,-4.7908,-4.7908,-4.7908,-4.7908,-4.7908,-4.7682,-4.6979,-4.6878,-4.6878,-4.6878,-4.6878,-4.6803,-4.6627,-4.6602,-4.6527,-4.6326,-4.6301,-4.6301,-4.6301,-4.6301,-4.6301,-4.6301,-4.6301,-4.6301,-4.6301,-4.6301,-4.6301,-4.6301,-4.6301,-4.6301,-4.6301,-4.6301,-4.6301]},{"header":{"parameterUnit":"m.s-1","parameterCategory":1,"la1":30.6,"la2":29.2853,"lo1":-89.7004,"lo2":-87.6739,"dy":0.0162,"dx":0.0183,"nx":112,"ny":82,"refTime":"2026-04-19T12:00:00:Z","depth":0,"parameterNumber":3,"parameterNumberName":"V-component_of_WINDS"},"data":[0.0,0.0,0.0,0.0,0.0,0.0,0.0,0.0,0.0,0.0,0.0,0.0,0.0,0.0,0.0,0.0,0.0,0.0,0.0,0.0,0.0,0.0,0.0,0.0,0.0,0.0,0.0,0.0,0.0,0.0,0.0,0.0,0.0,0.0,0.0,0.0,0.0,0.0,0.0,0.0,0.0,0.0,0.0,0.0,0.0,0.0,0.0,0.0,0.0,0.0,0.0,0.0,0.0,0.0,0.0,0.0,0.0,0.0,0.0,0.0,0.0,0.0,0.0,0.0,0.0,0.0,0.0,0.0,0.0,0.0,0.0,0.0,0.0,0.0,0.0,0.0,0.0,0.0,0.0,0.0,0.0,0.0,0.0,0.0,0.0,0.0,0.0,0.0,0.0,0.0,1.6336,1.8831,2.1738,2.3129,2.2168,2.0996,1.9512,1.7598,0.0,0.0,0.0,0.0,0.0,0.0,0.0,0.0,0.0,0.0,0.0,0.0,0.0,0.0,0.0,0.0,0.0,0.0,0.0,0.0,0.0,0.0,0.0,0.0,0.0,0.0,0.0,0.0,0.0,0.0,0.0,0.0,0.0,0.0,0.0,0.0,0.0,0.0,0.0,0.0,0.0,0.0,0.0,0.0,0.0,0.0,0.0,0.0,0.0,0.0,0.0,0.0,0.0,0.0,0.0,0.0,0.0,0.0,0.0,0.0,0.0,0.0,0.0,0.0,0.0,0.0,0.0,0.0,0.0,0.0,0.0,0.0,0.0,0.0,0.0,0.0,0.0,0.0,0.0,0.0,0.0,0.0,0.0,0.0,0.0,0.0,0.0,0.0,0.0,0.0,0.0,0.0,0.0,0.0,0.0,0.0,0.0,0.0,0.0,0.0,0.0,0.0,0.0,0.0,1.6953,2.0957,2.3462,2.4343,2.311,2.2441,2.0918,1.8086,0.0,0.0,0.0,0.0,0.0,0.0,0.0,0.0,0.0,0.0,0.0,0.0,0.0,0.0,0.0,0.0,0.0,0.0,0.0,0.0,0.0,0.0,0.0,0.0,0.0,0.0,0.0,0.0,0.0,0.0,0.0,0.0,0.0,0.0,0.0,0.0,0.0,0.0,0.0,0.0,0.0,0.0,0.0,0.0,0.0,0.0,0.0,0.0,0.0,0.0,0.0,0.0,0.0,0.0,0.0,0.0,0.0,0.0,0.0,0.0,0.0,0.0,0.0,0.0,0.0,0.0,0.0,0.0,0.0,0.0,0.0,0.0,0.0,0.0,0.0,0.0,0.0,0.0,0.0,0.0,0.0,0.0,0.0,0.0,0.0,0.0,0.0,0.0,0.0,0.0,0.0,0.0,0.0,0.0,0.0,0.0,0.0,0.0,0.0,0.0,0.0,0.0,0.0,1.7422,1.9766,2.1992,2.3711,2.4297,2.3242,2.2324,2.0723,1.8252,1.593,0.0,0.0,0.0,0.0,0.0,0.0,0.0,0.0,0.0,0.0,0.0,0.0,0.0,0.0,0.0,0.0,0.0,0.0,0.0,0.0,0.0,0.0,0.0,0.0,0.0,0.0,0.0,0.0,0.0,0.0,0.0,0.0,0.0,0.0,0.0,0.0,0.0,0.0,0.0,0.0,0.0,0.0,0.0,0.0,0.0,0.0,0.0,0.0,0.0,0.0,0.0,0.0,0.0,0.0,0.0,0.0,0.0,0.0,0.0,0.0,0.0,0.0,0.0,0.0,0.0,0.0,0.0,0.0,0.0,0.0,0.0,0.0,0.0,0.0,0.0,0.0,0.0,0.0,0.0,0.0,0.0,0.0,0.0,0.0,0.0,0.0,0.0,0.0,0.0,0.0,0.0,0.0,0.0,0.0,0.0,0.0,0.0,0.0,0.0,0.0,0.0,0.0,2.0156,2.2227,2.2754,2.3867,2.418,2.3223,2.1931,2.0273,1.8054,1.6118,0.0,0.0,0.0,0.0,0.0,0.0,0.0,0.0,0.0,0.0,0.0,0.0,0.0,0.0,0.0,0.0,0.0,0.0,0.0,0.0,0.0,0.0,0.0,0.0,0.0,0.0,0.0,0.0,0.0,0.0,0.0,0.0,0.0,0.0,0.0,0.0,0.0,0.0,0.0,0.0,0.0,0.0,0.0,0.0,0.0,0.0,0.0,0.0,0.0,0.0,0.0,0.0,0.0,0.0,0.0,0.0,0.0,0.0,0.0,0.0,0.0,0.0,0.0,0.0,0.0,0.0,0.0,0.0,0.0,0.0,0.0,0.0,0.0,0.0,0.0,0.0,0.0,0.0,0.0,0.0,0.0,0.0,0.0,0.0,0.0,0.0,0.0,0.0,0.0,0.0,0.0,0.0,0.0,0.0,0.0,0.0,0.0,0.0,0.0,0.0,0.0,0.0,2.0605,2.2793,2.3613,2.4492,2.4558,2.3306,2.1973,1.9999,1.7248,1.5725,0.0,0.0,0.0,0.0,0.0,0.0,0.0,0.0,0.0,0.0,0.0,0.0,0.0,0.0,0.0,0.0,0.0,0.0,0.0,0.0,0.0,0.0,0.0,0.0,0.0,0.0,0.0,0.0,0.0,0.0,0.0,0.0,0.0,0.0,0.0,0.0,0.0,0.0,0.0,0.0,0.0,0.0,0.0,0.0,0.0,0.0,0.0,0.0,0.0,0.0,0.0,0.0,0.0,0.0,0.0,0.0,0.0,0.0,0.0,0.0,0.0,0.0,0.0,0.0,0.0,0.0,0.0,0.0,0.0,0.0,0.0,0.0,0.0,0.0,0.0,0.0,0.0,0.0,0.0,0.0,0.0,0.0,0.0,0.0,0.0,0.0,0.0,0.0,0.0,0.0,0.0,0.0,0.0,0.0,0.0,0.0,0.0,0.0,0.0,0.0,0.0,0.0,2.1035,2.3144,2.373,2.4316,2.4258,2.3286,2.1465,1.9429,1.7193,0.0,0.0,0.0,0.0,0.0,0.0,0.0,0.0,0.0,0.0,0.0,0.0,0.0,0.0,0.0,0.0,0.0,0.0,0.0,0.0,0.0,0.0,0.0,0.0,0.0,0.0,0.0,0.0,0.0,0.0,0.0,0.0,0.0,0.0,0.0,0.0,0.0,0.0,0.0,0.0,0.0,0.0,0.0,0.0,0.0,0.0,0.0,0.0,0.0,0.0,0.0,0.0,0.0,0.0,0.0,0.0,0.0,0.0,0.0,0.0,0.0,0.0,0.0,0.0,0.0,0.0,0.0,0.0,0.0,0.0,0.0,0.0,0.0,0.0,0.0,0.0,0.0,0.0,0.0,0.0,0.0,0.0,0.0,0.0,0.0,0.0,0.0,0.0,0.0,0.0,0.0,0.0,0.0,0.0,0.0,0.0,0.0,0.0,0.0,0.0,0.0,0.0,1.852,2.1367,2.3359,2.3926,2.4238,2.4023,2.3047,2.0957,1.8836,1.6766,0.0,0.0,0.0,0.0,0.0,0.0,0.0,0.0,0.0,0.0,0.0,0.0,0.0,0.0,0.0,0.0,0.0,0.0,0.0,0.0,0.0,0.0,0.0,0.0,0.0,0.0,0.0,0.0,0.0,0.0,0.0,0.0,0.0,0.0,0.0,0.0,0.0,0.0,0.0,0.0,0.0,0.0,0.0,0.0,0.0,0.0,0.0,0.0,0.0,0.0,0.0,0.0,0.0,0.0,0.0,0.0,0.0,0.0,0.0,0.0,0.0,0.0,0.0,0.0,0.0,0.0,0.0,0.0,0.0,0.0,0.0,0.0,0.0,0.0,0.0,0.0,0.0,0.0,0.0,0.0,0.0,0.0,0.0,0.0,0.0,0.0,0.0,0.0,0.0,0.0,0.0,0.0,0.0,0.0,0.0,0.0,0.0,0.0,0.0,0.0,0.0,0.0,1.8945,2.1543,2.3413,2.4316,2.4414,2.3906,2.2617,2.0547,1.8287,0.0,0.0,0.0,0.0,0.0,0.0,0.0,0.0,0.0,0.0,0.0,0.0,0.0,0.0,0.0,0.0,0.0,0.0,0.0,0.0,0.0,0.0,0.0,0.0,0.0,0.0,0.0,0.0,0.0,0.0,0.0,0.0,0.0,0.0,0.0,0.0,0.0,0.0,0.0,0.0,0.0,0.0,0.0,0.0,0.0,0.0,0.0,0.0,0.0,0.0,0.0,0.0,0.0,0.0,0.0,0.0,0.0,0.0,0.0,0.0,0.0,0.0,0.0,0.0,0.0,0.0,0.0,0.0,0.0,0.0,0.0,0.0,0.0,0.0,0.0,0.0,0.0,0.0,0.0,0.0,0.0,0.0,0.0,0.0,0.0,0.0,0.0,0.0,0.0,0.0,0.0,0.0,0.0,0.0,0.0,0.0,0.0,0.0,0.0,0.0,0.0,0.0,0.0,1.8945,2.1543,2.3359,2.3906,2.4238,2.3906,2.2617,2.0801,1.8821,1.6682,0.0,0.0,0.0,0.0,0.0,0.0,0.0,0.0,0.0,0.0,0.0,0.0,0.0,0.0,0.0,0.0,0.0,0.0,0.0,0.0,0.0,0.0,0.0,0.0,0.0,0.0,0.0,0.0,0.0,0.0,0.0,0.0,0.0,0.0,0.0,0.0,0.0,0.0,0.0,0.0,0.0,0.0,0.0,0.0,0.0,0.0,0.0,0.0,0.0,0.0,0.0,0.0,0.0,0.0,0.0,0.0,0.0,0.0,0.0,0.0,0.0,0.0,0.0,0.0,0.0,0.0,0.0,0.0,0.0,0.0,0.0,0.0,0.0,0.0,0.0,0.0,0.0,0.0,0.0,0.0,0.0,0.0,0.0,0.0,0.0,0.0,0.0,0.0,0.0,0.0,0.0,0.0,0.0,0.0,0.0,0.0,0.0,0.0,0.0,0.0,0.0,0.0,1.8984,2.1699,2.3516,2.3769,2.416,2.3906,2.2617,2.1074,1.9216,1.6951,0.0,0.0,0.0,0.0,0.0,0.0,0.0,0.0,0.0,0.0,0.0,0.0,0.0,0.0,0.0,0.0,0.0,0.0,0.0,0.0,0.0,0.0,0.0,0.0,0.0,0.0,0.0,0.0,0.0,0.0,0.0,0.0,0.0,0.0,0.0,0.0,0.0,0.0,0.0,0.0,0.0,0.0,0.0,0.0,0.0,0.0,0.0,0.0,0.0,0.0,0.0,0.0,0.0,0.0,0.0,0.0,0.0,0.0,0.0,0.0,0.0,0.0,0.0,0.0,0.0,0.0,0.0,0.0,0.0,0.0,0.0,0.0,0.0,0.0,0.0,0.0,0.0,0.0,0.0,0.0,0.0,0.0,0.0,0.0,0.0,0.0,0.0,0.0,0.0,0.0,0.0,0.0,0.0,0.0,0.0,0.0,0.0,0.0,0.0,0.0,0.0,0.0,1.9004,2.1934,2.3769,2.373,2.4141,2.3887,2.2559,2.1328,1.9551,1.698,0.0,0.0,0.0,0.0,0.0,0.0,0.0,0.0,0.0,0.0,0.0,0.0,0.0,0.0,0.0,0.0,0.0,0.0,0.0,0.0,0.0,0.0,0.0,0.0,0.0,0.0,0.0,0.0,0.0,0.0,0.0,0.0,0.0,0.0,0.0,0.0,0.0,0.0,0.0,0.0,0.0,0.0,0.0,0.0,0.0,0.0,0.0,0.0,0.0,0.0,0.0,0.0,0.0,0.0,0.0,0.0,0.0,0.0,0.0,0.0,2.1622,0.0,0.0,0.0,0.0,0.0,0.0,0.0,0.0,0.0,0.0,0.0,0.0,0.0,0.0,0.0,0.0,0.0,0.0,0.0,0.0,0.0,0.0,0.0,0.0,0.0,0.0,0.0,0.0,0.0,0.0,0.0,0.0,0.0,0.0,0.0,0.0,0.0,0.0,0.0,0.0,0.0,1.9004,2.1934,2.3652,2.3276,2.3965,2.3769,2.2148,2.1445,2.0099,1.7837,1.6016,0.0,0.0,0.0,0.0,0.0,0.0,0.0,0.0,0.0,0.0,0.0,0.0,0.0,0.0,0.0,0.0,0.0,0.0,0.0,0.0,0.0,0.0,0.0,0.0,0.0,0.0,0.0,0.0,0.0,0.0,0.0,0.0,0.0,0.0,0.0,0.0,0.0,0.0,0.0,0.0,0.0,0.0,0.0,0.0,0.0,0.0,0.0,0.0,0.0,0.0,0.0,0.0,0.0,0.0,0.0,0.0,0.0,0.0,0.0,0.0,2.3382,0.0,0.0,0.0,0.0,0.0,0.0,0.0,0.0,0.0,0.0,0.0,0.0,0.0,0.0,0.0,0.0,0.0,0.0,0.0,0.0,0.0,0.0,0.0,0.0,0.0,0.0,0.0,0.0,0.0,0.0,0.0,0.0,0.0,0.0,0.0,0.0,0.0,0.0,0.0,0.0,1.9336,2.2227,2.3848,2.3159,2.3861,2.3809,2.2305,2.1797,2.0703,1.875,1.7207,0.0,0.0,0.0,0.0,0.0,0.0,0.0,0.0,0.0,0.0,0.0,0.0,0.0,0.0,0.0,0.0,0.0,0.0,0.0,0.0,0.0,0.0,0.0,0.0,0.0,0.0,0.0,0.0,0.0,0.0,0.0,0.0,0.0,0.0,0.0,0.0,0.0,0.0,0.0,0.0,0.0,0.0,0.0,0.0,0.0,0.0,0.0,0.0,0.0,0.0,0.0,0.0,0.0,3.239,3.2943,3.3922,3.3445,3.3219,3.3068,3.0331,2.8172,2.6615,2.6615,0.0,0.0,0.0,0.0,0.0,0.0,0.0,0.0,0.0,0.0,0.0,0.0,0.0,0.0,0.0,0.0,0.0,0.0,0.0,0.0,0.0,0.0,0.0,0.0,2.2681,2.1954,0.0,0.0,0.0,0.0,0.0,0.0,0.0,0.0,0.0,0.0,0.0,0.0,1.9707,2.248,2.4004,2.3179,2.3848,2.3828,2.2617,2.2187,2.1289,1.9609,1.8379,1.7101,0.0,0.0,0.0,0.0,0.0,0.0,0.0,0.0,0.0,0.0,0.0,0.0,0.0,0.0,0.0,0.0,0.0,0.0,0.0,0.0,0.0,0.0,0.0,0.0,0.0,0.0,0.0,0.0,0.0,0.0,0.0,0.0,2.1242,2.2318,0.0,0.0,0.0,0.0,0.0,0.0,0.0,0.0,0.0,0.0,0.0,0.0,0.0,3.2742,3.3803,3.4951,3.5852,3.6433,3.6433,3.6759,3.7362,3.7287,3.7236,3.7211,3.6784,0.0,3.0633,3.0633,0.0,0.0,0.0,0.0,0.0,0.0,0.0,0.0,0.0,0.0,0.0,0.0,0.0,0.0,0.0,0.0,0.0,0.0,0.0,0.0,0.0,0.0,2.7864,2.6381,2.55,2.472,0.0,2.1431,1.9062,1.7891,1.7227,0.0,0.0,0.0,0.0,0.0,0.0,0.0,1.9746,2.2227,2.3691,2.314,2.3574,2.3496,2.2598,2.2461,2.1855,2.0527,1.9568,1.8577,1.7488,1.5764,0.0,0.0,0.0,0.0,0.0,0.0,0.0,0.0,0.0,0.0,0.0,0.0,0.0,0.0,0.0,0.0,0.0,0.0,0.0,0.0,0.0,0.0,0.0,0.0,0.0,0.0,0.0,0.0,0.0,2.1644,2.3653,2.4431,2.4582,2.4607,0.0,0.0,0.0,0.0,0.0,0.0,0.0,0.0,0.0,3.3463,3.5629,3.7312,3.8392,3.9521,4.035,4.0902,4.0902,4.1178,4.1706,4.1404,4.1254,4.1254,4.0927,3.9521,3.7236,3.4751,3.2792,3.1135,0.0,0.0,0.0,0.0,2.7595,2.8161,2.895,2.9051,0.0,0.0,0.0,0.0,0.0,0.0,0.0,0.0,0.0,0.0,0.0,0.0,0.0,2.8581,2.7648,2.6697,2.5559,2.4014,2.2363,0.0,1.9609,1.8418,1.7168,0.0,0.0,0.0,0.0,1.9199,2.045,2.25,2.3633,2.314,2.373,2.3789,2.2886,2.3086,2.2773,2.1719,2.1094,2.021,1.8948,1.7667,1.628,0.0,0.0,0.0,0.0,0.0,0.0,0.0,0.0,0.0,0.0,0.0,0.0,0.0,0.0,0.0,0.0,0.0,0.0,0.0,0.0,0.0,0.0,0.0,0.0,0.0,0.0,0.0,0.0,2.4582,2.6389,2.7193,2.7832,2.7957,0.0,0.0,0.0,0.0,0.0,0.0,3.2993,3.4022,3.555,3.7563,3.9521,4.1003,4.1902,4.2911,4.3614,4.4016,4.4016,4.4217,4.4618,4.4192,4.4016,4.3991,4.3589,4.3162,4.2484,3.8617,3.6282,3.4977,3.2893,3.2014,3.1838,3.1411,3.1612,3.219,3.2842,3.2993,3.2717,3.1788,0.0,2.9189,2.7312,0.0,0.0,0.0,0.0,2.7608,2.91,3.0541,3.1382,3.0261,2.9215,2.8077,2.6716,2.5821,2.4766,0.0,2.1621,2.0312,1.9416,0.0,0.0,0.0,0.0,2.0215,2.1366,2.2871,2.3672,2.334,2.3725,2.3828,2.3247,2.3472,2.3319,2.2594,2.2223,2.145,2.0226,1.9273,1.7888,1.6089,0.0,0.0,0.0,0.0,0.0,0.0,0.0,0.0,0.0,0.0,0.0,0.0,0.0,0.0,0.0,0.0,0.0,0.0,0.0,0.0,0.0,0.0,0.0,0.0,0.0,0.0,0.0,0.0,0.0,3.1687,3.239,0.0,0.0,0.0,0.0,3.3445,3.4098,3.5378,3.7563,3.8241,3.9346,4.0974,4.2208,4.3087,4.3664,4.4242,4.4543,4.4593,4.4593,4.4593,4.4618,4.4593,4.4593,4.4593,4.4543,4.4518,4.4317,4.1952,4.0099,3.8492,3.6782,3.5755,3.5257,3.5232,3.5604,3.6279,3.7312,3.7337,3.681,3.6257,3.3897,3.1094,3.0149,2.8651,0.0,0.0,2.9821,3.0845,3.1273,3.2096,3.2558,3.1546,3.0127,2.8823,2.8275,2.6863,2.5265,0.0,2.3008,2.2068,2.121,0.0,1.9277,1.9746,2.0527,2.1424,2.2324,2.3223,2.3789,2.3769,2.3418,2.3227,2.347,2.3265,2.3036,2.2778,2.2531,2.1994,2.1168,2.0031,1.8748,1.7231,1.559,0.0,0.0,0.0,0.0,0.0,0.0,0.0,0.0,0.0,0.0,0.0,0.0,0.0,0.0,0.0,0.0,0.0,0.0,0.0,0.0,0.0,0.0,0.0,0.0,0.0,0.0,0.0,0.0,3.4776,3.6031,0.0,3.5504,3.5228,3.5805,3.7513,3.8467,3.9746,4.163,4.2258,4.3011,4.3991,4.4719,4.5221,4.5422,4.5623,4.5698,4.5698,4.5698,4.5698,4.5698,4.5698,4.5698,4.5698,4.5321,4.5171,4.5095,4.394,4.2484,4.0905,3.9546,3.8693,3.8165,3.7814,3.804,3.8567,3.8944,3.8743,3.8115,3.7211,3.5604,3.3934,3.3513,3.2523,3.1777,3.2621,3.2865,3.2995,3.3756,3.3623,3.3148,3.2237,3.0932,2.9701,2.885,2.7814,2.6873,2.6287,2.4663,2.3242,2.293,2.1816,2.1191,2.1894,2.2031,2.2363,2.3223,2.3594,2.3789,2.3789,2.3652,2.359,2.3687,2.3937,2.4053,2.4008,2.3645,2.3154,2.2501,2.1391,2.0224,1.8997,1.7314,1.5694,0.0,0.0,0.0,0.0,0.0,0.0,0.0,0.0,0.0,0.0,0.0,0.0,0.0,0.0,0.0,0.0,0.0,0.0,0.0,0.0,0.0,0.0,0.0,0.0,0.0,3.3997,3.701,3.7939,3.9346,3.995,3.8994,3.8693,3.9195,4.0676,4.148,4.261,4.4292,4.4543,4.497,4.5748,4.6125,4.6401,4.6602,4.6753,4.6853,4.6853,4.6853,4.6853,4.6853,4.6853,4.6753,4.6577,4.62,4.5949,4.5723,4.5347,4.4443,4.3218,4.1856,4.1128,4.0701,3.9973,3.9923,4.0249,4.0249,3.9898,3.927,3.8341,3.7412,3.6586,3.6243,3.573,3.5318,3.5808,3.5464,3.5051,3.555,3.48,3.3642,3.2733,3.1432,3.014,2.9322,2.8491,2.788,2.7994,2.6215,2.472,2.472,2.3807,2.3288,2.4007,2.3867,2.3947,2.4666,2.472,2.472,2.4629,2.4281,2.4118,2.419,2.4195,2.4324,2.4578,2.4078,2.3632,2.3271,2.2301,2.1236,2.0095,1.8287,1.6669,1.516,0.0,0.0,0.0,0.0,0.0,0.0,0.0,0.0,0.0,0.0,0.0,0.0,0.0,0.0,0.0,0.0,0.0,0.0,0.0,0.0,0.0,0.0,0.0,3.2993,3.6606,3.9597,4.1175,4.2384,4.2891,4.2338,4.1731,4.1882,4.2961,4.3037,4.374,4.5397,4.4945,4.5121,4.625,4.6276,4.6552,4.7068,4.7657,4.7908,4.7908,4.7908,4.7908,4.7908,4.7908,4.7631,4.7068,4.7068,4.6828,4.6301,4.6301,4.5999,4.5347,4.3689,4.3037,4.2861,4.1806,4.1351,4.1326,4.1326,4.1003,4.0475,3.9898,3.9346,3.8818,3.8241,3.804,3.804,3.804,3.7613,3.7089,3.6529,3.5429,3.4141,3.3051,3.1513,3.0202,2.9854,2.8844,2.8271,2.8967,2.7814,2.6739,2.6671,2.5989,2.5597,2.6055,2.6118,0.0,2.663,2.6671,2.6558,2.6259,2.53,2.4747,2.4924,2.4033,2.3708,2.4385,2.3697,2.3341,2.3404,2.271,2.1707,2.0422,1.8483,1.692,1.5793,0.0,0.0,0.0,0.0,0.0,0.0,0.0,0.0,0.0,0.0,0.0,0.0,0.0,0.0,0.0,0.0,0.0,0.0,0.0,0.0,0.0,3.2089,3.5077,3.5931,3.9396,4.2158,4.3011,4.4116,4.4568,4.3991,4.3438,4.3589,4.4719,4.4418,4.4543,4.5447,4.4945,4.4945,4.5698,4.5723,4.6175,4.7068,4.7657,4.7908,4.7908,4.7908,4.7908,4.7908,4.7908,4.7631,4.7068,4.7068,4.6828,4.6301,4.6301,4.6225,4.5999,4.5121,4.4292,4.3539,4.3237,4.2886,4.2484,4.2057,4.1886,4.1555,4.0601,4.0199,3.9973,3.9396,3.8944,3.8642,3.8642,3.7939,3.7089,3.6554,3.5404,3.4141,3.3051,3.1841,3.097,3.1046,3.0398,2.9974,3.0788,3.06,2.9919,2.8826,2.8162,2.7987,2.8404,2.8229,0.0,2.8556,2.8382,2.8027,2.7551,2.6475,2.5745,2.5432,2.47,2.4364,2.4522,2.4077,2.3765,2.377,2.2837,2.1773,2.0636,1.9635,1.8807,0.0,0.0,0.0,0.0,0.0,0.0,0.0,0.0,0.0,0.0,0.0,0.0,0.0,0.0,0.0,0.0,0.0,0.0,0.0,0.0,0.0,0.0,3.4977,3.7964,3.9396,4.1957,4.389,4.4443,4.5296,4.5698,4.5372,4.4819,4.4869,4.5773,4.5522,4.5472,4.5824,4.5522,4.5497,4.5824,4.605,4.6577,4.7456,4.8234,4.8611,4.8611,4.8611,4.8611,4.8611,4.8611,4.8184,0.0,4.7456,4.7029,4.6301,4.6301,4.6301,0.0,0.0,0.0,0.0,0.0,4.3263,4.2992,4.2665,4.2414,4.2112,4.1404,4.0877,4.04,3.9848,3.9145,3.8467,3.8216,3.7362,3.6416,3.6111,3.5066,3.3857,3.3304,3.2398,3.1746,3.1951,3.1653,3.1567,3.2371,0.0,0.0,3.1731,3.074,3.0079,3.0331,2.9942,2.9781,2.9988,2.9804,2.951,2.897,2.7874,2.6926,2.6343,2.5465,0.0,0.0,0.0,2.4249,2.3968,2.3094,0.0,0.0,0.0,0.0,0.0,0.0,0.0,0.0,1.7679,1.7961,0.0,0.0,0.0,0.0,0.0,0.0,0.0,0.0,0.0,0.0,0.0,0.0,0.0,0.0,0.0,0.0,3.7437,4.0201,4.271,4.4066,4.4995,4.5522,4.6024,4.6326,4.6401,4.5899,4.5824,4.6451,4.6426,4.6401,4.6401,0.0,0.0,0.0,0.0,4.7405,4.8008,4.9063,4.959,4.959,4.959,4.959,4.959,4.959,4.8987,4.7908,4.7908,4.7305,4.6301,4.6301,4.6301,4.625,4.5698,4.5121,4.4493,4.3463,4.3037,0.0,0.0,0.0,0.0,4.2238,4.1505,4.0601,3.9973,3.8994,3.799,3.7437,3.6483,3.5615,3.5641,3.4727,3.3766,3.3822,3.3242,3.2728,3.2817,3.2911,3.3146,3.3679,3.395,3.4248,3.4726,3.3214,3.194,3.194,3.1513,3.1181,3.1181,3.1181,3.0958,3.0487,0.0,0.0,2.7635,2.6454,2.5922,2.6222,2.5438,2.4695,2.4123,2.3521,2.297,2.2523,2.2498,2.2347,2.2074,2.3025,2.3296,2.2924,2.1597,2.127,0.0,0.0,0.0,0.0,0.0,0.0,0.0,0.0,0.0,0.0,0.0,0.0,0.0,0.0,0.0,3.6935,3.9697,4.2062,4.3438,4.4995,4.6024,4.6125,4.625,4.6476,4.6928,4.6476,4.6552,4.7531,4.7205,4.6979,4.6979,4.6552,4.6527,4.6954,4.7079,4.7606,4.8611,4.9264,4.959,4.959,0.0,0.0,4.959,4.959,4.8987,4.7908,4.7908,4.7305,4.6301,4.6301,4.6301,4.625,4.5698,4.5121,4.4543,4.389,4.3363,4.2986,4.2986,4.2911,4.2735,4.2363,4.2062,4.1656,4.0651,3.9597,0.0,3.8015,3.7061,3.6185,3.5978,3.5745,3.5477,3.5228,3.5135,3.5047,3.503,3.4847,3.4749,3.4876,3.5073,3.5207,3.5332,3.4325,3.3474,3.3474,3.3027,3.2655,3.2655,3.2655,3.2481,3.2025,3.1151,3.0337,2.9473,2.8181,2.7332,2.7007,2.6036,2.5232,2.4675,2.413,2.3778,2.3678,2.3678,2.428,2.5519,2.5745,2.6214,2.6917,2.3973,2.2975,0.0,0.0,0.0,0.0,0.0,0.0,0.0,0.0,0.0,0.0,0.0,3.1361,3.3847,0.0,3.7086,3.932,4.1304,4.2961,4.4066,4.5422,4.6301,4.6301,4.6301,4.6527,4.7079,4.6878,4.7054,4.7857,4.7933,4.7832,4.7531,4.7531,4.7531,4.7531,4.7807,4.8209,4.8761,4.9314,4.959,4.959,4.959,4.959,4.959,4.959,4.9138,4.8309,4.8033,4.7456,4.6702,4.6426,4.6301,4.6276,4.5999,4.5547,4.4945,4.4116,4.3639,4.3338,4.3062,4.2986,4.2992,4.2715,4.2439,4.2062,4.1178,3.9973,3.8743,3.8165,3.7211,3.6433,3.6566,3.6574,3.6652,3.6776,3.6847,3.6869,3.68,3.6505,3.6205,3.6196,3.6063,3.5956,3.5956,3.5278,3.4625,3.4349,3.3847,3.3395,3.3119,3.3111,3.2939,3.2593,3.1977,3.1253,3.0466,2.93,2.8285,2.764,2.7306,2.6678,2.5686,2.5385,2.4958,2.4431,2.4958,2.5669,2.6499,2.7052,2.757,2.8072,2.6389,2.5787,0.0,0.0,0.0,0.0,0.0,0.0,0.0,2.9001,2.9955,3.1964,3.3244,3.4776,3.7236,3.8115,3.9145,4.1178,4.2409,4.3489,4.4493,4.5598,4.6276,4.6175,4.625,4.6577,4.723,4.728,4.7556,4.8184,4.8661,4.8736,4.8259,4.8686,4.8711,4.8259,4.8686,4.8937,4.8937,4.9364,4.959,4.959,4.959,4.959,4.959,4.959,4.9289,4.8736,4.8058,4.7531,4.7043,4.6552,4.6301,4.6301,4.6301,4.605,4.5522,4.4493,4.3991,4.374,4.3288,4.3062,4.2986,4.2986,4.274,4.2263,4.1656,4.0501,3.922,3.8517,3.7613,3.6983,3.7262,3.7437,3.7613,3.8065,3.8241,3.8291,3.8191,3.7739,3.7312,3.7211,3.6782,3.6405,3.6405,3.6006,3.5433,3.4781,3.4248,3.3696,3.3144,3.3111,3.3025,3.281,3.2438,3.1956,3.1223,3.0257,2.9366,2.8572,2.8609,2.8088,2.6876,2.67,2.6248,2.531,2.6197,2.6826,2.7153,2.7996,2.8549,2.875,2.875,2.8524,2.3954,2.5862,2.8562,3.0306,3.1587,3.2608,0.0,3.3596,3.4349,3.5579,3.6709,3.7864,3.917,3.9873,4.0626,4.1856,4.2986,4.3915,4.4543,4.5598,4.6125,4.5648,4.6024,4.6702,4.7732,4.7832,4.8259,4.9314,4.9464,4.9464,4.9414,4.9464,4.9464,4.9414,4.9464,4.9515,4.9515,4.9565,4.959,4.959,4.959,4.959,4.959,4.959,4.9289,4.8711,4.7682,4.7179,4.7043,4.6552,4.6301,4.6301,4.6301,4.6276,4.615,4.5522,4.4669,4.379,4.374,4.3388,4.2986,4.2986,4.2936,4.2841,4.2288,4.1605,4.0852,3.9798,3.9069,3.8542,3.804,3.8291,3.8693,3.8818,3.9145,3.9371,3.8868,3.8316,3.7764,3.7287,3.6782,3.6405,3.6405,3.6355,3.5931,3.4876,3.4248,3.3696,3.3144,3.3111,3.3068,3.3068,3.3025,3.2757,3.2097,3.1514,3.0913,3.0338,2.9401,2.8587,2.7946,2.7444,2.7178,2.7017,2.7178,2.7921,2.9428,2.9553,3.0105,3.1009,3.1009,2.998,2.6816,2.9051,3.1813,3.3796,3.5629,3.6985,3.7211,3.7688,3.8316,3.9069,3.9898,4.0752,4.1882,4.2007,4.2308,4.3413,4.3991,4.4493,4.5045,4.5522,4.5623,4.5045,4.4895,4.5397,4.6828,4.728,4.7933,4.9038,4.9414,4.959,4.959,4.959,4.959,4.959,4.959,4.959,4.959,4.959,4.959,4.959,4.959,4.959,4.959,4.959,4.9289,4.8736,4.7933,4.7405,4.7043,4.6552,4.6301,4.6301,4.6301,4.6301,4.625,4.5698,4.5196,4.4694,4.4041,4.3639,4.3413,4.3087,4.2986,4.2936,4.271,4.2258,4.1731,4.1254,4.0501,3.9772,3.9521,3.9396,3.9346,3.9346,3.9521,3.9622,3.9396,3.8642,3.7939,3.7713,3.696,3.6405,3.6405,3.6405,3.6107,3.5282,3.4726,3.4173,3.3621,3.3269,3.3111,3.3111,3.3111,3.2842,3.2265,3.1712,3.116,3.0658,2.988,2.9176,2.8562,2.8373,2.8097,2.777,2.8072,2.875,2.9804,3.0105,3.0658,3.1386,3.1386,3.0884,2.9227,3.1637,3.4248,3.6355,3.8617,4.0325,4.0174,4.0701,4.1279,4.1505,4.1882,4.2489,4.3388,4.3237,4.3288,4.4242,4.4644,4.502,4.5422,4.5623,4.5447,4.4719,4.4267,4.4443,4.5522,4.6276,4.7129,4.8234,4.8962,4.9364,4.9364,4.9515,4.959,4.959,4.959,4.959,4.959,4.959,4.959,4.959,4.959,4.959,4.959,4.959,4.9389,4.8962,4.8385,4.7933,4.7531,4.6828,4.6552,4.6527,4.6376,4.6301,4.625,4.5849,4.5623,4.5372,4.4543,4.4066,4.374,4.3338,4.3112,4.2986,4.2986,4.2766,4.2414,4.2263,4.158,4.0902,4.0601,4.0224,3.9873,3.9722,3.9697,3.9697,3.9697,3.8944,3.8191,3.804,3.7236,3.6581,3.643,3.6405,3.6279,3.583,3.5303,3.4655,3.3997,3.342,3.3061,3.2842,3.2993,3.2893,3.2491,3.1938,3.1386,3.0859,3.0457,2.998,2.9389,2.949,2.9428,2.9026,2.9402,2.988,3.0457,3.0859,3.1336,3.1863,3.1863,3.1863,3.0733,3.337,3.5906,3.7538,4.0023,4.1986,4.1351,4.2133,4.276,4.2288,4.2213,4.2389,4.2886,4.2986,4.3162,4.374,4.4744,4.5472,4.5497,4.5949,4.5874,4.4744,4.4618,4.4418,4.3915,4.4895,4.5999,4.7043,4.8184,4.8786,4.8786,4.9314,4.959,4.959,4.959,4.959,4.959,4.959,4.959,4.959,4.959,4.959,4.959,4.959,4.959,4.954,4.8987,4.8736,4.8636,4.7556,4.7043,4.6993,4.6527,4.6301,4.6301,4.6301,4.5949,4.5472,4.5447,4.4719,4.379,4.379,4.3413,4.2986,4.2986,4.2961,4.2891,4.2363,4.2187,4.1911,4.0802,4.0501,4.035,3.9823,3.9697,3.9697,3.9697,3.9245,3.8668,3.8115,3.7538,3.6985,3.6505,3.6405,3.6405,3.638,3.5881,3.5082,3.4048,3.342,3.2867,3.229,3.2742,3.3111,3.3043,3.2516,3.1964,3.1411,3.1361,3.111,3.0583,3.106,3.1311,3.1286,3.1311,3.1587,3.2139,3.2164,3.2466,3.3061,3.3061,3.3061,3.2466,3.4801,3.7211,3.9622,4.148,4.2836,4.3388,4.3514,4.3363,4.2811,4.1831,4.1354,4.2313,4.2133,4.2434,4.4066,4.5296,4.6175,4.6527,4.6753,4.6451,4.5321,4.4844,4.4267,4.3338,4.4267,4.5372,4.6502,4.7581,4.836,4.8761,4.9289,4.959,4.959,4.959,4.959,4.959,4.959,4.959,4.959,4.959,4.959,4.959,4.959,4.959,4.9565,4.9012,4.8761,4.8686,4.7581,4.7068,4.7079,4.6527,4.6301,4.6301,4.6301,4.62,4.5974,4.5623,4.5246,4.4794,4.4041,4.3689,4.3463,4.3087,4.2986,4.2936,4.276,4.2489,4.2112,4.176,4.1053,4.0475,4.0275,3.9948,3.9697,3.9697,3.927,3.8869,3.8617,3.7814,3.7136,3.6935,3.6656,3.6405,3.6405,3.5579,3.4726,3.3997,3.342,3.2993,3.2817,3.2968,3.3111,3.3111,3.2215,3.1587,3.1411,3.106,3.0809,3.0633,3.111,3.1386,3.1386,3.1386,3.1662,3.2215,3.2215,3.2516,3.3111,3.3111,3.3111,3.4474,3.6835,3.9145,4.1128,4.276,4.3966,4.4267,4.4066,4.3539,4.2585,4.0902,3.9948,4.1131,4.0978,4.148,4.3689,4.5146,4.6276,4.7029,4.7068,4.6878,4.615,4.5573,4.4869,4.3966,4.4141,4.4719,4.5648,4.6728,4.7657,4.8435,4.9188,4.959,4.959,4.959,4.959,4.959,4.959,4.959,4.959,4.959,4.959,4.959,4.959,4.959,4.9565,4.9213,4.9063,4.8987,4.7883,4.7405,4.733,4.6602,4.6301,4.6301,4.6301,4.6301,4.625,4.5899,4.5648,4.5321,4.4392,4.3966,4.3689,4.3137,4.2986,4.2986,4.2986,4.2766,4.2464,4.2263,4.148,4.0752,4.0576,4.0099,3.9697,3.9697,3.9421,3.912,3.8969,3.8341,3.7663,3.7262,3.6782,3.6405,3.6405,3.5604,3.4705,3.3997,3.3596,3.3219,3.2817,3.2767,3.2767,3.2767,3.1913,3.1311,3.1135,3.116,3.111,3.0909,3.1587,3.1989,3.1989,3.1989,3.2164,3.2516,3.2516,3.2717,3.3111,3.3111,3.3111,3.6784,3.9396,4.1605,4.2238,4.389,4.5171,4.4091,4.379,4.3288,4.1551,3.9446,3.8216,3.932,3.9496,4.0224,4.2484,4.4317,4.5824,4.6928,4.7093,4.7205,4.7118,4.6728,4.62,4.5623,4.4568,4.4166,4.4719,0.0,4.6778,4.7857,4.8987,4.959,4.959,4.959,4.959,4.959,4.959,4.959,4.959,4.959,4.959,4.959,4.959,4.959,4.959,4.959,4.959,4.9515,4.8385,4.7908,4.7807,4.6728,4.6301,4.6301,4.6301,4.6301,4.6301,4.6301,4.5974,4.5422,4.4844,4.4317,4.379,4.3187,4.3011,4.3011,4.2986,4.2986,4.2861,4.2389,4.1781,4.12,4.0701,4.0149,3.9722,3.9697,3.9697,3.9546,3.907,3.8944,3.8567,3.7387,3.6807,3.643,3.6405,3.5906,3.5132,3.4073,3.3922,3.347,3.2365,3.2265,3.2265,3.2265,3.1763,3.121,3.0733,3.1662,3.1964,3.1461,3.2491,3.3111,3.3111,3.3111,3.3111,3.3111,3.3111,3.3111,3.3111,3.3111,3.3111,3.9672,4.1706,4.3413,4.4392,4.4744,4.4769,4.4468,4.379,4.261,4.0526,3.8015,3.6383,3.7086,3.6885,3.7539,4.0651,4.3212,4.5246,4.6376,4.7581,4.8184,4.7757,4.7958,4.7757,4.6803,4.6075,4.5899,4.6451,4.6376,4.6778,4.7857,4.8987,4.959,4.959,4.959,4.959,4.959,4.959,4.959,4.959,4.959,4.959,4.959,4.959,4.959,4.959,4.959,4.959,4.9515,4.8385,4.7908,4.7807,4.6728,4.6301,4.6301,4.6301,4.6301,4.6301,4.6301,4.6225,4.5999,4.5447,4.5171,4.4869,4.389,4.3589,4.3514,4.3087,4.2986,4.2936,4.2811,4.2414,4.1806,4.1254,4.0701,4.0199,3.9798,3.9697,3.9647,3.9521,3.9145,3.8567,3.7387,3.7061,3.6835,3.648,3.6279,3.5755,3.465,3.4148,3.3646,3.2918,3.2867,3.2867,3.2867,3.234,3.1938,3.1813,3.2064,3.2139,3.2014,3.2692,3.3111,3.3111,3.3111,3.3111,3.3111,3.3111,3.3111,3.3111,3.3111,3.3111,4.158,4.3263,4.4644,4.502,4.4869,4.4443,4.3714,4.2308,4.0551,3.8341,3.5433,3.3621,3.4399,3.45,3.5554,3.8868,4.1932,4.4392,4.5748,4.7154,4.8008,4.7908,4.8184,4.8159,4.7531,4.7004,4.6903,4.7431,4.6979,4.7129,4.8234,4.9113,4.959,4.959,4.959,4.959,4.959,4.959,4.959,4.959,4.959,4.959,4.959,4.959,4.959,4.959,0.0,4.959,4.9515,4.8661,4.8284,4.8184,4.7104,4.6677,4.6652,4.6401,4.6301,4.6301,4.6301,4.6301,4.6225,4.5673,4.5497,4.5271,4.4141,4.379,4.3689,4.3137,4.2986,4.2986,4.2986,4.2615,4.2137,4.1781,4.1103,4.0425,4.0124,3.9873,3.9697,3.9697,3.9245,3.8718,3.804,3.7713,3.7437,3.7136,3.6885,3.6332,3.5182,3.46,3.3947,3.3169,3.2842,3.2692,3.2692,3.219,3.1863,3.1863,3.2089,3.2215,3.2215,3.2767,3.3111,3.3111,3.3111,3.3111,3.3111,3.3111,3.3111,3.3111,3.3111,3.3111,4.3011,4.4418,4.5447,4.4895,4.4618,4.4041,4.2288,4.0176,3.7864,3.5433,3.2449,3.0608,3.1687,3.2365,3.3847,3.7236,4.0526,4.3237,4.492,4.61,4.7029,4.7631,4.7757,4.7857,4.8008,4.7682,4.7631,4.8109,4.7707,4.7832,4.8736,4.9289,4.959,4.959,4.959,4.959,4.959,4.959,4.959,4.959,4.959,4.959,4.959,4.959,4.959,4.959,0.0,0.0,4.9565,4.9012,4.8761,4.8661,4.7556,4.7068,4.7079,4.6527,4.6301,4.6301,4.6301,4.6301,4.6225,4.5748,4.5598,4.5397,4.4342,4.4041,4.389,4.3263,4.3087,4.3062,4.2986,4.2665,4.2313,4.2238,4.143,4.0701,4.0551,4.0074,3.9697,3.9697,3.9295,3.8994,3.8894,3.8467,3.809,3.8015,3.7538,3.6784,3.5633,3.5006,3.4299,3.3194,3.2616,3.2365,3.2441,3.1989,3.1763,3.1838,3.229,3.2541,3.2541,3.3018,3.3294,3.3294,3.3294,3.3294,3.3294,3.3294,3.3294,3.3294,3.3294,3.3294,4.4744,4.5598,4.6024,4.5472,4.4644,4.3263,4.0701,3.8417,3.5931,3.2767,3.0206,2.8875,3.0005,3.0658,3.2265,3.6078,3.9069,4.153,4.3187,4.4367,4.5447,4.6476,4.7004,4.7631,4.8535,4.8962,4.9213,4.9289,4.9213,4.9063,4.8786,4.9289,4.959,4.959,4.959,4.959,4.959,4.959,4.959,4.959,4.959,4.959,4.959,4.959,4.959,4.959,4.959,0.0,4.9565,4.9012,4.8761,4.8661,4.7556,4.7068,4.7079,4.6527,4.6301,4.6301,4.6301,4.6301,4.6301,4.62,4.6175,4.605,4.5397,4.5196,4.497,4.394,4.3664,4.3564,4.3087,4.2911,4.2766,4.2313,4.2062,4.1685,4.0701,4.0074,3.9697,3.9697,3.9622,3.9396,3.8994,3.8844,3.8567,3.809,3.7538,3.6784,3.5633,3.5006,3.4299,3.3194,3.2993,3.3119,3.3571,3.352,3.3671,3.4123,3.4179,3.4299,3.4299,3.4374,3.4424,3.4424,3.4424,3.4424,3.4424,3.4424,3.4424,3.4424,3.4424,3.4424,4.4895,4.5648,4.6024,4.4895,4.3564,4.1806,3.9019,3.6006,3.3093,3.0608,2.8122,2.6741,2.7846,2.875,3.0382,3.3671,3.701,3.9697,4.1078,4.271,4.4192,4.5296,4.62,4.7129,4.8209,4.9088,4.959,4.959,4.959,4.949,4.9213,4.9464,4.959,4.959,4.959,4.959,4.959,4.959,4.959,4.959,4.959,4.959,4.959,4.959,4.959,4.959,4.959,0.0,4.9565,4.9314,4.9213,4.9113,4.8309,4.7807,4.7481,4.6928,4.6552,4.6301,4.6301,4.6301,4.6301,4.6301,4.6301,4.62,4.5648,4.5497,4.5246,4.4116,4.379,4.3689,4.3112,4.2986,4.2911,4.2715,4.2414,4.1911,4.0752,4.03,4.0049,3.9747,3.9697,3.9622,3.9346,3.9295,3.9195,3.8919,3.8417,3.7663,3.6533,3.5906,3.4926,3.3287,3.3345,3.3621,3.3872,3.4173,3.4449,3.4655,3.468,3.468,3.468,3.468,3.468,3.468,3.468,3.468,3.468,3.468,3.468,3.468,3.468,3.468,4.4744,4.5547,4.5899,4.4217,4.2459,4.0322,3.7337,3.3646,3.0357,2.8537,2.618,2.4775,2.5946,2.6917,2.8524,3.1411,3.4826,3.7638,3.912,4.1028,4.2811,4.4267,4.5347,4.6451,4.7782,4.8937,4.959,4.959,4.959,4.959,4.959,4.959,4.959,4.959,4.959,4.959,4.959,4.959,4.959,4.959,4.959,4.959,4.959,4.959,4.959,4.959,4.959,0.0,0.0,4.959,4.959,4.954,4.8987,4.841,4.7857,4.733,4.6778,4.6301,4.6301,4.6301,4.6301,4.6301,4.6301,4.6225,4.5799,4.5673,4.5422,4.4292,4.3966,4.3815,4.3162,4.2986,4.2986,4.2986,4.2615,4.1961,4.1053,4.0676,4.04,3.9948,3.9772,3.9697,3.9697,3.9697,3.9697,3.9697,3.922,3.8517,3.7487,3.6832,3.5651,3.3646,3.3822,3.4073,3.4073,3.4575,3.4951,3.5077,3.5077,3.5077,3.5077,3.5077,3.5077,3.5077,3.5077,3.5077,3.5077,3.5077,3.5077,3.5077,3.5077,3.5077,4.5121,4.5849,4.5899,4.4217,4.2183,3.9597,3.5805,3.1897,2.8524,2.6364,2.4474,2.3597,2.4725,2.5435,2.6917,3.0231,3.2742,3.5203,3.7789,3.922,4.0953,4.3564,4.4418,4.5598,4.7707,4.8937,4.959,4.959,4.959,0.0,4.959,4.959,4.959,4.959,4.959,4.959,4.959,4.959,4.959,4.959,4.959,4.959,4.959,4.959,4.959,4.959,4.959,0.0,0.0,4.959,4.959,4.954,4.8987,4.841,4.7857,4.733,4.6778,4.6301,4.6301,4.6301,4.6301,4.6301,4.6301,4.6301,4.625,4.6225,4.5999,4.4869,4.4543,4.4292,4.3263,4.2986,4.2986,4.2986,4.2615,4.2187,4.2087,4.1229,4.0501,4.045,4.0049,3.9697,3.9697,3.9697,3.9697,3.9697,3.922,3.8642,3.8015,3.701,3.5952,3.47,3.4625,3.465,3.465,3.5107,3.568,3.6229,3.6254,3.6254,3.6254,3.6254,3.6254,3.6254,3.6254,3.6254,3.6254,3.6254,3.6254,3.6254,3.6254,3.6254,4.3664,4.4869,4.5246,4.2911,4.0902,3.8517,3.4625,3.0733,2.7494,2.5912,2.428,2.3346,2.418,2.4757,2.5887,2.8222,3.0482,3.2767,3.5203,3.7061,3.9094,4.153,4.261,4.3865,4.5748,4.7255,4.8535,4.9515,4.959,0.0,4.959,4.959,4.959,4.959,4.959,4.959,4.959,4.959,4.959,4.959,4.959,4.959,4.959,4.959,4.959,4.959,4.959,0.0,0.0,4.959,4.959,4.9565,4.9364,4.8711,4.7883,4.7682,4.7054,4.6301,4.6301,4.6301,4.6301,4.6301,4.6301,4.6301,4.6301,4.6301,4.6075,4.4945,4.4618,4.4367,4.3263,4.2986,4.2986,4.2986,4.2811,4.2615,4.2288,4.1861,4.1304,4.0651,4.035,4.0074,3.9747,3.9697,3.9697,3.9697,3.9496,3.917,3.8592,3.7839,3.6935,3.583,3.5127,3.468,3.468,3.5182,3.578,3.638,3.6405,3.6405,3.6405,3.6405,3.6405,3.6405,3.6405,3.6405,3.6405,3.6405,3.6405,3.6405,3.6405,3.6405,4.2108,4.3714,4.4392,4.1902,3.9848,3.7387,3.3671,2.9829,2.6751,2.5611,2.4148,2.3221,2.3678,2.4023,2.4775,2.6314,2.8273,3.0407,3.2616,3.4977,3.7287,3.9521,4.0752,4.2133,4.3966,4.5949,4.7832,4.9464,4.959,0.0,4.959,4.959,4.959,4.959,4.959,4.959,4.959,4.959,4.959,4.959,4.959,4.959,4.959,4.959,4.959,4.959,0.0,0.0,0.0,4.959,4.959,4.9565,4.9414,4.8761,4.7883,4.7732,4.7104,4.6301,4.6301,4.6301,4.6301,4.6301,4.6301,4.6301,4.6301,4.6301,4.61,4.5146,4.4644,4.4192,4.3413,4.3112,4.2986,4.2986,4.2986,4.2861,4.2539,4.2313,4.1986,4.1153,4.0877,4.0651,4.0249,4.0049,3.9948,3.9948,3.9798,3.9546,3.917,3.8617,3.7839,3.6782,3.578,3.5152,3.4931,3.5479,3.6031,3.6631,3.6505,3.648,3.6656,3.6505,3.6405,3.6405,3.6405,3.6405,3.6405,3.6405,3.6405,3.6405,3.6405,3.6405,4.0699,4.2559,4.3413,4.1702,3.9245,3.6332,3.2968,2.9227,2.6197,2.5059,2.3898,2.3095,2.312,2.312,2.3496,2.4625,2.6239,2.8097,3.0331,3.3018,3.5554,3.7764,3.9019,4.0576,4.2785,4.5497,4.7832,4.9464,4.959,0.0,4.959,4.959,4.959,4.959,4.959,4.959,4.959,4.959,4.959,4.959,4.959,4.959,4.959,4.959,4.959,0.0,0.0,0.0,0.0,4.959,4.959,4.954,4.8987,4.8435,4.7857,4.733,4.6803,4.6301,4.6301,4.6301,4.6301,4.6301,4.6301,4.6301,4.6301,4.6301,4.62,4.5623,4.4669,4.3815,4.379,4.3388,4.2986,4.2986,4.2986,4.2986,4.2961,4.259,4.2213,4.2187,4.1706,4.1275,4.1275,4.0824,4.0501,4.0501,4.0049,3.9697,3.9697,3.9195,3.8417,3.7287,3.6709,3.6157,3.5533,3.6031,3.6631,3.7136,3.6707,3.6656,3.7161,3.6707,3.6405,3.6405,3.6405,3.6405,3.6405,3.6405,3.6405,3.6405,3.6405,3.6405,3.7362,3.917,3.9948,3.784,3.6157,3.4073,3.0693,2.7846,2.5594,2.4608,2.3867,2.345,2.345,2.345,2.3806,2.4957,2.5924,2.765,3.0778,3.3415,3.6051,3.8755,4.1312,4.3307,4.4509,4.6341,4.8055,4.9464,0.0,0.0,5.0295,5.027,5.0104,4.959,4.959,4.959,4.959,4.959,4.959,4.959,4.959,4.959,4.959,4.959,0.0,0.0,0.0,0.0,0.0,4.959,4.9364,4.9012,4.8837,4.8209,4.7355,4.7143,4.6778,4.6301,4.6301,4.6301,4.6301,4.6301,4.6301,4.6301,4.6301,4.6301,4.62,4.5648,4.4669,4.379,4.379,4.3388,4.2986,4.2986,4.2986,4.2986,4.2986,4.2891,4.2665,4.2288,4.2062,4.1781,4.1351,4.115,4.0899,4.0576,4.0375,4.0124,3.9747,3.922,3.8567,3.7839,3.7262,3.6709,3.6157,3.6304,3.6807,3.7688,3.7588,3.7387,3.7186,3.701,3.6782,3.6405,3.6405,3.6405,3.6405,3.6405,3.6405,3.6405,3.6405,3.6405,3.3746,3.573,3.6558,3.4751,3.347,3.1888,2.8976,2.6741,2.5124,2.4405,2.4073,2.3839,2.3839,2.3839,2.4179,2.5086,2.5979,2.7673,3.0935,3.4273,3.7799,4.1516,4.3904,4.552,4.6238,4.7357,4.84,4.9529,0.0,0.0,5.1131,5.1131,5.0942,5.0563,5.0014,4.9719,4.959,4.959,4.959,4.959,4.959,4.959,4.959,4.959,0.0,0.0,0.0,0.0,0.0,4.9364,4.9088,4.8736,4.8309,4.7732,4.7043,4.6842,4.6602,4.6301,4.6301,4.6301,4.6301,4.6301,4.6301,4.6301,4.6301,4.6301,4.6225,4.5899,4.5146,4.4443,4.4443,4.3865,4.3288,4.3288,4.3137,4.2986,4.2986,4.2986,4.2886,4.259,4.2514,4.2359,4.2007,4.1781,4.153,4.1178,4.0953,4.0626,4.0074,3.9697,3.912,3.8115,3.7688,3.7262,3.6757,3.6732,3.7136,3.8266,3.814,3.7939,3.7814,3.7613,3.7337,3.6985,3.6985,3.6985,3.6985,3.6985,3.6985,3.6985,3.6985,3.6985,0.0,3.2215,3.3294,3.224,3.116,2.9829,2.7681,2.5946,0.0,2.4464,2.438,2.4366,2.4366,2.4419,2.463,2.5326,2.6481,2.8302,3.1167,3.5848,4.0768,4.5621,4.6676,4.7349,4.7977,4.8524,4.909,0.0,0.0,0.0,5.2112,5.2227,5.2227,5.2174,5.0942,5.0104,4.959,4.959,4.959,4.959,4.959,4.959,4.959,4.959,0.0,0.0,0.0,0.0,0.0,4.8912,4.8686,4.856,4.7531,4.7043,4.7004,4.6502,4.6301,4.6301,4.6301,4.6301,4.6301,4.6301,4.6301,4.6301,4.6301,4.6301,4.6301,4.6301,4.5924,4.5497,4.5497,4.4644,4.379,4.379,4.3388,4.2986,4.2986,4.2986,4.2986,4.2986,4.2986,4.2986,4.2986,4.2615,4.2263,4.2213,4.1731,4.115,4.0651,4.0551,3.9898,3.8291,3.809,3.7864,3.7337,3.7262,3.7713,3.8844,3.8391,3.8341,3.8894,3.8341,3.804,3.8015,3.8015,3.8015,3.8015,3.8015,3.8015,3.8015,3.8015,3.8015,2.6013,0.0,2.9991,2.974,2.8875,2.7731,0.0,2.5318,2.45,2.4475,2.4759,2.5021,2.5133,2.543,2.6081,2.7297,2.8474,3.0587,3.4491,4.0392,4.5531,4.8688,4.9949,5.0545,5.0479,5.1035,5.1266,0.0,0.0,5.278,5.3483,5.3812,5.3812,5.3544,5.2719,5.1445,4.959,4.959,4.959,4.959,4.959,4.959,4.959,4.959,0.0,0.0,0.0,0.0,4.8284,4.8159,4.7883,4.7481,4.7168,4.6878,4.6502,4.6351,4.6301,4.6301,4.6301,4.6301,4.6301,4.6301,4.6301,4.6301,4.6301,4.6301,4.6301,4.6301,4.5924,4.5497,4.5497,4.4644,4.379,4.379,4.3388,4.2986,4.2986,4.2986,4.2986,4.2986,4.2986,4.2986,4.2986,4.2861,4.269,4.2263,4.2112,4.1756,4.1204,4.0724,4.0199,3.9396,3.8919,3.8617,3.8542,3.8065,3.8115,3.8818,3.9145,3.917,3.8919,3.8743,3.8467,3.8015,3.8015,3.8015,3.8015,3.8015,3.8015,3.8015,3.8015,3.8015,2.4575,2.6088,2.7394,2.7394,2.6766,2.6005,2.5351,2.4767,2.4439,2.4734,2.5356,2.5908,2.6299,2.6807,2.7707,2.9377,3.1193,3.4561,4.0855,4.5639,4.9647,5.2858,5.3569,5.3794,0.0,5.3849,0.0,0.0,0.0,5.4442,5.518,5.547,5.547,5.5239,5.4592,5.3059,5.0525,5.0525,5.0525,5.0525,5.0525,5.0525,5.0525,5.0205,4.9924,0.0,0.0,0.0,4.8748,4.8493,4.8212,4.793,4.7675,4.7453,4.7197,4.7197,4.7197,4.7197,4.7197,4.7197,4.7197,4.7197,4.7197,4.7197,4.7197,4.7197,4.7078,4.6481,4.61,4.5874,4.5874,4.5221,4.4568,4.4568,4.394,4.3363,4.3363,4.3162,4.2986,4.2986,4.2986,4.2986,4.2986,4.2986,4.2886,4.264,4.259,4.2333,4.1781,4.1455,4.0852,3.9798,3.9421,3.9044,3.8517,3.8442,3.8642,3.922,3.9521,3.9572,3.927,3.9245,3.9094,3.8793,3.8793,3.8793,3.8793,3.8793,3.8793,3.8793,3.8793,3.8793,2.4474,2.5209,2.5636,2.5845,2.5577,2.5221,2.5121,2.5048,2.5161,2.5712,2.6466,2.7182,2.7786,2.8451,2.9609,3.1758,3.4767,3.9539,4.7461,5.0182,5.2785,5.6645,5.6621,0.0,5.679,0.0,0.0,0.0,0.0,5.6021,5.6792,5.6963,5.6963,5.6849,5.6194,5.4689,5.2183,5.1998,5.1821,5.1742,5.1742,5.1742,5.1716,5.118,5.0891,0.0,0.0,0.0,4.9917,4.9416,4.9291,4.9238,4.8737,4.8611,4.8611,4.8611,4.8611,4.8611,4.8611,4.8611,4.8611,4.8611,4.8611,4.8611,4.8611,4.8611,4.8379,4.7265,4.6755,4.6481,4.6481,4.6018,4.5531,4.5497,4.4618,4.379,4.379,4.3363,4.2986,4.2986,4.2986,4.2986,4.2986,4.2986,4.2986,4.2986,4.2986,4.2866,4.2389,4.2263,4.1634,4.0099,3.9873,3.9396,3.8341,3.8718,3.922,3.9798,3.9747,3.9697,3.9697,3.9697,3.9697,3.9697,3.9697,3.9697,3.9697,3.9697,3.9697,3.9697,3.9697,3.9697,2.4474,2.5209,2.5845,2.7009,2.7385,2.7559,2.8165,2.8249,2.8281,2.8532,2.9002,2.9431,2.9661,3.0573,3.2183,3.4872,3.995,4.5042,4.9329,5.1139,5.3294,5.6705,0.0,5.6888,5.7465,0.0,0.0,0.0,0.0,5.7162,5.7555,5.7863,5.7863,5.7555,5.6696,5.5791,5.4797,5.3699,5.2838,5.226,5.226,5.226,5.226,5.2178,5.1908,0.0,0.0,5.1035,5.0542,5.046,5.0405,5.0405,5.0379,5.0324,5.0324,5.0324,5.0324,5.0324,5.0324,5.0324,5.0324,5.0324,5.0324,5.0324,5.0324,5.0324,5.0296,5.0101,4.882,4.7409,4.7146,4.6442,4.5767,4.5531,4.4618,4.379,4.379,4.3363,4.2986,4.2986,4.2986,4.2986,4.2986,4.2986,4.2986,4.2986,4.2986,4.2936,4.2861,4.2489,4.1936,4.1153,4.0676,4.0124,3.9496,3.9521,3.9798,4.035,3.9948,3.9697,3.9697,3.9697,3.9697,3.9697,3.9697,3.9697,3.9697,3.9697,3.9697,3.9697,3.9697,3.9697,2.4504,2.5442,2.6528,2.8072,2.8943,2.9671,3.0702,3.1422,3.185,3.1724,3.1778,3.1961,3.2407,3.3505,3.5937,4.0769,4.481,4.8387,5.1409,5.2665,5.4221,5.6795,0.0,5.7315,0.0,0.0,0.0,0.0,0.0,0.0,5.7912,0.0,5.7897,5.7404,5.6947,5.6407,5.584,5.5242,5.4421,5.3472,5.3472,5.3472,5.3444,5.3108,5.2883,5.2574,0.0,5.201,5.1729,5.1729,5.1729,5.1729,5.1729,5.1729,5.1729,5.1729,5.1729,5.1729,5.1729,5.1729,5.1729,5.1729,5.1729,5.1729,5.1729,5.1729,5.1729,5.1729,5.035,4.8731,4.8094,4.7412,4.6729,4.6103,4.5296,4.4719,4.4719,4.4041,4.3413,4.3413,4.3187,4.2986,4.2986,4.2986,4.2986,4.2986,4.2986,4.2986,4.2986,4.276,4.2283,4.1376,4.1379,4.1053,4.0224,4.04,4.0576,4.0526,4.0551,4.0576,4.0576,4.0576,4.0576,4.0576,4.0576,4.0576,4.0576,4.0576,4.0576,4.0576,4.0576,4.0576,2.4693,2.5686,2.694,2.8936,3.0315,3.1514,3.3004,3.4383,3.5302,3.4898,3.4874,3.4981,3.5372,3.6866,3.9948,4.5633,4.8207,5.0421,5.3054,5.3892,5.494,5.6855,5.7094,5.7633,0.0,0.0,0.0,0.0,0.0,0.0,5.8141,0.0,5.7633,5.7124,5.6944,5.6645,5.6218,5.6017,5.5493,5.4598,5.4598,5.4598,5.4569,5.4108,5.3877,5.3848,5.341,5.3208,5.3208,5.3208,5.3208,5.3208,5.3208,5.3208,5.3208,5.3208,5.3208,5.3208,5.3208,5.3208,5.3208,5.3208,5.3208,5.3208,5.3208,5.3208,5.3208,5.3208,5.2082,5.0629,4.9278,4.8526,4.7854,4.6934,4.6349,4.5943,4.5943,4.5055,4.4244,4.4244,4.3756,4.3265,4.3209,4.3209,4.3209,4.3209,4.3209,4.3209,4.3209,4.3209,4.2831,4.1793,4.2178,4.2081,4.1094,4.1417,4.1515,4.114,4.1232,4.1275,4.1275,4.1275,4.1275,4.1275,4.1275,4.1275,4.1275,4.1275,4.1275,4.1275,4.1275,4.1275,2.5288,2.5799,2.6722,2.9497,3.1301,3.2925,3.5066,3.6961,3.8209,3.7955,3.8495,3.8811,3.8212,4.0726,4.3838,4.677,4.8895,5.1063,5.3773,5.4192,5.494,5.6855,5.7094,0.0,0.0,0.0,0.0,0.0,0.0,0.0,0.0,0.0,0.0,5.7094,5.6526,5.6226,5.6218,5.5568,5.5218,5.5126,5.5126,5.5126,5.5126,5.5117,5.5087,5.5087,5.5057,5.5027,5.5027,5.5027,5.5027,5.5027,5.5027,5.5027,5.5027,5.5027,5.5027,5.5027,5.5027,5.5027,5.5027,5.5027,5.5027,5.5027,5.5027,5.5027,5.5027,5.5027,5.4539,5.3442,5.0934,4.9843,4.9129,4.8289,4.7612,4.7169,4.7169,4.6282,4.5474,4.5474,4.4785,4.4148,4.3899,4.3844,4.3844,4.3844,4.3844,4.3844,4.3844,4.3844,4.3614,4.2974,4.3218,4.3146,4.2526,4.2725,4.2843,4.2846,4.185,4.1275,4.1275,4.1275,4.1275,4.1275,4.1275,4.1275,4.1275,4.1275,4.1275,4.1275,4.1275,4.1275,2.5685,2.6273,2.7342,2.9884,3.1894,3.3991,3.6823,3.9597,4.1653,4.1927,4.2572,4.2731,4.1654,4.3509,4.5933,4.8177,5.0182,5.2247,5.4491,5.482,5.5388,5.6915,5.7094,0.0,0.0,0.0,0.0,0.0,0.0,0.0,0.0,0.0,0.0,5.5927,5.5688,5.5568,5.5568,5.5329,5.5179,5.5179,5.5179,5.5179,5.5179,5.5179,5.5179,5.5179,5.5179,5.5179,5.5179,5.5179,5.5179,5.5179,5.5179,5.5179,5.5179,5.5179,5.5179,5.5179,5.5179,5.5179,5.5179,5.5179,5.5179,5.5179,5.5179,5.5179,5.5179,5.5179,5.4926,5.423,5.2459,5.1565,5.0906,4.9987,4.9572,4.9409,4.9409,4.8815,4.8246,4.8246,4.7405,4.6485,4.5852,4.5794,4.5794,4.5767,4.5794,4.5794,4.5767,4.548,4.4981,4.4301,4.4836,4.5144,4.4941,4.4519,4.4248,4.4274,4.3416,4.2961,4.3179,4.3342,4.3342,4.3179,4.2961,4.2932,4.2932,4.2932,4.2961,4.3179,4.3342,4.3424,2.6833,2.7248,2.8216,3.0602,3.2752,3.5174,3.8649,4.1614,4.3928,4.4766,4.5454,4.5603,4.4456,4.5723,4.7519,4.9284,5.105,5.2905,5.491,5.5179,5.5598,5.6675,0.0,0.0,0.0,0.0,0.0,0.0,0.0,0.0,0.0,0.0,0.0,0.0,5.5179,5.5179,5.5179,5.5179,5.5179,5.5179,5.5179,5.5179,5.5179,5.5179,5.5179,5.5179,5.5179,5.5179,5.5179,5.5179,5.5179,5.5179,5.5179,5.5179,5.5179,5.5179,5.5179,5.5179,5.5179,5.5179,5.5179,5.5179,5.5179,5.5179,5.5179,5.5179,5.5179,5.5179,5.5057,5.4722,5.3912,5.315,5.2323,5.1537,5.1291,5.1291,5.1291,5.087,5.0477,5.0477,4.9521,4.8489,4.7646,4.7563,4.7645,4.7481,4.7563,4.7645,4.7481,4.7054,4.6518,4.6033,4.6661,4.7035,4.6864,4.6057,4.5608,4.5741,4.5181,4.483,4.4804,4.5208,4.5262,4.4912,4.4505,4.4232,4.4258,4.4232,4.445,4.4804,4.5262,4.5475,2.8791,2.8764,2.9265,3.1898,3.4053,3.6567,4.0516,4.294,4.4736,4.607,4.689,4.716,4.6429,4.7429,4.8745,4.9986,5.1349,5.2905,5.491,5.5179,5.5448,5.6107,0.0,0.0,0.0,0.0,0.0,0.0,0.0,0.0,0.0,0.0,0.0,0.0,5.5179,5.5179,5.5179,5.5179,5.5179,5.5179,5.5179,5.5179,5.5179,5.5179,5.5179,5.5179,5.5179,5.5179,5.5179,5.5179,5.5179,5.5179,5.5179,5.5179,5.5179,5.5179,5.5179,5.5179,5.5179,5.5179,5.5179,5.5179,5.5179,5.5179,5.5179,5.5179,5.5179,5.5179,5.5179,5.5179,5.5179,5.4385,5.3366,5.2783,5.2623,5.2623,5.2623,5.2162,5.1757,5.1757,5.08,4.9774,4.8895,4.8974,4.9028,4.8787,4.8974,4.9028,4.8787,4.8425,4.8184,4.8055,4.8524,4.8624,4.8072,4.7308,4.6947,4.7205,4.6971,4.6556,4.5926,4.6709,4.6864,4.6319,4.5475,4.5021,4.5127,4.5021,4.5316,4.5926,4.6761,4.7094,2.9125,2.9937,3.1271,3.3963,3.6447,3.917,4.2671,4.4975,4.7309,5.0481,5.093,5.0391,4.9239,4.9763,5.0481,5.0823,5.2037,5.3443,5.497,5.5179,5.5448,0.0,0.0,0.0,0.0,0.0,0.0,0.0,0.0,0.0,0.0,0.0,0.0,0.0,5.5179,5.5179,5.5179,5.5179,5.5179,5.5179,5.5179,5.5179,5.5179,5.5179,5.5179,5.5179,5.5179,5.5179,5.5179,5.5179,5.5179,5.5179,5.5179,5.5179,5.5179,5.5179,5.5179,5.5179,5.5179,5.5179,5.5179,5.5179,5.5179,5.5179,5.5179,5.5179,5.5179,5.5179,5.5179,5.5179,5.5179,5.4976,5.4641,5.4487,5.4436,5.4436,5.4436,5.4288,5.4141,5.4141,5.3554,5.2758,5.1889,5.1783,5.1811,5.1729,5.1783,5.1669,5.1189,5.0986,5.0875,5.0832,5.1473,5.1493,5.0484,4.9201,4.8546,4.8674,4.8148,4.7666,4.7383,4.7965,4.8016,4.7485,4.6712,4.6347,4.6583,4.6347,4.666,4.7383,4.8016,4.8318,3.0354,3.184,3.3783,3.6716,3.9409,4.2432,4.6531,4.8177,4.9673,5.2576,5.2875,5.2276,5.1199,5.1558,5.2007,5.2007,5.2905,5.3952,5.5029,5.5179,0.0,0.0,0.0,0.0,0.0,0.0,0.0,0.0,0.0,0.0,0.0,0.0,0.0,0.0,5.5179,5.5179,5.5179,5.5179,5.5179,5.5179,5.5179,5.5179,5.5179,5.5179,5.5179,5.5179,5.5179,5.5179,5.5179,5.5179,5.5179,5.5179,5.5179,5.5179,5.5179,5.5179,5.5179,5.5179,5.5179,5.5179,5.5179,5.5179,5.5179,5.5179,5.5179,5.5179,5.5179,5.5179,5.5179,5.5179,5.5179,5.5179,5.5179,5.5179,5.5179,5.5179,5.5179,5.5179,5.5179,5.5179,5.4824,5.4252,5.3495,5.3442,5.3495,5.3361,5.3337,5.3187,5.2733,5.2484,5.2326,5.2347,5.2832,5.2759,5.1668,5.0564,4.9872,4.9795,4.9214,4.8933,4.9092,4.9513,4.9513,4.9001,4.8195,4.7841,4.8021,4.7841,4.8094,4.8823,4.9464,4.9757,3.1958,3.4053,3.6477,3.9768,4.2701,4.6082,5.105,5.1738,5.1708,5.3084,5.3354,5.3174,5.2576,5.2965,5.3354,5.3354,5.3892,5.4491,5.5089,5.5179,0.0,0.0,0.0,0.0,0.0,0.0,0.0,0.0,0.0,0.0,0.0,0.0,0.0,5.5179,5.5179,5.5179,5.5179,5.5179,5.5179,0.0,5.5179,5.5179,5.5179,5.5179,5.5179,5.5179,5.5179,5.5179,5.5179,5.5179,5.5179,5.5179,5.5179,5.5179,5.5179,5.5179,5.5179,5.5179,5.5179,5.5179,5.5179,5.5179,5.5179,5.5179,5.5179,5.5179,5.5179,5.5179,5.5179,5.5179,5.5179,5.5179,5.5179,5.5179,5.5179,5.5179,5.5179,5.5179,5.5179,5.5179,5.5006,5.4671,5.4126,5.42,5.4304,5.4075,5.4023,5.3921,5.3588,5.3267,5.3082,5.305,5.3237,5.2987,5.2118,5.1532,5.1043,5.0755,5.0415,5.0434,5.1001,5.1118,5.0994,5.0548,4.9708,4.9288,4.9424,4.9288,4.9533,5.0076,5.087,5.1229,3.1839,3.4711,3.7793,4.1153,4.5136,4.8895,5.1588,5.2097,5.2516,5.4371,5.476,5.473,5.4581,5.467,5.476,5.476,5.488,5.5029,5.5179,5.5179,0.0,0.0,0.0,0.0,0.0,0.0,0.0,0.0,0.0,0.0,0.0,0.0,0.0,5.5179,5.5179,5.5179,5.5179,5.5179,5.5179,0.0,5.5179,5.5179,5.5179,5.5179,5.5179,5.5179,5.5179,5.5179,5.5179,5.5179,5.5179,5.5179,5.5179,5.5179,5.5179,5.5179,5.5179,5.5179,5.5179,5.5179,5.5179,5.5179,5.5179,5.5179,5.5179,5.5179,5.5179,5.5179,5.5179,5.5179,5.5179,5.5179,5.5179,5.5179,5.5179,5.5179,5.5179,5.5179,5.5179,5.5179,5.5128,5.5078,5.4926,5.4976,5.4976,5.4926,5.4926,5.4866,5.4848,5.4768,5.4708,5.469,5.476,5.4491,5.3734,5.3068,5.2711,5.264,5.2085,5.2025,5.2677,5.172,5.1058,5.0728,5.0124,4.9931,5.0231,4.9931,5.0124,5.065,5.1011,5.1229,3.2078,3.5609,3.9559,4.4477,4.7938,5.0541,5.1887,5.2187,5.2576,5.3952,5.4221,5.4221,5.4221,5.4221,5.4341,5.467,5.473,5.482,5.5149,0.0,0.0,0.0,0.0,0.0,0.0,0.0,0.0,0.0,0.0,0.0,0.0,5.5179,5.5179,5.5179,5.5179,5.5179,5.5179,5.5179,5.5179,5.5179,5.5179,5.5179,5.5179,5.5179,5.5179,5.5179,5.5179,5.4999,5.473,5.473,5.4521,5.4221,5.4221,5.4431,5.473,5.473,5.491,5.5179,5.5179,5.5179,5.5179,5.5179,5.5179,5.5179,5.5179,5.5179,5.5179,5.5179,5.5179,5.5179,5.5179,5.5179,5.5179,5.5179,5.5179,5.5179,5.5179,5.5179,5.5179,5.5179,5.5179,5.5179,5.5179,5.5179,5.5179,5.5179,5.5179,5.5179,5.5179,5.5179,5.5179,5.5179,5.5179,5.491,5.4281,5.3892,5.3533,5.3204,5.2845,5.2815,5.3174,5.2516,5.1959,5.1488,5.1202,5.1006,5.0805,5.0632,5.0728,5.1011,5.1105,5.1229,3.2108,3.6537,4.1564,4.7772,5.0152,5.1229,5.1887,5.2037,5.2187,5.2725,5.3025,5.3174,5.3174,5.3174,5.3414,5.4102,5.4221,5.4431,5.5089,0.0,0.0,0.0,0.0,0.0,0.0,0.0,0.0,0.0,0.0,0.0,5.5179,5.5179,5.5179,5.5179,5.5179,5.5179,5.5179,5.5179,5.5179,5.5179,5.5179,5.5179,5.5179,5.5179,5.5119,5.5029,5.5029,5.464,5.4042,5.4042,5.3683,5.3174,5.3174,5.3593,5.4221,5.4221,5.461,5.5179,5.5179,5.5179,5.5179,5.5179,5.5179,5.5179,5.5179,5.5179,5.5179,5.5179,5.5179,5.5179,5.5179,5.5179,5.5179,5.5179,5.5179,5.5179,5.5179,5.5179,5.5179,5.5179,5.5179,5.5179,5.5179,5.5179,5.5179,5.5179,5.5179,5.5179,5.5179,5.5179,5.5179,5.5179,5.5179,5.497,5.4431,5.4371,5.4132,5.3563,5.3533,5.3533,5.3533,5.3533,5.3204,5.2546,5.2306,5.1887,5.1229,5.1229,5.1229,5.1229,5.1229,5.1229,3.0853,3.7161,4.3798,4.8177,4.9823,5.0495,5.1199,5.1349,5.1379,5.1468,5.2396,5.3174,5.3174,5.3174,5.3414,5.4102,5.4221,5.4431,0.0,0.0,0.0,0.0,0.0,0.0,0.0,0.0,0.0,0.0,0.0,0.0,5.5179,5.5179,5.5179,5.5179,5.5179,5.5179,5.5179,5.5179,5.5179,5.5179,5.5179,5.5179,5.5179,5.5179,5.488,5.4341,5.4341,5.3952,5.3324,5.3324,5.3264,5.3174,5.3174,5.3593,5.4221,5.4221,5.461,5.5179,5.5179,5.5179,5.5179,5.5179,5.5179,5.5179,5.5179,5.5179,5.5179,5.5179,5.5179,5.5179,5.5179,5.5179,5.5179,5.5179,5.5179,5.5179,5.5179,5.5179,5.5179,5.5179,5.5179,5.5179,5.5179,5.5179,5.5179,5.5179,5.5179,5.5179,5.5179,5.5179,5.5179,5.5179,5.5179,5.5149,5.5059,5.5059,5.5029,5.494,5.491,5.491,5.491,5.491,5.461,5.3952,5.2785,5.1887,5.1229,5.1229,5.1229,5.1229,5.1229,5.1229,3.2258,3.8182,4.3658,4.7279,4.9224,5.0255,5.0554,5.096,5.1229,5.1229,5.1678,5.2067,5.2067,5.2067,5.2306,5.2965,5.3084,5.3294,0.0,0.0,0.0,0.0,0.0,0.0,0.0,0.0,0.0,0.0,0.0,5.5179,5.5179,5.5179,5.5179,5.5179,5.5179,5.5179,5.5179,5.5179,5.4999,5.464,5.464,5.4431,5.4072,5.4072,5.4102,5.4221,5.4221,5.3623,5.2636,5.2636,5.2426,5.2067,5.2067,5.2725,5.3623,5.3623,5.4281,5.5179,5.5179,5.5179,5.5179,5.5179,5.5179,5.5179,5.5179,5.5179,5.5179,5.5179,5.5179,5.5179,5.5179,5.5179,5.5179,5.5179,5.5179,5.5179,5.5179,5.5179,5.5179,5.5179,5.5179,5.5179,5.5179,5.5179,5.5179,5.5179,5.5179,5.5179,5.5179,5.5179,5.5179,5.5179,5.5179,5.5179,5.5179,5.5179,5.5179,5.5179,5.5179,5.5179,5.5179,5.5179,5.488,5.4221,5.3623,5.2995,5.2306,5.2306,5.2306,5.2306,5.2306,5.2306,3.2796,3.7614,4.1752,4.5185,4.7399,4.882,4.9329,5.0122,5.078,5.0883,5.1063,5.1229,5.1229,5.1229,5.1439,5.2097,5.2187,0.0,0.0,0.0,0.0,0.0,0.0,0.0,0.0,0.0,0.0,0.0,0.0,5.5179,5.5179,5.5179,5.5179,5.5179,5.5179,5.5179,5.5179,5.5179,5.485,5.4221,5.4221,5.3832,5.3174,5.3174,5.3384,5.3713,5.3713,5.3025,5.1947,5.1947,5.1648,5.1229,5.1229,5.2037,5.3174,5.3174,5.4042,5.5179,5.5179,5.5179,5.5179,5.5179,5.5179,5.5179,5.5179,5.5179,5.5179,5.5179,5.5179,5.5179,5.5179,5.5179,5.5179,5.5179,5.5179,5.5179,5.5179,5.5179,5.5179,5.5179,5.5179,5.5179,5.5179,5.5179,5.5179,5.5179,5.5179,5.5179,5.5179,5.5179,5.5179,5.5179,5.5179,5.5179,5.5179,5.5179,5.5179,5.5179,5.5179,5.5179,5.5179,5.5179,5.497,5.4461,5.4461,5.4042,5.3174,5.3174,5.3174,5.3174,5.3174,5.3174,3.0913,3.4203,3.7768,4.1692,4.3629,4.5125,4.704,4.8446,4.9553,5.0106,5.0734,5.1229,5.1229,5.1229,5.1439,5.2097,5.2187,0.0,0.0,0.0,0.0,0.0,0.0,0.0,0.0,0.0,0.0,0.0,0.0,5.5179,5.5179,5.5179,5.5179,5.5179,5.5179,5.5179,5.5179,5.5179,5.485,5.4221,5.4221,5.3832,5.3174,5.3174,5.2845,5.2306,5.2306,5.1917,5.1259,5.1259,5.1259,5.1229,5.1229,5.2037,5.3174,5.3174,5.4042,5.5179,5.5179,5.5179,5.5179,5.5179,5.5179,5.5179,5.5179,5.5179,5.5179,5.5179,5.5179,5.5179,5.5179,5.5179,5.5179,5.5179,5.5179,5.5179,5.5179,5.5179,5.5179,5.5179,5.5179,5.5179,5.5179,5.5179,5.5179,5.5179,5.5179,5.5179,5.5179,5.5179,5.5179,5.5179,5.5179,5.5179,5.5179,5.5179,5.5179,5.5179,5.5179,5.5179,5.5179,5.5179,5.5179,5.5149,5.5149,5.4491,5.3174,5.3174,5.3174,5.3174,5.3174,5.3174,2.723,3.0434,3.4053,3.7195,4.0217,4.2851,4.4407,4.6441,4.8327,4.9404,5.0122,5.0674,5.1139,5.1229,5.1289,5.1528,5.1558,0.0,0.0,0.0,0.0,0.0,0.0,0.0,0.0,0.0,0.0,0.0,0.0,0.0,5.3892,5.3892,5.3892,5.3892,5.3892,5.3892,5.3892,5.4341,5.4012,5.2935,5.2935,5.2576,5.1917,5.1917,5.1798,5.1558,5.1558,5.1439,5.1259,5.1678,5.1588,5.1229,5.1229,5.2037,5.3174,5.3174,5.4042,5.5179,5.5179,5.5179,5.5179,5.5179,5.5179,5.5179,5.5179,5.5179,5.5179,5.5179,5.5179,5.5179,5.5179,5.5179,5.5179,5.5179,5.5179,5.5179,5.5179,5.5179,5.5179,5.5179,5.5179,5.5179,5.5179,5.5179,5.5179,5.5179,5.5179,5.5179,5.5179,5.5179,5.5179,5.5179,5.5179,5.5179,5.5179,5.5179,5.5179,5.5179,5.5179,5.5179,5.5179,5.5179,5.5179,5.5179,5.5179,5.494,5.4461,5.4461,5.4461,5.4461,5.4461,5.4461,2.5023,2.7833,3.1062,3.3275,3.6477,3.9469,4.0995,4.3569,4.6142,4.7908,4.9134,5.0182,5.105,5.1229,5.1229,5.1229,5.1229,0.0,0.0,0.0,0.0,0.0,0.0,0.0,0.0,0.0,0.0,0.0,0.0,0.0,5.3174,5.3174,5.3174,5.3174,5.3414,5.3414,5.3174,5.3862,5.3533,5.2187,5.2187,5.1858,5.1229,5.1229,5.1229,5.1229,5.1439,5.1439,5.1259,5.1678,5.1738,5.1558,5.1558,5.2366,5.3533,5.3533,5.4221,5.5179,5.5179,5.5179,5.5179,5.5179,5.5179,5.5179,5.5179,5.5179,5.5179,5.5179,5.5179,5.5179,5.5179,5.5179,5.5179,5.5179,5.5179,5.5179,5.5179,5.5179,5.5179,5.5179,5.5179,5.5179,5.5179,5.5179,5.5179,5.5179,5.5179,5.5179,5.5179,5.5179,5.5179,5.5179,5.5179,5.5179,5.5179,5.5179,5.5179,5.5179,5.5179,5.5179,5.5179,5.5179,5.5179,5.5179,5.5179,5.5179,5.5179,5.5179,5.5179,5.5179,5.5179,5.5179,0.0,0.0,0.0,3.0043,3.2377,3.4893,3.6806,3.9828,4.301,4.5663,4.7788,4.9553,5.09,5.1169,5.1169,5.1199,0.0,0.0,0.0,0.0,0.0,0.0,0.0,0.0,0.0,0.0,0.0,0.0,0.0,5.3114,5.3114,5.3114,5.3114,5.3114,5.3803,5.3832,5.3144,5.3803,5.3473,5.2187,5.2187,5.1828,5.1229,5.1229,5.1229,5.1259,5.1887,5.1798,5.1229,5.1229,5.1618,5.2187,5.2187,5.3025,5.4221,5.4221,5.461,5.5179,5.5179,5.5179,5.5179,5.5179,5.5179,5.5179,5.5179,5.5179,5.5179,5.5179,5.5179,5.5179,5.5179,5.5179,5.5179,5.5179,5.5179,5.5179,5.5179,5.5179,5.5179,5.5179,5.5179,5.5179,5.5179,5.5179,5.5179,5.5179,5.5179,5.5179,5.5179,5.5179,5.5179,5.5179,5.5179,5.5179,5.5179,5.5179,5.5179,5.5179,5.5179,5.5179,5.5179,5.5179,5.5179,5.5179,5.5179,5.5179,5.5179,5.5179,5.5179,5.5179,5.5179,5.5179,2.3242,0.0,0.0,0.0,0.0,0.0,3.2886,3.6058,3.9679,4.2821,4.5035,4.71,4.9374,4.9823,4.9972,5.0375,0.0,0.0,0.0,0.0,0.0,0.0,0.0,0.0,0.0,0.0,0.0,0.0,5.1768,5.1768,5.1768,5.1768,5.1768,5.1768,5.2396,5.2426,5.1768,5.2426,5.2336,5.1498,5.1498,5.1379,5.1229,5.1229,5.1229,5.1229,5.1409,5.1379,5.1259,5.1738,5.2037,5.2187,5.2187,5.3025,5.4221,5.4221,5.461,5.5179,5.5179,5.5179,5.5179,5.5179,5.5179,5.5179,5.5179,5.5179,5.5179,5.5179,5.5179,5.5179,5.5179,5.5179,5.5179,5.5179,5.5179,5.5179,5.5179,5.5179,5.5179,5.5179,5.5179,5.5179,5.5179,5.5179,5.5179,5.5179,5.5179,5.5179,5.5179,5.5179,5.5179,5.5179,5.5179,5.5179,5.5179,5.5179,5.5179,5.5179,5.5179,5.5179,5.5179,5.5179,5.5179,5.5179,5.5179,5.5179,5.5179,5.5179,5.5179,5.5179,5.5179,5.5179,2.432,2.5368,2.6422,2.6422,0.0,0.0,3.0552,3.3335,3.6626,0.0,4.2102,4.4377,4.677,4.7429,4.7728,4.8117,0.0,0.0,0.0,0.0,0.0,0.0,0.0,0.0,0.0,0.0,0.0,5.1229,5.1229,5.1229,5.1229,5.1229,5.1229,5.1229,5.1858,5.1887,5.1229,5.1858,5.1858,5.1229,5.1229,5.1229,5.1229,5.1229,5.1229,5.1229,5.1229,5.1229,5.1259,5.1618,5.2127,5.2606,5.2606,5.3443,5.461,5.461,5.485,5.5179,5.5179,5.5179,5.5179,5.5179,5.5179,5.5179,5.5179,5.5179,5.5179,5.5179,5.5179,5.5179,5.5179,5.5179,5.5179,5.5179,5.5179,5.5179,5.5179,5.5179,5.5179,5.5179,5.5179,5.5179,5.5179,5.5179,5.5179,5.5179,5.5179,5.5179,5.5179,5.5179,5.5179,5.5179,5.5179,5.5179,5.5179,5.5179,5.5179,5.5179,5.5179,5.5179,5.5179,5.5179,5.5179,5.5179,5.5179,5.5179,5.5179,5.5179,5.5179,5.5179,5.5179,5.5179,2.6901,2.7375,2.7794,2.7735,2.8184,0.0,2.9056,3.118,3.3754,0.0,3.8811,4.1235,4.3269,4.4137,4.4586,4.4736,0.0,0.0,0.0,0.0,0.0,0.0,0.0,0.0,0.0,5.1169,5.1229,5.1229,5.1229,5.1229,5.1229,5.1229,5.1229,5.1229,5.1798,5.1798,5.1229,5.1798,5.1798,5.1229,5.1229,5.1229,5.1229,5.1229,5.1229,5.1229,5.1229,5.1259,5.1319,5.1319,5.2067,5.3174,5.3174,5.4012,5.5179,5.5179,5.5179,5.5179,5.5179,5.5179,5.5179,5.5179,5.5179,5.5179,5.5179,5.5179,5.5179,5.5179,5.5179,5.5179,5.5179,5.5179,5.5179,5.5179,5.5179,5.5179,5.5179,5.5179,5.5179,5.5179,5.5179,5.5179,5.5179,5.5179,5.5179,5.5179,5.5179,5.5179,5.5179,5.5179,5.5179,5.5179,5.5179,5.5179,5.5179,5.5179,5.5179,5.5179,5.5179,5.5179,5.5179,5.5179,5.5179,5.5179,5.5179,5.5179,5.5179,5.5179,5.5179,5.5179,5.5179,5.5179,2.8873,2.9112,2.9082,2.8517,2.8487,0.0,2.6722,2.8457,3.0791,0.0,3.4352,3.663,3.908,3.9649,4.0098,4.1175,0.0,0.0,0.0,0.0,0.0,0.0,0.0,0.0,0.0,5.0853,5.1229,5.1229,5.1229,5.1229,5.1229,5.1229,5.1229,5.1229,5.1349,5.1349,5.1229,5.1349,5.1349,5.1229,5.1229,5.1229,5.1229,5.1229,5.1229,5.1229,5.1229,5.1528,5.2007,5.2007,5.2486,5.3174,5.3174,5.4012,5.5179,5.5179,5.5179,5.5179,5.5179,5.5179,5.5179,5.5179,5.5179,5.5179,5.5179,5.5179,5.5179,5.5179,5.5179,5.5179,5.5179,5.5179,5.5179,5.5179,5.5179,5.5179,5.5179,5.5179,5.5179,5.5179,5.5179,5.5179,5.5179,5.5179,5.5179,5.5179,5.5179,5.5179,5.5179,5.5179,5.5179,5.5179,5.5179,5.5179,5.5179,5.5179,5.5179,5.5179,5.5179,5.5179,5.5179,5.5179,5.5179,5.5179,5.5179,5.5179,5.5179,5.5179,5.5179,5.5179,5.5179,5.5179,3.0941,3.0791,3.0402,2.9714,0.0,0.0,0.0,2.7889,2.9385,3.0342,3.1869,3.3514,3.516,3.5729,3.6178,0.0,0.0,0.0,0.0,0.0,0.0,0.0,0.0,0.0,0.0,5.0495,5.0823,5.1199,5.1229,5.1229,5.1229,5.1229,5.1229,5.1229,5.1229,5.1229,5.1229,5.1229,5.1229,5.1229,5.1229,5.1229,5.1229,5.1229,5.1229,5.1229,5.1229,5.1588,5.2187,5.2187,5.2785,5.3683,5.3683,5.4311,5.5179,5.5179,5.5179,5.5179,5.5179,5.5179,5.5179,5.5179,5.5179,5.5179,5.5179,5.5179,5.5179,5.5179,5.5179,5.5179,5.5179,5.5179,5.5179,5.5179,5.5179,5.5179,5.5179,5.5179,5.5179,5.5179,5.5179,5.5179,5.5179,5.5179,5.5179,5.5179,5.5179,5.5179,5.5179,5.5179,5.5179,5.5179,5.5179,5.5179,5.5179,5.5179,5.5179,5.5179,5.5179,5.5179,5.5179,5.5179,5.5179,5.5179,5.5179,5.5179,5.5179,5.5179,5.5179,5.5179,5.5179,5.5179,3.3245,3.2706,3.1869,0.0,0.0,2.8697,0.0,0.0,0.0,0.0,0.0,0.0,0.0,0.0,0.0,0.0,0.0,0.0,0.0,0.0,0.0,0.0,0.0,0.0,0.0,4.9568,4.9837,5.0421,5.0451,5.0571,5.084,5.096,5.1079,5.1229,5.1229,5.1229,5.1229,5.1229,5.1229,5.1229,5.1229,5.1229,5.1229,5.1229,5.1229,5.1229,5.1229,5.1648,5.2396,5.2396,5.3174,5.4371,5.4251,5.461,5.5179,5.5179,5.5179,5.5179,5.5179,5.5179,5.5179,5.5179,5.5179,5.5179,5.5179,5.5179,5.5179,5.5179,5.5179,5.5179,5.5179,5.5179,5.5179,5.5179,5.5179,5.5179,5.5179,5.5179,5.5179,5.5179,5.5179,5.5179,5.5179,5.5179,5.5179,5.5179,5.5179,5.5179,5.5179,5.5179,5.5179,5.5179,5.5179,5.5179,5.5179,5.5179,5.5179,5.5179,5.5179,5.5179,5.5179,5.5179,5.5179,5.5179,5.5179,5.5179,5.5179,5.5179,5.5179,5.5179,5.5179,5.5179,0.0,0.0,0.0,0.0,3.127,0.0,0.0,0.0,2.7555,2.7076,0.0,0.0,0.0,0.0,0.0,0.0,0.0,0.0,0.0,0.0,0.0,0.0,0.0,0.0,0.0,0.0,4.7668,4.7758,4.7758,4.8267,4.9479,5.0032,5.0584,5.1199,5.1229,5.1229,5.1229,5.1229,5.1229,5.1229,5.1229,5.1229,5.1229,5.1229,5.1229,5.1229,5.1229,5.1917,5.3084,5.3084,5.3862,5.5029,5.4431,5.461,5.5179,5.5179,5.5179,5.5179,5.5179,5.5179,5.5179,5.5179,5.5179,5.5179,5.5179,5.5179,5.5179,5.5179,5.5179,5.5179,5.5179,5.5179,5.5179,5.5179,5.5179,5.5179,5.5179,5.5179,5.5179,5.5179,5.5179,5.5179,5.5179,5.5179,5.5179,5.5179,5.5179,5.5179,5.5179,5.5179,5.5179,5.5179,5.5179,5.5179,5.5179,5.5179,5.5179,5.5179,5.5179,5.5179,5.5179,5.5179,5.5179,5.5179,5.5179,5.5179,5.5179,5.5179,5.5179,5.5179,5.5179,5.5179,0.0,0.0,0.0,0.0,0.0,0.0,2.7705,0.0,2.8098,0.0,0.0,0.0,0.0,0.0,0.0,0.0,0.0,0.0,0.0,0.0,0.0,0.0,0.0,0.0,0.0,0.0,0.0,0.0,0.0,4.6711,4.8057,4.9464,5.0315,5.0584,5.102,5.1229,5.1229,5.1229,5.1229,5.1229,5.1229,5.1229,5.1229,5.1229,5.1229,5.1229,5.1229,5.1977,5.3174,5.3174,5.3982,5.5149,5.488,5.494,5.5179,5.5179,5.5179,5.5179,5.5179,5.5179,5.5179,5.5179,5.5179,5.5179,5.5179,5.5179,5.5179,5.5179,5.5179,5.5179,5.5179,5.5179,5.5179,5.5179,5.5179,5.5179,5.5179,5.5179,5.5179,5.5179,5.5179,5.5179,5.5179,5.5179,5.5179,5.5179,5.5179,5.5179,5.5179,5.5179,5.5179,5.5179,5.5179,5.5179,5.5179,5.5179,5.5179,5.5179,5.5179,5.5179,5.5179,5.5179,5.5179,5.5179,5.5179,5.5179,5.5179,5.5179,5.5179,5.5179,5.5179,5.5179,4.0905,0.0,0.0,0.0,0.0,0.0,0.0,0.0,0.0,0.0,0.0,0.0,0.0,0.0,0.0,0.0,0.0,0.0,0.0,0.0,0.0,0.0,0.0,0.0,0.0,0.0,0.0,0.0,0.0,0.0,4.6411,4.8536,4.9837,5.0196,5.0823,5.1229,5.1229,5.1229,5.1229,5.1229,5.1229,5.1229,5.1229,5.1229,5.1319,5.1498,5.1498,5.2247,5.3473,5.3473,5.4162,5.5179,5.5179,5.5179,5.5179,5.5179,5.5179,5.5179,5.5179,5.5179,5.5179,5.5179,5.5179,5.5179,5.5179,5.5179,5.5179,5.5179,5.5179,5.5179,5.5179,5.5179,5.5179,5.5179,5.5179,5.5179,5.5179,5.5179,5.5179,5.5179,5.5179,5.5179,5.5179,5.5179,5.5179,5.5179,5.5179,5.5179,5.5179,5.5179,5.5179,5.5179,5.5179,5.5179,5.5179,5.5179,5.5179,5.5179,5.5179,5.5179,5.5179,5.5179,5.5179,5.5179,5.5179,5.5179,5.5179,5.5179,5.5179,5.5179,5.5179,5.5179,0.0,0.0,0.0,3.7045,0.0,0.0,0.0,0.0,2.9714,0.0,0.0,0.0,0.0,0.0,0.0,2.9681,0.0,0.0,0.0,0.0,0.0,0.0,0.0,0.0,0.0,0.0,0.0,0.0,0.0,0.0,4.4257,4.692,4.8925,5.0166,5.0823,5.1229,5.1229,5.1229,5.1229,5.1229,5.1229,5.1229,5.1229,5.1229,5.1558,5.2157,5.2157,5.2935,5.4192,5.4192,5.4581,5.5179,5.5179,5.5179,5.5179,5.5179,5.5179,5.5179,5.5179,5.5179,5.5179,5.5179,5.5179,5.5179,5.5179,5.5179,5.5179,5.5179,5.5179,5.5179,5.5179,5.5179,5.5179,5.5179,5.5179,5.5179,5.5179,5.5179,5.5179,5.5179,5.5179,5.5179,5.5179,5.5179,5.5179,5.5179,5.5179,5.5179,5.5179,5.5179,5.5179,5.5179,5.5179,5.5179,5.5179,5.5179,5.5179,5.5179,5.5179,5.5179,5.5179,5.5179,5.5179,5.5179,5.5179,5.5179,5.5179,5.5179,5.5179,5.5179,5.5179,5.5179,0.0,0.0,4.2462,4.0277,0.0,0.0,0.0,0.0,0.0,0.0,0.0,0.0,0.0,0.0,0.0,3.112,0.0,0.0,0.0,0.0,0.0,0.0,0.0,0.0,0.0,0.0,0.0,0.0,0.0,0.0,0.0,4.5304,4.7578,4.8895,5.0421,5.1229,5.1229,5.1229,5.1229,5.1229,5.1229,5.1229,5.1229,5.1229,5.1588,5.2187,5.2187,5.2965,5.4221,5.4221,5.461,5.5179,5.5179,5.5179,5.5179,5.5179,5.5179,5.5179,5.5179,5.5179,5.5179,5.5179,5.5179,5.5179,5.5179,5.5179,5.5179,5.5179,5.5508,5.5837,5.5837,5.6137,5.6466,5.6466,5.6466,5.6466,5.6466,5.6466,5.6466,5.6466,5.6466,5.6466,5.6466,5.6466,5.6166,5.5329,5.5179,5.5179,5.5179,5.5179,5.5179,5.5179,5.5179,5.5179,5.5179,5.5179,5.5179,5.5179,5.5179,5.5179,5.5179,5.5179,5.5179,5.5179,5.5179,5.5179,5.5179,5.5179,5.5179,5.5179,5.5179,5.5179,4.8745,4.7249,0.0,4.3868,4.1504,0.0,3.6207,0.0,0.0,0.0,0.0,0.0,0.0,0.0,0.0,3.2856,0.0,0.0,0.0,2.7195,0.0,0.0,0.0,0.0,0.0,0.0,3.4711,3.537,3.6237,0.0,0.0,0.0,4.6322,4.7878,5.0062,5.1229,5.1229,5.1229,5.1229,5.1229,5.1229,5.1229,5.1229,5.1229,5.1708,5.2546,5.2546,5.3324,5.4551,5.4551,5.482,5.5179,5.5179,5.5179,5.5179,5.5179,5.5179,5.5179,5.5179,5.5179,5.5179,5.5179,5.5179,5.5179,5.5179,5.5179,5.5239,5.5478,5.5837,5.6278,5.6436,5.6795,5.7094,5.7094,5.7094,5.7094,5.7094,5.7094,5.7094,5.7094,5.7094,5.7094,5.7094,5.7094,5.6825,5.5987,5.5867,5.5867,5.5867,5.5867,5.5777,5.5568,5.5538,5.5448,5.5209,5.5179,5.5179,5.5179,5.5179,5.5179,5.5179,5.5179,5.5179,5.5179,5.5179,5.5179,5.5179,5.5179,5.5179,5.5179,5.5179,5.5179]}]]